Wetterdaten: Mittwoch, 02.08.2017
Datum Zeit Temp. A. Temp. A. max Feuchte A. Luftdruck Regen Wind Richtung Richtung Sonnenschein ET UV Solar Taupunkt Windchill Windböen
02.08.2017 00:00 17,9 °C 17,9 °C 95 % 1015,3 hPa 0,0 mm 0,9 km/h (0 Bft) W-NW 290 ° 0 min 0,000 mm 0,0 UV-I 0 W/m² 17,1 °C 17,9 °C 3,2 km/h (1 Bft)
02.08.2017 00:02 17,9 °C 17,9 °C 95 % 1015,2 hPa 0,0 mm 0,0 km/h (0 Bft) W-NW 290 ° 0 min 0,000 mm 0,0 UV-I 0 W/m² 17,1 °C 17,9 °C 0,0 km/h (0 Bft)
02.08.2017 00:03 17,9 °C 17,9 °C 95 % 1015,1 hPa 0,0 mm 0,0 km/h (0 Bft) W-NW 290 ° 0 min 0,000 mm 0,0 UV-I 0 W/m² 17,1 °C 17,9 °C 0,0 km/h (0 Bft)
02.08.2017 00:05 17,9 °C 17,9 °C 95 % 1015,1 hPa 0,0 mm 2,0 km/h (1 Bft) S 183 ° 0 min 0,000 mm 0,0 UV-I 0 W/m² 17,1 °C 17,9 °C 4,8 km/h (1 Bft)
02.08.2017 00:06 17,9 °C 17,9 °C 95 % 1015,1 hPa 0,0 mm 4,5 km/h (1 Bft) S 183 ° 0 min 0,000 mm 0,0 UV-I 0 W/m² 17,1 °C 17,9 °C 6,4 km/h (2 Bft)
02.08.2017 00:08 17,9 °C 17,9 °C 95 % 1015,1 hPa 0,0 mm 2,2 km/h (1 Bft) S 186 ° 0 min 0,000 mm 0,0 UV-I 0 W/m² 17,1 °C 17,9 °C 4,8 km/h (1 Bft)
02.08.2017 00:09 17,8 °C 17,9 °C 95 % 1014,9 hPa 0,0 mm 0,5 km/h (0 Bft) S 186 ° 0 min 0,000 mm 0,0 UV-I 0 W/m² 17,0 °C 17,8 °C 1,6 km/h (1 Bft)
02.08.2017 00:11 17,8 °C 17,9 °C 95 % 1014,5 hPa 0,0 mm 4,4 km/h (1 Bft) O 87 ° 0 min 0,000 mm 0,0 UV-I 0 W/m² 17,0 °C 17,8 °C 6,4 km/h (2 Bft)
02.08.2017 00:12 17,8 °C 17,9 °C 95 % 1014,4 hPa 0,0 mm 5,6 km/h (1 Bft) O-NO 68 ° 0 min 0,000 mm 0,0 UV-I 0 W/m² 17,0 °C 17,8 °C 6,4 km/h (2 Bft)
02.08.2017 00:14 17,8 °C 17,9 °C 95 % 1014,6 hPa 0,0 mm 3,1 km/h (1 Bft) N 5 ° 0 min 0,000 mm 0,0 UV-I 0 W/m² 17,0 °C 17,8 °C 6,4 km/h (2 Bft)
02.08.2017 00:15 17,9 °C 17,9 °C 95 % 1014,7 hPa 0,0 mm 3,5 km/h (1 Bft) NW 318 ° 0 min 0,000 mm 0,0 UV-I 0 W/m² 17,1 °C 17,9 °C 4,8 km/h (1 Bft)
02.08.2017 00:17 17,9 °C 17,9 °C 95 % 1014,9 hPa 0,0 mm 4,5 km/h (1 Bft) NW 323 ° 0 min 0,000 mm 0,0 UV-I 0 W/m² 17,1 °C 17,9 °C 8,0 km/h (2 Bft)
02.08.2017 00:18 17,9 °C 17,9 °C 95 % 1014,9 hPa 0,0 mm 2,0 km/h (1 Bft) NW 323 ° 0 min 0,000 mm 0,0 UV-I 0 W/m² 17,1 °C 17,9 °C 4,8 km/h (1 Bft)
02.08.2017 00:20 17,8 °C 17,9 °C 95 % 1014,8 hPa 0,0 mm 0,8 km/h (0 Bft) SW 236 ° 0 min 0,000 mm 0,0 UV-I 0 W/m² 17,0 °C 17,8 °C 3,2 km/h (1 Bft)
02.08.2017 00:21 17,8 °C 17,8 °C 95 % 1014,8 hPa 0,0 mm 5,3 km/h (1 Bft) S 190 ° 0 min 0,000 mm 0,0 UV-I 0 W/m² 17,0 °C 17,8 °C 6,4 km/h (2 Bft)
02.08.2017 00:23 17,8 °C 17,8 °C 95 % 1014,7 hPa 0,0 mm 4,6 km/h (1 Bft) S 187 ° 0 min 0,000 mm 0,0 UV-I 0 W/m² 17,0 °C 17,8 °C 8,0 km/h (2 Bft)
02.08.2017 00:24 17,8 °C 17,8 °C 95 % 1014,5 hPa 0,0 mm 0,8 km/h (0 Bft) S 187 ° 0 min 0,000 mm 0,0 UV-I 0 W/m² 17,0 °C 17,8 °C 3,2 km/h (1 Bft)
02.08.2017 00:26 17,8 °C 17,8 °C 95 % 1014,4 hPa 0,0 mm 2,3 km/h (1 Bft) O 101 ° 0 min 0,000 mm 0,0 UV-I 0 W/m² 17,0 °C 17,8 °C 3,2 km/h (1 Bft)
02.08.2017 00:27 17,8 °C 17,8 °C 95 % 1014,5 hPa 0,0 mm 1,4 km/h (1 Bft) O 101 ° 0 min 0,000 mm 0,0 UV-I 0 W/m² 17,0 °C 17,8 °C 3,2 km/h (1 Bft)
02.08.2017 00:29 17,8 °C 17,8 °C 95 % 1014,8 hPa 0,0 mm 1,0 km/h (0 Bft) O-SO 103 ° 0 min 0,000 mm 0,0 UV-I 0 W/m² 17,0 °C 17,8 °C 4,8 km/h (1 Bft)
02.08.2017 00:30 17,8 °C 17,8 °C 95 % 1014,8 hPa 0,0 mm 5,0 km/h (1 Bft) W 265 ° 0 min 0,000 mm 0,0 UV-I 0 W/m² 17,0 °C 17,8 °C 6,4 km/h (2 Bft)
02.08.2017 00:32 17,8 °C 17,8 °C 95 % 1014,8 hPa 0,0 mm 2,5 km/h (1 Bft) W 265 ° 0 min 0,000 mm 0,0 UV-I 0 W/m² 17,0 °C 17,8 °C 4,8 km/h (1 Bft)
02.08.2017 00:33 17,7 °C 17,8 °C 95 % 1014,8 hPa 0,0 mm 0,4 km/h (0 Bft) W-SW 250 ° 0 min 0,000 mm 0,0 UV-I 0 W/m² 16,9 °C 17,7 °C 1,6 km/h (1 Bft)
02.08.2017 00:35 17,7 °C 17,7 °C 95 % 1014,8 hPa 0,0 mm 1,8 km/h (1 Bft) W-SW 240 ° 0 min 0,000 mm 0,0 UV-I 0 W/m² 16,9 °C 17,7 °C 4,8 km/h (1 Bft)
02.08.2017 00:36 17,7 °C 17,8 °C 95 % 1014,8 hPa 0,0 mm 0,0 km/h (0 Bft) W-SW 240 ° 0 min 0,000 mm 0,0 UV-I 0 W/m² 16,9 °C 17,7 °C 0,0 km/h (0 Bft)
02.08.2017 00:38 17,8 °C 17,8 °C 95 % 1014,7 hPa 0,0 mm 1,0 km/h (0 Bft) W-SW 246 ° 0 min 0,000 mm 0,0 UV-I 0 W/m² 17,0 °C 17,8 °C 3,2 km/h (1 Bft)
02.08.2017 00:39 17,8 °C 17,8 °C 95 % 1014,7 hPa 0,0 mm 0,4 km/h (0 Bft) W-SW 246 ° 0 min 0,000 mm 0,0 UV-I 0 W/m² 17,0 °C 17,8 °C 1,6 km/h (1 Bft)
02.08.2017 00:41 17,8 °C 17,8 °C 95 % 1014,7 hPa 0,0 mm 0,4 km/h (0 Bft) W-SW 246 ° 0 min 0,000 mm 0,0 UV-I 0 W/m² 17,0 °C 17,8 °C 1,6 km/h (1 Bft)
02.08.2017 00:42 17,7 °C 17,8 °C 95 % 1014,7 hPa 0,0 mm 3,0 km/h (1 Bft) SW 236 ° 0 min 0,000 mm 0,0 UV-I 0 W/m² 16,9 °C 17,7 °C 4,8 km/h (1 Bft)
02.08.2017 00:44 17,8 °C 17,8 °C 95 % 1014,6 hPa 0,0 mm 2,3 km/h (1 Bft) SW 231 ° 0 min 0,000 mm 0,0 UV-I 0 W/m² 17,0 °C 17,8 °C 4,8 km/h (1 Bft)
02.08.2017 00:45 17,7 °C 17,8 °C 95 % 1014,6 hPa 0,0 mm 1,4 km/h (1 Bft) SW 231 ° 0 min 0,000 mm 0,0 UV-I 0 W/m² 16,9 °C 17,7 °C 1,6 km/h (1 Bft)
02.08.2017 00:47 17,7 °C 17,8 °C 95 % 1014,5 hPa 0,0 mm 0,0 km/h (0 Bft) SW 231 ° 0 min 0,000 mm 0,0 UV-I 0 W/m² 16,9 °C 17,7 °C 1,6 km/h (1 Bft)
02.08.2017 00:48 17,7 °C 17,8 °C 95 % 1014,5 hPa 0,0 mm 0,0 km/h (0 Bft) SW 231 ° 0 min 0,000 mm 0,0 UV-I 0 W/m² 16,9 °C 17,7 °C 0,0 km/h (0 Bft)
02.08.2017 00:50 17,7 °C 17,8 °C 95 % 1014,6 hPa 0,0 mm 0,0 km/h (0 Bft) SW 231 ° 0 min 0,000 mm 0,0 UV-I 0 W/m² 16,9 °C 17,7 °C 0,0 km/h (0 Bft)
02.08.2017 00:51 17,6 °C 17,7 °C 95 % 1014,6 hPa 0,0 mm 0,0 km/h (0 Bft) SW 231 ° 0 min 0,000 mm 0,0 UV-I 0 W/m² 16,8 °C 17,6 °C 0,0 km/h (0 Bft)
02.08.2017 00:53 17,6 °C 17,6 °C 95 % 1014,8 hPa 0,0 mm 0,0 km/h (0 Bft) SW 231 ° 0 min 0,000 mm 0,0 UV-I 0 W/m² 16,8 °C 17,6 °C 0,0 km/h (0 Bft)
02.08.2017 00:54 17,6 °C 17,6 °C 95 % 1014,8 hPa 0,0 mm 0,0 km/h (0 Bft) SW 231 ° 0 min 0,000 mm 0,0 UV-I 0 W/m² 16,8 °C 17,6 °C 0,0 km/h (0 Bft)
02.08.2017 00:56 17,6 °C 17,6 °C 95 % 1014,9 hPa 0,0 mm 0,4 km/h (0 Bft) SW 231 ° 0 min 0,000 mm 0,0 UV-I 0 W/m² 16,8 °C 17,6 °C 1,6 km/h (1 Bft)
02.08.2017 00:57 17,6 °C 17,6 °C 95 % 1014,9 hPa 0,0 mm 0,8 km/h (0 Bft) SW 231 ° 0 min 0,000 mm 0,0 UV-I 0 W/m² 16,8 °C 17,6 °C 3,2 km/h (1 Bft)
02.08.2017 00:59 17,6 °C 17,6 °C 95 % 1015,0 hPa 0,0 mm 0,2 km/h (0 Bft) SW 231 ° 0 min 0,000 mm 0,0 UV-I 0 W/m² 16,8 °C 17,6 °C 3,2 km/h (1 Bft)
02.08.2017 01:00 17,6 °C 17,6 °C 95 % 1015,0 hPa 0,0 mm 0,0 km/h (0 Bft) SW 231 ° 0 min 0,000 mm 0,0 UV-I 0 W/m² 16,8 °C 17,6 °C 0,0 km/h (0 Bft)
02.08.2017 01:02 17,5 °C 17,6 °C 95 % 1015,1 hPa 0,0 mm 0,0 km/h (0 Bft) SW 231 ° 0 min 0,000 mm 0,0 UV-I 0 W/m² 16,7 °C 17,5 °C 0,0 km/h (0 Bft)
02.08.2017 01:03 17,5 °C 17,5 °C 95 % 1015,1 hPa 0,0 mm 1,8 km/h (1 Bft) SW 235 ° 0 min 0,000 mm 0,0 UV-I 0 W/m² 16,7 °C 17,5 °C 3,2 km/h (1 Bft)
02.08.2017 01:05 17,5 °C 17,6 °C 95 % 1015,1 hPa 0,0 mm 0,7 km/h (0 Bft) SW 235 ° 0 min 0,000 mm 0,0 UV-I 0 W/m² 16,7 °C 17,5 °C 3,2 km/h (1 Bft)
02.08.2017 01:06 17,6 °C 17,6 °C 95 % 1015,1 hPa 0,0 mm 2,8 km/h (1 Bft) W-SW 240 ° 0 min 0,000 mm 0,0 UV-I 0 W/m² 16,8 °C 17,6 °C 4,8 km/h (1 Bft)
02.08.2017 01:08 17,6 °C 17,6 °C 95 % 1015,2 hPa 0,0 mm 1,8 km/h (1 Bft) W-SW 240 ° 0 min 0,000 mm 0,0 UV-I 0 W/m² 16,8 °C 17,6 °C 3,2 km/h (1 Bft)
02.08.2017 01:09 17,6 °C 17,6 °C 95 % 1015,2 hPa 0,0 mm 1,1 km/h (1 Bft) W-SW 240 ° 0 min 0,000 mm 0,0 UV-I 0 W/m² 16,8 °C 17,6 °C 1,6 km/h (1 Bft)
02.08.2017 01:11 17,7 °C 17,7 °C 95 % 1015,2 hPa 0,0 mm 0,4 km/h (0 Bft) W-SW 240 ° 0 min 0,000 mm 0,0 UV-I 0 W/m² 16,9 °C 17,7 °C 1,6 km/h (1 Bft)
02.08.2017 01:12 17,6 °C 17,7 °C 95 % 1015,2 hPa 0,0 mm 0,2 km/h (0 Bft) W-SW 240 ° 0 min 0,000 mm 0,0 UV-I 0 W/m² 16,8 °C 17,6 °C 1,6 km/h (1 Bft)
02.08.2017 01:14 17,7 °C 17,7 °C 95 % 1015,2 hPa 0,0 mm 1,7 km/h (1 Bft) SW 215 ° 0 min 0,000 mm 0,0 UV-I 0 W/m² 16,9 °C 17,7 °C 4,8 km/h (1 Bft)
02.08.2017 01:15 17,7 °C 17,7 °C 95 % 1015,2 hPa 0,0 mm 2,7 km/h (1 Bft) SW 223 ° 0 min 0,000 mm 0,0 UV-I 0 W/m² 16,9 °C 17,7 °C 6,4 km/h (2 Bft)
02.08.2017 01:17 17,7 °C 17,7 °C 95 % 1015,2 hPa 0,0 mm 0,5 km/h (0 Bft) SW 223 ° 0 min 0,000 mm 0,0 UV-I 0 W/m² 16,9 °C 17,7 °C 3,2 km/h (1 Bft)
02.08.2017 01:18 17,7 °C 17,7 °C 95 % 1015,2 hPa 0,0 mm 0,7 km/h (0 Bft) SW 223 ° 0 min 0,000 mm 0,0 UV-I 0 W/m² 16,9 °C 17,7 °C 3,2 km/h (1 Bft)
02.08.2017 01:20 17,7 °C 17,7 °C 95 % 1015,1 hPa 0,0 mm 1,5 km/h (1 Bft) SW 225 ° 0 min 0,000 mm 0,0 UV-I 0 W/m² 16,9 °C 17,7 °C 3,2 km/h (1 Bft)
02.08.2017 01:21 17,7 °C 17,7 °C 95 % 1015,1 hPa 0,0 mm 0,0 km/h (0 Bft) SW 225 ° 0 min 0,000 mm 0,0 UV-I 0 W/m² 16,9 °C 17,7 °C 0,0 km/h (0 Bft)
02.08.2017 01:23 17,7 °C 17,7 °C 95 % 1015,0 hPa 0,0 mm 2,3 km/h (1 Bft) S 178 ° 0 min 0,000 mm 0,0 UV-I 0 W/m² 16,9 °C 17,7 °C 4,8 km/h (1 Bft)
02.08.2017 01:24 17,7 °C 17,7 °C 95 % 1015,0 hPa 0,0 mm 2,4 km/h (1 Bft) S 178 ° 0 min 0,000 mm 0,0 UV-I 0 W/m² 16,9 °C 17,7 °C 3,2 km/h (1 Bft)
02.08.2017 01:26 17,7 °C 17,7 °C 95 % 1015,1 hPa 0,0 mm 1,2 km/h (1 Bft) S 178 ° 0 min 0,000 mm 0,0 UV-I 0 W/m² 16,9 °C 17,7 °C 3,2 km/h (1 Bft)
02.08.2017 01:27 17,7 °C 17,7 °C 95 % 1015,0 hPa 0,0 mm 0,0 km/h (0 Bft) S 178 ° 0 min 0,000 mm 0,0 UV-I 0 W/m² 16,9 °C 17,7 °C 0,0 km/h (0 Bft)
02.08.2017 01:29 17,7 °C 17,7 °C 95 % 1015,1 hPa 0,0 mm 0,7 km/h (0 Bft) W-SW 252 ° 0 min 0,000 mm 0,0 UV-I 0 W/m² 16,9 °C 17,7 °C 4,8 km/h (1 Bft)
02.08.2017 01:30 17,6 °C 17,7 °C 95 % 1015,1 hPa 0,0 mm 1,3 km/h (1 Bft) W-SW 252 ° 0 min 0,000 mm 0,0 UV-I 0 W/m² 16,8 °C 17,6 °C 4,8 km/h (1 Bft)
02.08.2017 01:32 17,6 °C 17,7 °C 95 % 1015,1 hPa 0,0 mm 1,2 km/h (1 Bft) S-SW 204 ° 0 min 0,000 mm 0,0 UV-I 0 W/m² 16,8 °C 17,6 °C 3,2 km/h (1 Bft)
02.08.2017 01:33 17,7 °C 17,7 °C 95 % 1015,1 hPa 0,0 mm 0,5 km/h (0 Bft) S-SW 204 ° 0 min 0,000 mm 0,0 UV-I 0 W/m² 16,9 °C 17,7 °C 3,2 km/h (1 Bft)
02.08.2017 01:35 17,6 °C 17,7 °C 95 % 1015,1 hPa 0,0 mm 1,8 km/h (1 Bft) W 261 ° 0 min 0,000 mm 0,0 UV-I 0 W/m² 16,8 °C 17,6 °C 4,8 km/h (1 Bft)
02.08.2017 01:36 17,7 °C 17,7 °C 95 % 1015,2 hPa 0,0 mm 3,5 km/h (1 Bft) W 269 ° 0 min 0,000 mm 0,0 UV-I 0 W/m² 16,9 °C 17,7 °C 4,8 km/h (1 Bft)
02.08.2017 01:38 17,7 °C 17,7 °C 95 % 1015,2 hPa 0,0 mm 2,0 km/h (1 Bft) W-NW 298 ° 0 min 0,000 mm 0,0 UV-I 0 W/m² 16,9 °C 17,7 °C 4,8 km/h (1 Bft)
02.08.2017 01:39 17,7 °C 17,7 °C 95 % 1015,2 hPa 0,0 mm 0,0 km/h (0 Bft) W-NW 298 ° 0 min 0,000 mm 0,0 UV-I 0 W/m² 16,9 °C 17,7 °C 0,0 km/h (0 Bft)
02.08.2017 01:41 17,6 °C 17,7 °C 95 % 1015,1 hPa 0,0 mm 2,5 km/h (1 Bft) SW 219 ° 0 min 0,000 mm 0,0 UV-I 0 W/m² 16,8 °C 17,6 °C 3,2 km/h (1 Bft)
02.08.2017 01:42 17,6 °C 17,7 °C 95 % 1015,1 hPa 0,0 mm 1,7 km/h (1 Bft) SW 219 ° 0 min 0,000 mm 0,0 UV-I 0 W/m² 16,8 °C 17,6 °C 3,2 km/h (1 Bft)
02.08.2017 01:44 17,6 °C 17,7 °C 95 % 1015,0 hPa 0,0 mm 0,2 km/h (0 Bft) SW 219 ° 0 min 0,000 mm 0,0 UV-I 0 W/m² 16,8 °C 17,6 °C 1,6 km/h (1 Bft)
02.08.2017 01:45 17,6 °C 17,6 °C 95 % 1015,1 hPa 0,0 mm 0,0 km/h (0 Bft) SW 219 ° 0 min 0,000 mm 0,0 UV-I 0 W/m² 16,8 °C 17,6 °C 0,0 km/h (0 Bft)
02.08.2017 01:47 17,6 °C 17,6 °C 95 % 1015,1 hPa 0,0 mm 0,0 km/h (0 Bft) SW 219 ° 0 min 0,000 mm 0,0 UV-I 0 W/m² 16,8 °C 17,6 °C 0,0 km/h (0 Bft)
02.08.2017 01:48 17,6 °C 17,6 °C 95 % 1015,1 hPa 0,0 mm 0,0 km/h (0 Bft) SW 219 ° 0 min 0,000 mm 0,0 UV-I 0 W/m² 16,8 °C 17,6 °C 0,0 km/h (0 Bft)
02.08.2017 01:50 17,6 °C 17,6 °C 95 % 1015,1 hPa 0,0 mm 0,0 km/h (0 Bft) SW 219 ° 0 min 0,000 mm 0,0 UV-I 0 W/m² 16,8 °C 17,6 °C 0,0 km/h (0 Bft)
02.08.2017 01:51 17,6 °C 17,6 °C 95 % 1015,0 hPa 0,0 mm 0,0 km/h (0 Bft) SW 219 ° 0 min 0,000 mm 0,0 UV-I 0 W/m² 16,8 °C 17,6 °C 0,0 km/h (0 Bft)
02.08.2017 01:53 17,6 °C 17,6 °C 95 % 1015,1 hPa 0,0 mm 0,0 km/h (0 Bft) SW 219 ° 0 min 0,000 mm 0,0 UV-I 0 W/m² 16,8 °C 17,6 °C 0,0 km/h (0 Bft)
02.08.2017 01:54 17,6 °C 17,6 °C 95 % 1015,1 hPa 0,0 mm 0,0 km/h (0 Bft) SW 219 ° 0 min 0,000 mm 0,0 UV-I 0 W/m² 16,8 °C 17,6 °C 0,0 km/h (0 Bft)
02.08.2017 01:56 17,6 °C 17,6 °C 95 % 1015,1 hPa 0,0 mm 0,0 km/h (0 Bft) SW 219 ° 0 min 0,000 mm 0,0 UV-I 0 W/m² 16,8 °C 17,6 °C 0,0 km/h (0 Bft)
02.08.2017 01:57 17,5 °C 17,6 °C 95 % 1015,2 hPa 0,0 mm 0,0 km/h (0 Bft) SW 219 ° 0 min 0,000 mm 0,0 UV-I 0 W/m² 16,7 °C 17,5 °C 0,0 km/h (0 Bft)
02.08.2017 01:59 17,5 °C 17,6 °C 95 % 1015,2 hPa 0,0 mm 0,0 km/h (0 Bft) SW 219 ° 0 min 0,000 mm 0,0 UV-I 0 W/m² 16,7 °C 17,5 °C 0,0 km/h (0 Bft)
02.08.2017 02:00 17,6 °C 17,6 °C 95 % 1015,2 hPa 0,0 mm 0,0 km/h (0 Bft) SW 219 ° 0 min 0,000 mm 0,0 UV-I 0 W/m² 16,8 °C 17,6 °C 0,0 km/h (0 Bft)
02.08.2017 02:02 17,6 °C 17,6 °C 95 % 1015,3 hPa 0,0 mm 0,0 km/h (0 Bft) SW 219 ° 0 min 0,000 mm 0,0 UV-I 0 W/m² 16,8 °C 17,6 °C 0,0 km/h (0 Bft)
02.08.2017 02:03 17,5 °C 17,6 °C 95 % 1015,4 hPa 0,0 mm 0,0 km/h (0 Bft) SW 219 ° 0 min 0,000 mm 0,0 UV-I 0 W/m² 16,7 °C 17,5 °C 0,0 km/h (0 Bft)
02.08.2017 02:05 17,6 °C 17,6 °C 95 % 1015,4 hPa 0,0 mm 0,0 km/h (0 Bft) SW 219 ° 0 min 0,000 mm 0,0 UV-I 0 W/m² 16,8 °C 17,6 °C 0,0 km/h (0 Bft)
02.08.2017 02:06 17,6 °C 17,6 °C 95 % 1015,4 hPa 0,0 mm 0,0 km/h (0 Bft) SW 219 ° 0 min 0,000 mm 0,0 UV-I 0 W/m² 16,8 °C 17,6 °C 0,0 km/h (0 Bft)
02.08.2017 02:08 17,6 °C 17,6 °C 95 % 1015,4 hPa 0,0 mm 0,6 km/h (0 Bft) SW 219 ° 0 min 0,000 mm 0,0 UV-I 0 W/m² 16,8 °C 17,6 °C 1,6 km/h (1 Bft)
02.08.2017 02:09 17,6 °C 17,6 °C 95 % 1015,3 hPa 0,0 mm 1,5 km/h (1 Bft) SW 219 ° 0 min 0,000 mm 0,0 UV-I 0 W/m² 16,8 °C 17,6 °C 1,6 km/h (1 Bft)
02.08.2017 02:11 17,6 °C 17,6 °C 96 % 1015,2 hPa 0,0 mm 2,3 km/h (1 Bft) O-NO 74 ° 0 min 0,000 mm 0,0 UV-I 0 W/m² 17,0 °C 17,6 °C 4,8 km/h (1 Bft)
02.08.2017 02:12 17,6 °C 17,6 °C 96 % 1015,2 hPa 0,2 mm 0,3 km/h (0 Bft) O-NO 74 ° 0 min 0,000 mm 0,0 UV-I 0 W/m² 17,0 °C 17,6 °C 1,6 km/h (1 Bft)
02.08.2017 02:14 17,6 °C 17,6 °C 96 % 1015,1 hPa 0,0 mm 0,0 km/h (0 Bft) O-NO 74 ° 0 min 0,000 mm 0,0 UV-I 0 W/m² 17,0 °C 17,6 °C 0,0 km/h (0 Bft)
02.08.2017 02:15 17,6 °C 17,6 °C 96 % 1015,1 hPa 0,0 mm 0,0 km/h (0 Bft) O-NO 74 ° 0 min 0,000 mm 0,0 UV-I 0 W/m² 17,0 °C 17,6 °C 0,0 km/h (0 Bft)
02.08.2017 02:17 17,6 °C 17,6 °C 96 % 1015,1 hPa 0,0 mm 0,0 km/h (0 Bft) O-NO 74 ° 0 min 0,000 mm 0,0 UV-I 0 W/m² 17,0 °C 17,6 °C 0,0 km/h (0 Bft)
02.08.2017 02:18 17,6 °C 17,6 °C 96 % 1015,1 hPa 0,0 mm 0,0 km/h (0 Bft) O 101 ° 0 min 0,000 mm 0,0 UV-I 0 W/m² 17,0 °C 17,6 °C 0,0 km/h (0 Bft)
02.08.2017 02:20 17,6 °C 17,6 °C 96 % 1015,1 hPa 0,0 mm 1,1 km/h (1 Bft) O-NO 59 ° 0 min 0,000 mm 0,0 UV-I 0 W/m² 17,0 °C 17,6 °C 4,8 km/h (1 Bft)
02.08.2017 02:21 17,6 °C 17,7 °C 96 % 1015,0 hPa 0,0 mm 2,7 km/h (1 Bft) NO 39 ° 0 min 0,000 mm 0,0 UV-I 0 W/m² 17,0 °C 17,6 °C 4,8 km/h (1 Bft)
02.08.2017 02:23 17,7 °C 17,7 °C 96 % 1015,1 hPa 0,0 mm 3,7 km/h (1 Bft) N-NO 26 ° 0 min 0,000 mm 0,0 UV-I 0 W/m² 17,1 °C 17,7 °C 6,4 km/h (2 Bft)
02.08.2017 02:24 17,7 °C 17,7 °C 96 % 1015,1 hPa 0,0 mm 4,1 km/h (1 Bft) N-NO 21 ° 0 min 0,000 mm 0,0 UV-I 0 W/m² 17,1 °C 17,7 °C 6,4 km/h (2 Bft)
02.08.2017 02:26 17,7 °C 17,7 °C 96 % 1015,1 hPa 0,0 mm 3,2 km/h (1 Bft) N-NW 332 ° 0 min 0,000 mm 0,0 UV-I 0 W/m² 17,1 °C 17,7 °C 4,8 km/h (1 Bft)
02.08.2017 02:27 17,7 °C 17,7 °C 96 % 1015,1 hPa 0,0 mm 1,4 km/h (1 Bft) N-NW 333 ° 0 min 0,000 mm 0,0 UV-I 0 W/m² 17,1 °C 17,7 °C 3,2 km/h (1 Bft)
02.08.2017 02:29 17,7 °C 17,7 °C 95 % 1015,2 hPa 0,0 mm 0,0 km/h (0 Bft) N-NW 333 ° 0 min 0,000 mm 0,0 UV-I 0 W/m² 16,9 °C 17,7 °C 1,6 km/h (1 Bft)
02.08.2017 02:30 17,7 °C 17,7 °C 95 % 1015,2 hPa 0,0 mm 0,0 km/h (0 Bft) N-NW 332 ° 0 min 0,000 mm 0,0 UV-I 0 W/m² 16,9 °C 17,7 °C 0,0 km/h (0 Bft)
02.08.2017 02:32 17,6 °C 17,7 °C 95 % 1015,2 hPa 0,0 mm 0,0 km/h (0 Bft) N-NW 333 ° 0 min 0,000 mm 0,0 UV-I 0 W/m² 16,8 °C 17,6 °C 0,0 km/h (0 Bft)
02.08.2017 02:33 17,6 °C 17,6 °C 95 % 1015,2 hPa 0,0 mm 0,1 km/h (0 Bft) N-NW 333 ° 0 min 0,000 mm 0,0 UV-I 0 W/m² 16,8 °C 17,6 °C 1,6 km/h (1 Bft)
02.08.2017 02:35 17,6 °C 17,6 °C 95 % 1015,3 hPa 0,0 mm 0,0 km/h (0 Bft) N-NW 333 ° 0 min 0,000 mm 0,0 UV-I 0 W/m² 16,8 °C 17,6 °C 0,0 km/h (0 Bft)
02.08.2017 02:36 17,6 °C 17,6 °C 95 % 1015,3 hPa 0,0 mm 0,0 km/h (0 Bft) N-NW 333 ° 0 min 0,000 mm 0,0 UV-I 0 W/m² 16,8 °C 17,6 °C 0,0 km/h (0 Bft)
02.08.2017 02:38 17,6 °C 17,6 °C 95 % 1015,3 hPa 0,0 mm 0,0 km/h (0 Bft) N-NW 333 ° 0 min 0,000 mm 0,0 UV-I 0 W/m² 16,8 °C 17,6 °C 0,0 km/h (0 Bft)
02.08.2017 02:39 17,6 °C 17,6 °C 95 % 1015,2 hPa 0,0 mm 0,0 km/h (0 Bft) N-NW 333 ° 0 min 0,000 mm 0,0 UV-I 0 W/m² 16,8 °C 17,6 °C 0,0 km/h (0 Bft)
02.08.2017 02:41 17,6 °C 17,6 °C 95 % 1015,3 hPa 0,0 mm 0,0 km/h (0 Bft) N-NW 333 ° 0 min 0,000 mm 0,0 UV-I 0 W/m² 16,8 °C 17,6 °C 0,0 km/h (0 Bft)
02.08.2017 02:42 17,6 °C 17,6 °C 95 % 1015,2 hPa 0,0 mm 0,0 km/h (0 Bft) N-NW 333 ° 0 min 0,000 mm 0,0 UV-I 0 W/m² 16,8 °C 17,6 °C 0,0 km/h (0 Bft)
02.08.2017 02:44 17,6 °C 17,6 °C 95 % 1015,3 hPa 0,0 mm 0,0 km/h (0 Bft) N-NW 333 ° 0 min 0,000 mm 0,0 UV-I 0 W/m² 16,8 °C 17,6 °C 0,0 km/h (0 Bft)
02.08.2017 02:45 17,6 °C 17,6 °C 95 % 1015,2 hPa 0,0 mm 0,0 km/h (0 Bft) N-NW 333 ° 0 min 0,000 mm 0,0 UV-I 0 W/m² 16,8 °C 17,6 °C 0,0 km/h (0 Bft)
02.08.2017 02:47 17,6 °C 17,6 °C 96 % 1015,2 hPa 0,0 mm 0,0 km/h (0 Bft) N-NW 333 ° 0 min 0,000 mm 0,0 UV-I 0 W/m² 17,0 °C 17,6 °C 0,0 km/h (0 Bft)
02.08.2017 02:48 17,6 °C 17,6 °C 96 % 1015,2 hPa 0,0 mm 0,4 km/h (0 Bft) N-NW 333 ° 0 min 0,000 mm 0,0 UV-I 0 W/m² 17,0 °C 17,6 °C 1,6 km/h (1 Bft)
02.08.2017 02:50 17,6 °C 17,6 °C 96 % 1015,2 hPa 0,0 mm 2,1 km/h (1 Bft) N-NW 332 ° 0 min 0,000 mm 0,0 UV-I 0 W/m² 17,0 °C 17,6 °C 3,2 km/h (1 Bft)
02.08.2017 02:51 17,6 °C 17,6 °C 96 % 1015,2 hPa 0,0 mm 0,1 km/h (0 Bft) N-NW 332 ° 0 min 0,000 mm 0,0 UV-I 0 W/m² 17,0 °C 17,6 °C 1,6 km/h (1 Bft)
02.08.2017 02:53 17,6 °C 17,6 °C 95 % 1015,5 hPa 0,0 mm 0,0 km/h (0 Bft) N-NW 332 ° 0 min 0,000 mm 0,0 UV-I 0 W/m² 16,8 °C 17,6 °C 0,0 km/h (0 Bft)
02.08.2017 02:54 17,5 °C 17,6 °C 95 % 1015,5 hPa 0,0 mm 0,0 km/h (0 Bft) N-NW 332 ° 0 min 0,000 mm 0,0 UV-I 0 W/m² 16,7 °C 17,5 °C 0,0 km/h (0 Bft)
02.08.2017 02:56 17,6 °C 17,6 °C 96 % 1015,7 hPa 0,2 mm 0,0 km/h (0 Bft) N-NW 332 ° 0 min 0,000 mm 0,0 UV-I 0 W/m² 17,0 °C 17,6 °C 0,0 km/h (0 Bft)
02.08.2017 02:57 17,6 °C 17,6 °C 96 % 1015,7 hPa 0,0 mm 0,0 km/h (0 Bft) N-NW 332 ° 0 min 0,000 mm 0,0 UV-I 0 W/m² 17,0 °C 17,6 °C 0,0 km/h (0 Bft)
02.08.2017 02:59 17,6 °C 17,6 °C 96 % 1015,7 hPa 0,0 mm 0,3 km/h (0 Bft) N-NW 332 ° 0 min 0,000 mm 0,0 UV-I 0 W/m² 17,0 °C 17,6 °C 1,6 km/h (1 Bft)
02.08.2017 03:00 17,6 °C 17,6 °C 96 % 1015,7 hPa 0,0 mm 1,7 km/h (1 Bft) N-NW 332 ° 0 min 0,000 mm 0,0 UV-I 0 W/m² 17,0 °C 17,6 °C 3,2 km/h (1 Bft)
02.08.2017 03:02 17,6 °C 17,6 °C 96 % 1015,7 hPa 0,0 mm 1,3 km/h (1 Bft) N-NW 332 ° 0 min 0,000 mm 0,0 UV-I 0 W/m² 17,0 °C 17,6 °C 3,2 km/h (1 Bft)
02.08.2017 03:03 17,6 °C 17,6 °C 96 % 1015,7 hPa 0,0 mm 0,2 km/h (0 Bft) N-NW 332 ° 0 min 0,000 mm 0,0 UV-I 0 W/m² 17,0 °C 17,6 °C 1,6 km/h (1 Bft)
02.08.2017 03:05 17,6 °C 17,6 °C 96 % 1015,7 hPa 0,0 mm 0,0 km/h (0 Bft) N-NW 332 ° 0 min 0,000 mm 0,0 UV-I 0 W/m² 17,0 °C 17,6 °C 1,6 km/h (1 Bft)
02.08.2017 03:06 17,5 °C 17,6 °C 96 % 1015,7 hPa 0,0 mm 0,0 km/h (0 Bft) N-NW 332 ° 0 min 0,000 mm 0,0 UV-I 0 W/m² 16,9 °C 17,5 °C 0,0 km/h (0 Bft)
02.08.2017 03:08 17,5 °C 17,6 °C 95 % 1015,8 hPa 0,0 mm 0,0 km/h (0 Bft) N-NW 332 ° 0 min 0,000 mm 0,0 UV-I 0 W/m² 16,7 °C 17,5 °C 0,0 km/h (0 Bft)
02.08.2017 03:09 17,5 °C 17,5 °C 95 % 1015,8 hPa 0,0 mm 0,0 km/h (0 Bft) N-NW 332 ° 0 min 0,000 mm 0,0 UV-I 0 W/m² 16,7 °C 17,5 °C 0,0 km/h (0 Bft)
02.08.2017 03:11 17,5 °C 17,5 °C 95 % 1015,8 hPa 0,0 mm 0,0 km/h (0 Bft) N-NW 332 ° 0 min 0,000 mm 0,0 UV-I 0 W/m² 16,7 °C 17,5 °C 0,0 km/h (0 Bft)
02.08.2017 03:12 17,5 °C 17,5 °C 95 % 1015,8 hPa 0,0 mm 0,0 km/h (0 Bft) N-NW 332 ° 0 min 0,000 mm 0,0 UV-I 0 W/m² 16,7 °C 17,5 °C 0,0 km/h (0 Bft)
02.08.2017 03:14 17,4 °C 17,5 °C 95 % 1015,9 hPa 0,0 mm 0,0 km/h (0 Bft) N-NW 332 ° 0 min 0,000 mm 0,0 UV-I 0 W/m² 16,6 °C 17,4 °C 0,0 km/h (0 Bft)
02.08.2017 03:15 17,5 °C 17,5 °C 95 % 1015,9 hPa 0,0 mm 0,0 km/h (0 Bft) N-NW 332 ° 0 min 0,000 mm 0,0 UV-I 0 W/m² 16,7 °C 17,5 °C 0,0 km/h (0 Bft)
02.08.2017 03:17 17,4 °C 17,5 °C 95 % 1016,0 hPa 0,0 mm 0,0 km/h (0 Bft) N-NW 332 ° 0 min 0,000 mm 0,0 UV-I 0 W/m² 16,6 °C 17,4 °C 0,0 km/h (0 Bft)
02.08.2017 03:18 17,4 °C 17,4 °C 95 % 1016,0 hPa 0,0 mm 0,0 km/h (0 Bft) N-NW 332 ° 0 min 0,000 mm 0,0 UV-I 0 W/m² 16,6 °C 17,4 °C 0,0 km/h (0 Bft)
02.08.2017 03:20 17,4 °C 17,4 °C 96 % 1016,0 hPa 0,0 mm 0,0 km/h (0 Bft) N-NW 332 ° 0 min 0,000 mm 0,0 UV-I 0 W/m² 16,8 °C 17,4 °C 0,0 km/h (0 Bft)
02.08.2017 03:21 17,4 °C 17,5 °C 96 % 1015,9 hPa 0,0 mm 1,8 km/h (1 Bft) N-NW 333 ° 0 min 0,000 mm 0,0 UV-I 0 W/m² 16,8 °C 17,4 °C 3,2 km/h (1 Bft)
02.08.2017 03:23 17,5 °C 17,5 °C 96 % 1015,9 hPa 0,0 mm 1,1 km/h (1 Bft) N-NW 333 ° 0 min 0,000 mm 0,0 UV-I 0 W/m² 16,9 °C 17,5 °C 3,2 km/h (1 Bft)
02.08.2017 03:24 17,5 °C 17,5 °C 96 % 1015,9 hPa 0,0 mm 0,0 km/h (0 Bft) N-NW 333 ° 0 min 0,000 mm 0,0 UV-I 0 W/m² 16,9 °C 17,5 °C 0,0 km/h (0 Bft)
02.08.2017 03:26 17,5 °C 17,6 °C 96 % 1015,9 hPa 0,0 mm 0,0 km/h (0 Bft) N-NW 333 ° 0 min 0,000 mm 0,0 UV-I 0 W/m² 16,9 °C 17,5 °C 0,0 km/h (0 Bft)
02.08.2017 03:27 17,5 °C 17,5 °C 96 % 1015,9 hPa 0,0 mm 0,0 km/h (0 Bft) N-NW 333 ° 0 min 0,000 mm 0,0 UV-I 0 W/m² 16,9 °C 17,5 °C 0,0 km/h (0 Bft)
02.08.2017 03:29 17,6 °C 17,6 °C 96 % 1015,9 hPa 0,0 mm 0,4 km/h (0 Bft) N-NW 333 ° 0 min 0,000 mm 0,0 UV-I 0 W/m² 17,0 °C 17,6 °C 1,6 km/h (1 Bft)
02.08.2017 03:30 17,5 °C 17,6 °C 96 % 1015,8 hPa 0,0 mm 0,1 km/h (0 Bft) N-NW 333 ° 0 min 0,000 mm 0,0 UV-I 0 W/m² 16,9 °C 17,5 °C 1,6 km/h (1 Bft)
02.08.2017 03:32 17,4 °C 17,5 °C 96 % 1015,8 hPa 0,0 mm 0,0 km/h (0 Bft) N-NW 333 ° 0 min 0,000 mm 0,0 UV-I 0 W/m² 16,8 °C 17,4 °C 0,0 km/h (0 Bft)
02.08.2017 03:33 17,5 °C 17,5 °C 96 % 1015,8 hPa 0,0 mm 0,0 km/h (0 Bft) N-NW 333 ° 0 min 0,000 mm 0,0 UV-I 0 W/m² 16,9 °C 17,5 °C 0,0 km/h (0 Bft)
02.08.2017 03:35 17,4 °C 17,5 °C 96 % 1015,8 hPa 0,0 mm 0,0 km/h (0 Bft) N-NW 333 ° 0 min 0,000 mm 0,0 UV-I 0 W/m² 16,8 °C 17,4 °C 0,0 km/h (0 Bft)
02.08.2017 03:36 17,4 °C 17,5 °C 96 % 1015,8 hPa 0,0 mm 0,0 km/h (0 Bft) N-NW 333 ° 0 min 0,000 mm 0,0 UV-I 0 W/m² 16,8 °C 17,4 °C 0,0 km/h (0 Bft)
02.08.2017 03:38 17,4 °C 17,5 °C 96 % 1016,0 hPa 0,0 mm 0,0 km/h (0 Bft) N-NW 333 ° 0 min 0,000 mm 0,0 UV-I 0 W/m² 16,8 °C 17,4 °C 0,0 km/h (0 Bft)
02.08.2017 03:39 17,5 °C 17,5 °C 96 % 1016,0 hPa 0,0 mm 0,0 km/h (0 Bft) N-NW 333 ° 0 min 0,000 mm 0,0 UV-I 0 W/m² 16,9 °C 17,5 °C 0,0 km/h (0 Bft)
02.08.2017 03:41 17,4 °C 17,5 °C 96 % 1016,0 hPa 0,0 mm 0,0 km/h (0 Bft) N-NW 333 ° 0 min 0,000 mm 0,0 UV-I 0 W/m² 16,8 °C 17,4 °C 0,0 km/h (0 Bft)
02.08.2017 03:42 17,5 °C 17,5 °C 96 % 1016,0 hPa 0,0 mm 0,0 km/h (0 Bft) N-NW 333 ° 0 min 0,000 mm 0,0 UV-I 0 W/m² 16,9 °C 17,5 °C 0,0 km/h (0 Bft)
02.08.2017 03:44 17,5 °C 17,5 °C 96 % 1015,9 hPa 0,0 mm 1,9 km/h (1 Bft) N-NW 343 ° 0 min 0,000 mm 0,0 UV-I 0 W/m² 16,9 °C 17,5 °C 3,2 km/h (1 Bft)
02.08.2017 03:45 17,5 °C 17,5 °C 96 % 1015,9 hPa 0,2 mm 1,4 km/h (1 Bft) N-NW 343 ° 0 min 0,000 mm 0,0 UV-I 0 W/m² 16,9 °C 17,5 °C 3,2 km/h (1 Bft)
02.08.2017 03:47 17,5 °C 17,5 °C 96 % 1015,6 hPa 0,0 mm 0,9 km/h (0 Bft) N-NW 343 ° 0 min 0,000 mm 0,0 UV-I 0 W/m² 16,9 °C 17,5 °C 1,6 km/h (1 Bft)
02.08.2017 03:48 17,5 °C 17,5 °C 96 % 1015,6 hPa 0,0 mm 1,0 km/h (0 Bft) N-NW 343 ° 0 min 0,000 mm 0,0 UV-I 0 W/m² 16,9 °C 17,5 °C 1,6 km/h (1 Bft)
02.08.2017 03:50 17,4 °C 17,5 °C 96 % 1015,6 hPa 0,0 mm 0,1 km/h (0 Bft) N-NW 343 ° 0 min 0,000 mm 0,0 UV-I 0 W/m² 16,8 °C 17,4 °C 1,6 km/h (1 Bft)
02.08.2017 03:51 17,4 °C 17,4 °C 96 % 1015,5 hPa 0,0 mm 0,0 km/h (0 Bft) N-NW 343 ° 0 min 0,000 mm 0,0 UV-I 0 W/m² 16,8 °C 17,4 °C 0,0 km/h (0 Bft)
02.08.2017 03:53 17,4 °C 17,4 °C 96 % 1015,6 hPa 0,0 mm 2,6 km/h (1 Bft) SO 128 ° 0 min 0,000 mm 0,0 UV-I 0 W/m² 16,8 °C 17,4 °C 4,8 km/h (1 Bft)
02.08.2017 03:54 17,4 °C 17,4 °C 96 % 1015,7 hPa 0,0 mm 0,7 km/h (0 Bft) S-SW 202 ° 0 min 0,000 mm 0,0 UV-I 0 W/m² 16,8 °C 17,4 °C 3,2 km/h (1 Bft)
02.08.2017 03:56 17,5 °C 17,5 °C 96 % 1016,0 hPa 0,0 mm 2,6 km/h (1 Bft) W 274 ° 0 min 0,000 mm 0,0 UV-I 0 W/m² 16,9 °C 17,5 °C 4,8 km/h (1 Bft)
02.08.2017 03:57 17,5 °C 17,5 °C 96 % 1016,2 hPa 0,0 mm 4,9 km/h (1 Bft) W 273 ° 0 min 0,000 mm 0,0 UV-I 0 W/m² 16,9 °C 17,5 °C 6,4 km/h (2 Bft)
02.08.2017 03:59 17,6 °C 17,6 °C 96 % 1016,4 hPa 0,0 mm 3,9 km/h (1 Bft) W 279 ° 0 min 0,000 mm 0,0 UV-I 0 W/m² 17,0 °C 17,6 °C 6,4 km/h (2 Bft)
02.08.2017 04:00 17,5 °C 17,6 °C 96 % 1016,5 hPa 0,0 mm 3,7 km/h (1 Bft) W-NW 286 ° 0 min 0,000 mm 0,0 UV-I 0 W/m² 16,9 °C 17,5 °C 6,4 km/h (2 Bft)
02.08.2017 04:02 17,6 °C 17,6 °C 96 % 1016,7 hPa 0,0 mm 1,9 km/h (1 Bft) W 277 ° 0 min 0,000 mm 0,0 UV-I 0 W/m² 17,0 °C 17,6 °C 4,8 km/h (1 Bft)
02.08.2017 04:03 17,6 °C 17,6 °C 96 % 1016,7 hPa 0,0 mm 4,3 km/h (1 Bft) W 273 ° 0 min 0,000 mm 0,0 UV-I 0 W/m² 17,0 °C 17,6 °C 6,4 km/h (2 Bft)
02.08.2017 04:05 17,6 °C 17,6 °C 96 % 1016,9 hPa 0,0 mm 2,1 km/h (1 Bft) W 273 ° 0 min 0,000 mm 0,0 UV-I 0 W/m² 17,0 °C 17,6 °C 4,8 km/h (1 Bft)
02.08.2017 04:06 17,6 °C 17,6 °C 96 % 1016,9 hPa 0,0 mm 2,8 km/h (1 Bft) W 281 ° 0 min 0,000 mm 0,0 UV-I 0 W/m² 17,0 °C 17,6 °C 3,2 km/h (1 Bft)
02.08.2017 04:08 17,6 °C 17,6 °C 96 % 1017,1 hPa 0,0 mm 1,7 km/h (1 Bft) W 281 ° 0 min 0,000 mm 0,0 UV-I 0 W/m² 17,0 °C 17,6 °C 4,8 km/h (1 Bft)
02.08.2017 04:09 17,6 °C 17,6 °C 96 % 1017,1 hPa 0,0 mm 1,8 km/h (1 Bft) W 281 ° 0 min 0,000 mm 0,0 UV-I 0 W/m² 17,0 °C 17,6 °C 3,2 km/h (1 Bft)
02.08.2017 04:11 17,6 °C 17,6 °C 96 % 1017,4 hPa 0,0 mm 2,0 km/h (1 Bft) W 281 ° 0 min 0,000 mm 0,0 UV-I 0 W/m² 17,0 °C 17,6 °C 4,8 km/h (1 Bft)
02.08.2017 04:12 17,6 °C 17,6 °C 96 % 1017,4 hPa 0,0 mm 3,6 km/h (1 Bft) W 273 ° 0 min 0,000 mm 0,0 UV-I 0 W/m² 17,0 °C 17,6 °C 6,4 km/h (2 Bft)
02.08.2017 04:14 17,6 °C 17,6 °C 96 % 1017,6 hPa 0,0 mm 4,5 km/h (1 Bft) W 264 ° 0 min 0,000 mm 0,0 UV-I 0 W/m² 17,0 °C 17,6 °C 6,4 km/h (2 Bft)
02.08.2017 04:15 17,6 °C 17,6 °C 96 % 1017,6 hPa 0,0 mm 4,3 km/h (1 Bft) SW 235 ° 0 min 0,000 mm 0,0 UV-I 0 W/m² 17,0 °C 17,6 °C 9,7 km/h (2 Bft)
02.08.2017 04:17 17,6 °C 17,6 °C 96 % 1017,7 hPa 0,0 mm 3,9 km/h (1 Bft) S-SW 200 ° 0 min 0,000 mm 0,0 UV-I 0 W/m² 17,0 °C 17,6 °C 11,3 km/h (2 Bft)
02.08.2017 04:18 17,5 °C 17,6 °C 96 % 1017,7 hPa 0,0 mm 1,4 km/h (1 Bft) S-SW 200 ° 0 min 0,000 mm 0,0 UV-I 0 W/m² 16,9 °C 17,5 °C 3,2 km/h (1 Bft)
02.08.2017 04:20 17,5 °C 17,6 °C 96 % 1017,9 hPa 0,0 mm 1,3 km/h (1 Bft) S-SW 203 ° 0 min 0,000 mm 0,0 UV-I 0 W/m² 16,9 °C 17,5 °C 3,2 km/h (1 Bft)
02.08.2017 04:21 17,6 °C 17,6 °C 96 % 1017,9 hPa 0,0 mm 1,8 km/h (1 Bft) S-SW 203 ° 0 min 0,000 mm 0,0 UV-I 0 W/m² 17,0 °C 17,6 °C 3,2 km/h (1 Bft)
02.08.2017 04:23 17,6 °C 17,6 °C 96 % 1018,1 hPa 0,2 mm 3,6 km/h (1 Bft) W-NW 296 ° 0 min 0,000 mm 0,0 UV-I 0 W/m² 17,0 °C 17,6 °C 4,8 km/h (1 Bft)
02.08.2017 04:24 17,6 °C 17,6 °C 96 % 1018,1 hPa 0,0 mm 2,5 km/h (1 Bft) W-NW 295 ° 0 min 0,000 mm 0,0 UV-I 0 W/m² 17,0 °C 17,6 °C 3,2 km/h (1 Bft)
02.08.2017 04:26 17,6 °C 17,6 °C 96 % 1017,7 hPa 0,4 mm 1,2 km/h (1 Bft) W-NW 300 ° 0 min 0,000 mm 0,0 UV-I 0 W/m² 17,0 °C 17,6 °C 3,2 km/h (1 Bft)
02.08.2017 04:27 17,6 °C 17,6 °C 96 % 1017,7 hPa 0,2 mm 1,0 km/h (0 Bft) NO 41 ° 0 min 0,000 mm 0,0 UV-I 0 W/m² 17,0 °C 17,6 °C 4,8 km/h (1 Bft)
02.08.2017 04:29 17,6 °C 17,6 °C 96 % 1017,0 hPa 0,2 mm 5,3 km/h (1 Bft) O 80 ° 0 min 0,000 mm 0,0 UV-I 0 W/m² 17,0 °C 17,6 °C 8,0 km/h (2 Bft)
02.08.2017 04:30 17,6 °C 17,6 °C 96 % 1017,0 hPa 0,0 mm 4,6 km/h (1 Bft) O 87 ° 0 min 0,000 mm 0,0 UV-I 0 W/m² 17,0 °C 17,6 °C 6,4 km/h (2 Bft)
02.08.2017 04:32 17,5 °C 17,6 °C 95 % 1017,0 hPa 0,2 mm 3,3 km/h (1 Bft) S-SO 158 ° 0 min 0,000 mm 0,0 UV-I 0 W/m² 16,7 °C 17,5 °C 4,8 km/h (1 Bft)
02.08.2017 04:33 17,6 °C 17,6 °C 95 % 1017,0 hPa 0,0 mm 5,1 km/h (1 Bft) S 169 ° 0 min 0,000 mm 0,0 UV-I 0 W/m² 16,8 °C 17,6 °C 8,0 km/h (2 Bft)
02.08.2017 04:35 17,5 °C 17,6 °C 95 % 1017,1 hPa 0,2 mm 3,0 km/h (1 Bft) S 169 ° 0 min 0,000 mm 0,0 UV-I 0 W/m² 16,7 °C 17,5 °C 6,4 km/h (2 Bft)
02.08.2017 04:36 17,5 °C 17,6 °C 95 % 1017,1 hPa 0,0 mm 1,1 km/h (1 Bft) S 169 ° 0 min 0,000 mm 0,0 UV-I 0 W/m² 16,7 °C 17,5 °C 1,6 km/h (1 Bft)
02.08.2017 04:38 17,5 °C 17,6 °C 95 % 1017,2 hPa 0,0 mm 0,1 km/h (0 Bft) S 169 ° 0 min 0,000 mm 0,0 UV-I 0 W/m² 16,7 °C 17,5 °C 1,6 km/h (1 Bft)
02.08.2017 04:39 17,4 °C 17,5 °C 95 % 1017,2 hPa 0,0 mm 0,0 km/h (0 Bft) S 169 ° 0 min 0,000 mm 0,0 UV-I 0 W/m² 16,6 °C 17,4 °C 0,0 km/h (0 Bft)
02.08.2017 04:41 17,4 °C 17,5 °C 95 % 1017,1 hPa 0,0 mm 1,5 km/h (1 Bft) S 169 ° 0 min 0,000 mm 0,0 UV-I 0 W/m² 16,6 °C 17,4 °C 3,2 km/h (1 Bft)
02.08.2017 04:42 17,4 °C 17,4 °C 95 % 1017,1 hPa 0,0 mm 2,7 km/h (1 Bft) S 169 ° 0 min 0,000 mm 0,0 UV-I 0 W/m² 16,6 °C 17,4 °C 3,2 km/h (1 Bft)
02.08.2017 04:44 17,4 °C 17,4 °C 95 % 1017,2 hPa 0,0 mm 4,4 km/h (1 Bft) S 183 ° 0 min 0,000 mm 0,0 UV-I 0 W/m² 16,6 °C 17,4 °C 6,4 km/h (2 Bft)
02.08.2017 04:45 17,4 °C 17,4 °C 95 % 1017,2 hPa 0,0 mm 3,5 km/h (1 Bft) S 183 ° 0 min 0,000 mm 0,0 UV-I 0 W/m² 16,6 °C 17,4 °C 4,8 km/h (1 Bft)
02.08.2017 04:47 17,4 °C 17,4 °C 95 % 1016,9 hPa 0,0 mm 3,0 km/h (1 Bft) S-SO 155 ° 0 min 0,000 mm 0,0 UV-I 0 W/m² 16,6 °C 17,4 °C 6,4 km/h (2 Bft)
02.08.2017 04:48 17,4 °C 17,4 °C 95 % 1016,9 hPa 0,0 mm 1,5 km/h (1 Bft) S-SO 155 ° 0 min 0,000 mm 0,0 UV-I 0 W/m² 16,6 °C 17,4 °C 3,2 km/h (1 Bft)
02.08.2017 04:50 17,3 °C 17,4 °C 95 % 1017,0 hPa 0,0 mm 0,3 km/h (0 Bft) S-SO 155 ° 0 min 0,000 mm 0,0 UV-I 0 W/m² 16,5 °C 17,3 °C 1,6 km/h (1 Bft)
02.08.2017 04:51 17,3 °C 17,3 °C 95 % 1017,0 hPa 0,0 mm 0,0 km/h (0 Bft) S-SO 155 ° 0 min 0,000 mm 0,0 UV-I 0 W/m² 16,5 °C 17,3 °C 0,0 km/h (0 Bft)
02.08.2017 04:53 17,2 °C 17,3 °C 95 % 1017,1 hPa 0,0 mm 0,1 km/h (0 Bft) S-SO 155 ° 0 min 0,000 mm 0,0 UV-I 0 W/m² 16,4 °C 17,2 °C 1,6 km/h (1 Bft)
02.08.2017 04:54 17,2 °C 17,2 °C 95 % 1017,1 hPa 0,0 mm 1,8 km/h (1 Bft) S-SO 155 ° 0 min 0,000 mm 0,0 UV-I 0 W/m² 16,4 °C 17,2 °C 3,2 km/h (1 Bft)
02.08.2017 04:56 17,2 °C 17,2 °C 95 % 1017,3 hPa 0,0 mm 0,1 km/h (0 Bft) S-SO 155 ° 0 min 0,000 mm 0,0 UV-I 0 W/m² 16,4 °C 17,2 °C 1,6 km/h (1 Bft)
02.08.2017 04:57 17,1 °C 17,2 °C 95 % 1017,3 hPa 0,0 mm 0,6 km/h (0 Bft) S-SO 155 ° 0 min 0,000 mm 0,0 UV-I 0 W/m² 16,3 °C 17,1 °C 1,6 km/h (1 Bft)
02.08.2017 04:59 17,1 °C 17,1 °C 95 % 1017,3 hPa 0,0 mm 0,0 km/h (0 Bft) S-SO 155 ° 0 min 0,000 mm 0,0 UV-I 0 W/m² 16,3 °C 17,1 °C 0,0 km/h (0 Bft)
02.08.2017 05:00 17,0 °C 17,1 °C 95 % 1017,3 hPa 0,0 mm 0,0 km/h (0 Bft) S-SO 155 ° 0 min 0,000 mm 0,0 UV-I 0 W/m² 16,2 °C 17,0 °C 0,0 km/h (0 Bft)
02.08.2017 05:02 17,0 °C 17,0 °C 96 % 1017,3 hPa 0,0 mm 0,0 km/h (0 Bft) S-SO 155 ° 0 min 0,000 mm 0,0 UV-I 0 W/m² 16,4 °C 17,0 °C 0,0 km/h (0 Bft)
02.08.2017 05:03 17,0 °C 17,0 °C 95 % 1017,3 hPa 0,0 mm 0,0 km/h (0 Bft) S-SO 155 ° 0 min 0,000 mm 0,0 UV-I 0 W/m² 16,2 °C 17,0 °C 0,0 km/h (0 Bft)
02.08.2017 05:05 16,9 °C 17,0 °C 95 % 1017,1 hPa 0,0 mm 0,0 km/h (0 Bft) S-SO 155 ° 0 min 0,000 mm 0,0 UV-I 0 W/m² 16,1 °C 16,9 °C 0,0 km/h (0 Bft)
02.08.2017 05:06 16,9 °C 16,9 °C 95 % 1017,1 hPa 0,0 mm 1,0 km/h (0 Bft) S-SO 155 ° 0 min 0,000 mm 0,0 UV-I 0 W/m² 16,1 °C 16,9 °C 1,6 km/h (1 Bft)
02.08.2017 05:08 16,9 °C 16,9 °C 96 % 1016,9 hPa 0,0 mm 1,5 km/h (1 Bft) S-SO 155 ° 0 min 0,000 mm 0,0 UV-I 0 W/m² 16,3 °C 16,9 °C 3,2 km/h (1 Bft)
02.08.2017 05:09 16,9 °C 16,9 °C 96 % 1016,9 hPa 0,0 mm 1,4 km/h (1 Bft) S-SO 155 ° 0 min 0,000 mm 0,0 UV-I 0 W/m² 16,3 °C 16,9 °C 1,6 km/h (1 Bft)
02.08.2017 05:11 16,9 °C 16,9 °C 96 % 1016,7 hPa 0,0 mm 0,7 km/h (0 Bft) SO 139 ° 0 min 0,000 mm 0,0 UV-I 0 W/m² 16,3 °C 16,9 °C 1,6 km/h (1 Bft)
02.08.2017 05:12 16,9 °C 16,9 °C 96 % 1016,7 hPa 0,0 mm 0,0 km/h (0 Bft) SO 139 ° 0 min 0,000 mm 0,0 UV-I 0 W/m² 16,3 °C 16,9 °C 0,0 km/h (0 Bft)
02.08.2017 05:14 16,8 °C 16,9 °C 96 % 1016,5 hPa 0,0 mm 0,3 km/h (0 Bft) SO 139 ° 0 min 0,000 mm 0,0 UV-I 0 W/m² 16,2 °C 16,8 °C 3,2 km/h (1 Bft)
02.08.2017 05:15 16,8 °C 16,8 °C 95 % 1016,5 hPa 0,0 mm 0,0 km/h (0 Bft) SO 139 ° 0 min 0,000 mm 0,0 UV-I 0 W/m² 16,0 °C 16,8 °C 0,0 km/h (0 Bft)
02.08.2017 05:17 16,7 °C 16,8 °C 95 % 1016,5 hPa 0,0 mm 0,7 km/h (0 Bft) O-SO 123 ° 0 min 0,000 mm 0,0 UV-I 0 W/m² 15,9 °C 16,7 °C 3,2 km/h (1 Bft)
02.08.2017 05:18 16,7 °C 16,7 °C 95 % 1016,5 hPa 0,0 mm 0,3 km/h (0 Bft) O-SO 123 ° 0 min 0,000 mm 0,0 UV-I 0 W/m² 15,9 °C 16,7 °C 1,6 km/h (1 Bft)
02.08.2017 05:20 16,6 °C 16,7 °C 96 % 1016,4 hPa 0,0 mm 0,0 km/h (0 Bft) O-SO 123 ° 0 min 0,000 mm 0,0 UV-I 0 W/m² 16,0 °C 16,6 °C 0,0 km/h (0 Bft)
02.08.2017 05:21 16,7 °C 16,7 °C 96 % 1016,4 hPa 0,0 mm 0,0 km/h (0 Bft) O-SO 123 ° 0 min 0,000 mm 0,0 UV-I 0 W/m² 16,1 °C 16,7 °C 0,0 km/h (0 Bft)
02.08.2017 05:23 16,6 °C 16,7 °C 96 % 1016,6 hPa 0,0 mm 0,3 km/h (0 Bft) O-SO 123 ° 0 min 0,000 mm 0,0 UV-I 0 W/m² 16,0 °C 16,6 °C 1,6 km/h (1 Bft)
02.08.2017 05:24 16,6 °C 16,6 °C 96 % 1016,6 hPa 0,0 mm 0,2 km/h (0 Bft) O-SO 123 ° 0 min 0,000 mm 0,0 UV-I 0 W/m² 16,0 °C 16,6 °C 1,6 km/h (1 Bft)
02.08.2017 05:26 16,7 °C 16,7 °C 96 % 1016,6 hPa 0,0 mm 1,4 km/h (1 Bft) SO 144 ° 0 min 0,000 mm 0,0 UV-I 0 W/m² 16,1 °C 16,7 °C 3,2 km/h (1 Bft)
02.08.2017 05:27 16,7 °C 16,7 °C 96 % 1016,6 hPa 0,0 mm 0,0 km/h (0 Bft) SO 144 ° 0 min 0,000 mm 0,0 UV-I 0 W/m² 16,1 °C 16,7 °C 0,0 km/h (0 Bft)
02.08.2017 05:29 16,7 °C 16,8 °C 96 % 1016,7 hPa 0,0 mm 0,0 km/h (0 Bft) SO 144 ° 0 min 0,000 mm 0,0 UV-I 0 W/m² 16,1 °C 16,7 °C 0,0 km/h (0 Bft)
02.08.2017 05:30 16,7 °C 16,7 °C 96 % 1016,7 hPa 0,0 mm 0,0 km/h (0 Bft) SO 144 ° 0 min 0,000 mm 0,0 UV-I 0 W/m² 16,1 °C 16,7 °C 0,0 km/h (0 Bft)
02.08.2017 05:32 16,7 °C 16,7 °C 96 % 1016,6 hPa 0,0 mm 0,0 km/h (0 Bft) SO 144 ° 0 min 0,000 mm 0,0 UV-I 0 W/m² 16,1 °C 16,7 °C 0,0 km/h (0 Bft)
02.08.2017 05:33 16,7 °C 16,7 °C 96 % 1016,6 hPa 0,0 mm 0,0 km/h (0 Bft) SO 144 ° 0 min 0,000 mm 0,0 UV-I 0 W/m² 16,1 °C 16,7 °C 0,0 km/h (0 Bft)
02.08.2017 05:35 16,7 °C 16,8 °C 96 % 1016,6 hPa 0,0 mm 0,0 km/h (0 Bft) SO 144 ° 0 min 0,000 mm 0,0 UV-I 0 W/m² 16,1 °C 16,7 °C 0,0 km/h (0 Bft)
02.08.2017 05:36 16,7 °C 16,7 °C 96 % 1016,6 hPa 0,0 mm 0,4 km/h (0 Bft) SO 144 ° 0 min 0,000 mm 0,0 UV-I 0 W/m² 16,1 °C 16,7 °C 1,6 km/h (1 Bft)
02.08.2017 05:38 16,8 °C 16,8 °C 96 % 1016,5 hPa 0,0 mm 2,6 km/h (1 Bft) SO 144 ° 0 min 0,000 mm 0,0 UV-I 0 W/m² 16,2 °C 16,8 °C 3,2 km/h (1 Bft)
02.08.2017 05:39 16,8 °C 16,8 °C 96 % 1016,5 hPa 0,0 mm 2,5 km/h (1 Bft) SO 144 ° 0 min 0,000 mm 0,0 UV-I 0 W/m² 16,2 °C 16,8 °C 3,2 km/h (1 Bft)
02.08.2017 05:41 16,8 °C 16,8 °C 96 % 1016,6 hPa 0,0 mm 1,8 km/h (1 Bft) SO 144 ° 0 min 0,000 mm 0,0 UV-I 0 W/m² 16,2 °C 16,8 °C 4,8 km/h (1 Bft)
02.08.2017 05:42 16,7 °C 16,8 °C 96 % 1016,6 hPa 0,0 mm 0,0 km/h (0 Bft) SO 144 ° 0 min 0,000 mm 0,0 UV-I 0 W/m² 16,1 °C 16,7 °C 0,0 km/h (0 Bft)
02.08.2017 05:44 16,8 °C 16,8 °C 96 % 1016,7 hPa 0,0 mm 0,0 km/h (0 Bft) SO 144 ° 0 min 0,000 mm 0,0 UV-I 0 W/m² 16,2 °C 16,8 °C 0,0 km/h (0 Bft)
02.08.2017 05:45 16,7 °C 16,8 °C 96 % 1016,7 hPa 0,0 mm 0,0 km/h (0 Bft) SO 144 ° 0 min 0,000 mm 0,0 UV-I 0 W/m² 16,1 °C 16,7 °C 0,0 km/h (0 Bft)
02.08.2017 05:47 16,7 °C 16,7 °C 96 % 1016,7 hPa 0,0 mm 0,0 km/h (0 Bft) SO 144 ° 0 min 0,000 mm 0,0 UV-I 0 W/m² 16,1 °C 16,7 °C 0,0 km/h (0 Bft)
02.08.2017 05:48 16,6 °C 16,7 °C 96 % 1016,7 hPa 0,0 mm 0,0 km/h (0 Bft) SO 144 ° 0 min 0,000 mm 0,0 UV-I 0 W/m² 16,0 °C 16,6 °C 0,0 km/h (0 Bft)
02.08.2017 05:50 16,6 °C 16,7 °C 96 % 1016,8 hPa 0,0 mm 0,0 km/h (0 Bft) SO 144 ° 0 min 0,000 mm 0,0 UV-I 0 W/m² 16,0 °C 16,6 °C 0,0 km/h (0 Bft)
02.08.2017 05:51 16,6 °C 16,6 °C 96 % 1016,7 hPa 0,0 mm 0,0 km/h (0 Bft) SO 144 ° 0 min 0,000 mm 0,0 UV-I 0 W/m² 16,0 °C 16,6 °C 0,0 km/h (0 Bft)
02.08.2017 05:53 16,7 °C 16,7 °C 96 % 1016,7 hPa 0,0 mm 0,0 km/h (0 Bft) SO 144 ° 0 min 0,000 mm 0,0 UV-I 0 W/m² 16,1 °C 16,7 °C 0,0 km/h (0 Bft)
02.08.2017 05:54 16,7 °C 16,7 °C 96 % 1016,7 hPa 0,0 mm 0,0 km/h (0 Bft) SO 144 ° 0 min 0,000 mm 0,0 UV-I 0 W/m² 16,1 °C 16,7 °C 0,0 km/h (0 Bft)
02.08.2017 05:56 16,7 °C 16,7 °C 96 % 1016,8 hPa 0,0 mm 0,0 km/h (0 Bft) SO 144 ° 0 min 0,000 mm 0,0 UV-I 0 W/m² 16,1 °C 16,7 °C 0,0 km/h (0 Bft)
02.08.2017 05:57 16,7 °C 16,7 °C 96 % 1016,8 hPa 0,0 mm 0,0 km/h (0 Bft) SO 144 ° 0 min 0,000 mm 0,0 UV-I 0 W/m² 16,1 °C 16,7 °C 0,0 km/h (0 Bft)
02.08.2017 05:59 16,8 °C 16,8 °C 96 % 1016,9 hPa 0,0 mm 0,6 km/h (0 Bft) SO 144 ° 0 min 0,000 mm 0,0 UV-I 0 W/m² 16,2 °C 16,8 °C 3,2 km/h (1 Bft)
02.08.2017 06:00 16,7 °C 16,8 °C 96 % 1016,9 hPa 0,0 mm 2,1 km/h (1 Bft) SO 144 ° 0 min 0,000 mm 0,0 UV-I 0 W/m² 16,1 °C 16,7 °C 3,2 km/h (1 Bft)
02.08.2017 06:02 16,5 °C 16,7 °C 96 % 1016,8 hPa 0,0 mm 0,6 km/h (0 Bft) SO 144 ° 0 min 0,000 mm 0,0 UV-I 0 W/m² 15,9 °C 16,5 °C 3,2 km/h (1 Bft)
02.08.2017 06:03 16,5 °C 16,6 °C 96 % 1016,8 hPa 0,0 mm 0,0 km/h (0 Bft) SO 144 ° 0 min 0,000 mm 0,0 UV-I 0 W/m² 15,9 °C 16,5 °C 0,0 km/h (0 Bft)
02.08.2017 06:05 16,4 °C 16,6 °C 96 % 1016,8 hPa 0,0 mm 0,1 km/h (0 Bft) SO 144 ° 0 min 0,000 mm 0,0 UV-I 0 W/m² 15,8 °C 16,4 °C 1,6 km/h (1 Bft)
02.08.2017 06:06 16,4 °C 16,4 °C 96 % 1016,8 hPa 0,0 mm 0,0 km/h (0 Bft) SO 144 ° 0 min 0,000 mm 0,0 UV-I 0 W/m² 15,8 °C 16,4 °C 0,0 km/h (0 Bft)
02.08.2017 06:08 16,5 °C 16,5 °C 96 % 1016,7 hPa 0,0 mm 0,0 km/h (0 Bft) SO 144 ° 0 min 0,000 mm 0,0 UV-I 5 W/m² 15,9 °C 16,5 °C 0,0 km/h (0 Bft)
02.08.2017 06:09 16,6 °C 16,6 °C 96 % 1016,7 hPa 0,0 mm 0,2 km/h (0 Bft) SO 144 ° 0 min 0,000 mm 0,0 UV-I 5 W/m² 16,0 °C 16,6 °C 1,6 km/h (1 Bft)
02.08.2017 06:11 16,5 °C 16,6 °C 96 % 1016,8 hPa 0,0 mm 0,3 km/h (0 Bft) SO 144 ° 0 min 0,000 mm 0,0 UV-I 5 W/m² 15,9 °C 16,5 °C 3,2 km/h (1 Bft)
02.08.2017 06:12 16,5 °C 16,5 °C 96 % 1016,8 hPa 0,0 mm 0,0 km/h (0 Bft) SO 144 ° 0 min 0,000 mm 0,0 UV-I 5 W/m² 15,9 °C 16,5 °C 0,0 km/h (0 Bft)
02.08.2017 06:14 16,6 °C 16,6 °C 96 % 1016,4 hPa 0,0 mm 4,7 km/h (1 Bft) O 96 ° 0 min 0,000 mm 0,0 UV-I 5 W/m² 16,0 °C 16,6 °C 9,7 km/h (2 Bft)
02.08.2017 06:15 16,5 °C 16,6 °C 96 % 1016,4 hPa 0,0 mm 4,8 km/h (1 Bft) O 93 ° 0 min 0,000 mm 0,0 UV-I 5 W/m² 15,9 °C 16,5 °C 6,4 km/h (2 Bft)
02.08.2017 06:17 16,4 °C 16,5 °C 96 % 1016,4 hPa 0,0 mm 4,4 km/h (1 Bft) O-SO 109 ° 0 min 0,000 mm 0,0 UV-I 7 W/m² 15,8 °C 16,4 °C 9,7 km/h (2 Bft)
02.08.2017 06:18 16,4 °C 16,4 °C 96 % 1016,4 hPa 0,0 mm 0,2 km/h (0 Bft) O 83 ° 0 min 0,000 mm 0,0 UV-I 7 W/m² 15,8 °C 16,4 °C 1,6 km/h (1 Bft)
02.08.2017 06:20 16,7 °C 16,7 °C 96 % 1016,5 hPa 0,0 mm 0,2 km/h (0 Bft) N 9 ° 0 min 0,000 mm 0,0 UV-I 11 W/m² 16,1 °C 16,7 °C 3,2 km/h (1 Bft)
02.08.2017 06:21 16,7 °C 16,7 °C 96 % 1016,5 hPa 0,0 mm 2,8 km/h (1 Bft) O 88 ° 0 min 0,000 mm 0,0 UV-I 11 W/m² 16,1 °C 16,7 °C 4,8 km/h (1 Bft)
02.08.2017 06:23 16,8 °C 16,8 °C 96 % 1016,6 hPa 0,0 mm 1,2 km/h (1 Bft) O-NO 70 ° 0 min 0,000 mm 0,0 UV-I 11 W/m² 16,2 °C 16,8 °C 4,8 km/h (1 Bft)
02.08.2017 06:24 16,8 °C 16,8 °C 96 % 1016,6 hPa 0,0 mm 0,9 km/h (0 Bft) O-NO 70 ° 0 min 0,000 mm 0,0 UV-I 12 W/m² 16,2 °C 16,8 °C 1,6 km/h (1 Bft)
02.08.2017 06:26 16,8 °C 16,8 °C 96 % 1016,7 hPa 0,0 mm 0,1 km/h (0 Bft) O-NO 70 ° 0 min 0,000 mm 0,0 UV-I 14 W/m² 16,2 °C 16,8 °C 1,6 km/h (1 Bft)
02.08.2017 06:27 16,8 °C 16,8 °C 96 % 1016,7 hPa 0,0 mm 0,0 km/h (0 Bft) O-NO 70 ° 0 min 0,000 mm 0,0 UV-I 14 W/m² 16,2 °C 16,8 °C 0,0 km/h (0 Bft)
02.08.2017 06:29 16,7 °C 16,8 °C 96 % 1016,7 hPa 0,0 mm 0,0 km/h (0 Bft) O-NO 70 ° 0 min 0,000 mm 0,0 UV-I 14 W/m² 16,1 °C 16,7 °C 0,0 km/h (0 Bft)
02.08.2017 06:30 16,7 °C 16,7 °C 96 % 1016,7 hPa 0,0 mm 0,0 km/h (0 Bft) O-NO 70 ° 0 min 0,000 mm 0,0 UV-I 14 W/m² 16,1 °C 16,7 °C 0,0 km/h (0 Bft)
02.08.2017 06:32 16,8 °C 16,8 °C 96 % 1016,7 hPa 0,0 mm 1,0 km/h (0 Bft) O-NO 70 ° 0 min 0,000 mm 0,0 UV-I 14 W/m² 16,2 °C 16,8 °C 1,6 km/h (1 Bft)
02.08.2017 06:33 16,8 °C 16,8 °C 96 % 1016,7 hPa 0,0 mm 0,5 km/h (0 Bft) O-NO 70 ° 0 min 0,000 mm 0,0 UV-I 14 W/m² 16,2 °C 16,8 °C 1,6 km/h (1 Bft)
02.08.2017 06:35 16,8 °C 16,8 °C 96 % 1016,6 hPa 0,0 mm 0,7 km/h (0 Bft) O-NO 70 ° 0 min 0,000 mm 0,0 UV-I 14 W/m² 16,2 °C 16,8 °C 3,2 km/h (1 Bft)
02.08.2017 06:36 16,8 °C 16,8 °C 96 % 1016,6 hPa 0,0 mm 0,0 km/h (0 Bft) O-NO 70 ° 0 min 0,000 mm 0,0 UV-I 14 W/m² 16,2 °C 16,8 °C 0,0 km/h (0 Bft)
02.08.2017 06:38 16,8 °C 16,8 °C 96 % 1016,7 hPa 0,0 mm 0,0 km/h (0 Bft) O-NO 70 ° 0 min 0,000 mm 0,0 UV-I 16 W/m² 16,2 °C 16,8 °C 0,0 km/h (0 Bft)
02.08.2017 06:39 16,7 °C 16,8 °C 96 % 1016,7 hPa 0,0 mm 0,0 km/h (0 Bft) O-NO 70 ° 0 min 0,000 mm 0,0 UV-I 18 W/m² 16,1 °C 16,7 °C 0,0 km/h (0 Bft)
02.08.2017 06:41 16,7 °C 16,7 °C 96 % 1016,6 hPa 0,0 mm 0,0 km/h (0 Bft) O-NO 76 ° 0 min 0,000 mm 0,0 UV-I 16 W/m² 16,1 °C 16,7 °C 0,0 km/h (0 Bft)
02.08.2017 06:42 16,7 °C 16,7 °C 96 % 1016,6 hPa 0,0 mm 0,0 km/h (0 Bft) O-NO 76 ° 0 min 0,000 mm 0,0 UV-I 16 W/m² 16,1 °C 16,7 °C 0,0 km/h (0 Bft)
02.08.2017 06:44 16,7 °C 16,7 °C 96 % 1016,6 hPa 0,0 mm 0,0 km/h (0 Bft) O-NO 77 ° 0 min 0,000 mm 0,0 UV-I 18 W/m² 16,1 °C 16,7 °C 0,0 km/h (0 Bft)
02.08.2017 06:45 16,7 °C 16,7 °C 96 % 1016,6 hPa 0,0 mm 0,0 km/h (0 Bft) O-NO 77 ° 0 min 0,000 mm 0,0 UV-I 19 W/m² 16,1 °C 16,7 °C 0,0 km/h (0 Bft)
02.08.2017 06:47 16,6 °C 16,7 °C 96 % 1016,5 hPa 0,0 mm 0,0 km/h (0 Bft) O-NO 77 ° 0 min 0,000 mm 0,0 UV-I 23 W/m² 16,0 °C 16,6 °C 0,0 km/h (0 Bft)
02.08.2017 06:48 16,6 °C 16,6 °C 96 % 1016,5 hPa 0,0 mm 0,0 km/h (0 Bft) O-NO 77 ° 0 min 0,000 mm 0,0 UV-I 23 W/m² 16,0 °C 16,6 °C 0,0 km/h (0 Bft)
02.08.2017 06:50 16,6 °C 16,6 °C 96 % 1016,5 hPa 0,0 mm 0,0 km/h (0 Bft) O-NO 77 ° 0 min 0,000 mm 0,0 UV-I 25 W/m² 16,0 °C 16,6 °C 0,0 km/h (0 Bft)
02.08.2017 06:51 16,6 °C 16,7 °C 96 % 1016,5 hPa 0,0 mm 0,0 km/h (0 Bft) O-NO 77 ° 0 min 0,000 mm 0,0 UV-I 25 W/m² 16,0 °C 16,6 °C 0,0 km/h (0 Bft)
02.08.2017 06:53 16,6 °C 16,7 °C 96 % 1016,4 hPa 0,0 mm 2,2 km/h (1 Bft) O 99 ° 0 min 0,000 mm 0,0 UV-I 33 W/m² 16,0 °C 16,6 °C 9,7 km/h (2 Bft)
02.08.2017 06:54 16,6 °C 16,6 °C 96 % 1016,4 hPa 0,0 mm 2,4 km/h (1 Bft) O 86 ° 0 min 0,000 mm 0,0 UV-I 37 W/m² 16,0 °C 16,6 °C 4,8 km/h (1 Bft)
02.08.2017 06:56 16,7 °C 16,7 °C 96 % 1016,4 hPa 0,0 mm 1,7 km/h (1 Bft) O-NO 63 ° 0 min 0,000 mm 0,0 UV-I 40 W/m² 16,1 °C 16,7 °C 4,8 km/h (1 Bft)
02.08.2017 06:57 16,7 °C 16,7 °C 96 % 1016,4 hPa 0,0 mm 3,6 km/h (1 Bft) O-NO 67 ° 0 min 0,000 mm 0,0 UV-I 44 W/m² 16,1 °C 16,7 °C 4,8 km/h (1 Bft)
02.08.2017 06:59 16,8 °C 16,8 °C 96 % 1016,4 hPa 0,0 mm 0,3 km/h (0 Bft) O-NO 68 ° 0 min 0,000 mm 0,0 UV-I 58 W/m² 16,2 °C 16,8 °C 3,2 km/h (1 Bft)
02.08.2017 07:00 16,8 °C 16,8 °C 96 % 1016,4 hPa 0,0 mm 0,0 km/h (0 Bft) O-NO 68 ° 0 min 0,000 mm 0,0 UV-I 62 W/m² 16,2 °C 16,8 °C 0,0 km/h (0 Bft)
02.08.2017 07:02 16,8 °C 16,8 °C 96 % 1016,5 hPa 0,0 mm 0,0 km/h (0 Bft) O-NO 68 ° 0 min 0,000 mm 0,0 UV-I 63 W/m² 16,2 °C 16,8 °C 0,0 km/h (0 Bft)
02.08.2017 07:03 16,8 °C 16,8 °C 96 % 1016,5 hPa 0,0 mm 0,0 km/h (0 Bft) N-NO 28 ° 0 min 0,000 mm 0,0 UV-I 65 W/m² 16,2 °C 16,8 °C 0,0 km/h (0 Bft)
02.08.2017 07:05 16,9 °C 16,9 °C 96 % 1016,4 hPa 0,0 mm 0,0 km/h (0 Bft) N-NO 28 ° 0 min 0,000 mm 0,0 UV-I 72 W/m² 16,3 °C 16,9 °C 0,0 km/h (0 Bft)
02.08.2017 07:06 16,9 °C 16,9 °C 96 % 1016,4 hPa 0,0 mm 0,0 km/h (0 Bft) N-NO 28 ° 0 min 0,000 mm 0,0 UV-I 76 W/m² 16,3 °C 16,9 °C 0,0 km/h (0 Bft)
02.08.2017 07:08 16,9 °C 17,0 °C 96 % 1016,5 hPa 0,0 mm 0,0 km/h (0 Bft) N-NO 28 ° 0 min 0,000 mm 0,0 UV-I 81 W/m² 16,3 °C 16,9 °C 0,0 km/h (0 Bft)
02.08.2017 07:09 16,9 °C 16,9 °C 96 % 1016,5 hPa 0,0 mm 0,0 km/h (0 Bft) N-NO 28 ° 0 min 0,000 mm 0,0 UV-I 83 W/m² 16,3 °C 16,9 °C 0,0 km/h (0 Bft)
02.08.2017 07:11 17,0 °C 17,1 °C 96 % 1016,4 hPa 0,0 mm 0,0 km/h (0 Bft) N-NO 28 ° 0 min 0,000 mm 0,0 UV-I 90 W/m² 16,4 °C 17,0 °C 0,0 km/h (0 Bft)
02.08.2017 07:12 17,0 °C 17,0 °C 96 % 1016,4 hPa 0,0 mm 0,4 km/h (0 Bft) N-NO 28 ° 0 min 0,000 mm 0,0 UV-I 91 W/m² 16,4 °C 17,0 °C 1,6 km/h (1 Bft)
02.08.2017 07:14 17,1 °C 17,1 °C 96 % 1016,4 hPa 0,0 mm 0,0 km/h (0 Bft) N-NO 28 ° 0 min 0,000 mm 0,5 UV-I 97 W/m² 16,5 °C 17,1 °C 0,0 km/h (0 Bft)
02.08.2017 07:15 17,1 °C 17,1 °C 96 % 1016,4 hPa 0,0 mm 0,0 km/h (0 Bft) N-NO 28 ° 0 min 0,000 mm 0,5 UV-I 98 W/m² 16,5 °C 17,1 °C 0,0 km/h (0 Bft)
02.08.2017 07:17 17,1 °C 17,1 °C 96 % 1016,4 hPa 0,0 mm 0,0 km/h (0 Bft) N-NO 28 ° 0 min 0,000 mm 0,5 UV-I 102 W/m² 16,5 °C 17,1 °C 0,0 km/h (0 Bft)
02.08.2017 07:18 17,1 °C 17,1 °C 96 % 1016,4 hPa 0,0 mm 0,0 km/h (0 Bft) N-NO 28 ° 0 min 0,000 mm 0,5 UV-I 104 W/m² 16,5 °C 17,1 °C 0,0 km/h (0 Bft)
02.08.2017 07:20 17,1 °C 17,2 °C 96 % 1016,3 hPa 0,0 mm 0,0 km/h (0 Bft) N-NO 28 ° 0 min 0,000 mm 0,5 UV-I 102 W/m² 16,5 °C 17,1 °C 0,0 km/h (0 Bft)
02.08.2017 07:21 17,2 °C 17,2 °C 96 % 1016,3 hPa 0,0 mm 0,1 km/h (0 Bft) N-NO 28 ° 0 min 0,000 mm 0,5 UV-I 104 W/m² 16,6 °C 17,2 °C 1,6 km/h (1 Bft)
02.08.2017 07:23 17,2 °C 17,2 °C 96 % 1016,2 hPa 0,0 mm 0,0 km/h (0 Bft) N-NO 28 ° 0 min 0,000 mm 0,5 UV-I 90 W/m² 16,6 °C 17,2 °C 0,0 km/h (0 Bft)
02.08.2017 07:24 17,2 °C 17,2 °C 96 % 1016,2 hPa 0,0 mm 0,0 km/h (0 Bft) N-NO 28 ° 0 min 0,000 mm 0,5 UV-I 91 W/m² 16,6 °C 17,2 °C 0,0 km/h (0 Bft)
02.08.2017 07:26 17,2 °C 17,2 °C 96 % 1016,2 hPa 0,0 mm 0,6 km/h (0 Bft) N-NO 28 ° 0 min 0,000 mm 0,5 UV-I 56 W/m² 16,6 °C 17,2 °C 3,2 km/h (1 Bft)
02.08.2017 07:27 17,2 °C 17,2 °C 96 % 1016,2 hPa 0,0 mm 0,0 km/h (0 Bft) N-NO 28 ° 0 min 0,000 mm 0,6 UV-I 56 W/m² 16,6 °C 17,2 °C 0,0 km/h (0 Bft)
02.08.2017 07:29 17,2 °C 17,2 °C 96 % 1016,2 hPa 0,0 mm 2,4 km/h (1 Bft) O-NO 66 ° 0 min 0,000 mm 0,0 UV-I 49 W/m² 16,6 °C 17,2 °C 6,4 km/h (2 Bft)
02.08.2017 07:30 17,2 °C 17,2 °C 96 % 1016,2 hPa 0,0 mm 3,5 km/h (1 Bft) N-NO 32 ° 0 min 0,000 mm 0,0 UV-I 49 W/m² 16,6 °C 17,2 °C 6,4 km/h (2 Bft)
02.08.2017 07:32 17,3 °C 17,3 °C 96 % 1016,2 hPa 0,0 mm 0,2 km/h (0 Bft) N-NO 32 ° 0 min 0,000 mm 0,0 UV-I 49 W/m² 16,7 °C 17,3 °C 1,6 km/h (1 Bft)
02.08.2017 07:33 17,3 °C 17,3 °C 96 % 1016,2 hPa 0,0 mm 0,0 km/h (0 Bft) N-NO 32 ° 0 min 0,000 mm 0,0 UV-I 51 W/m² 16,7 °C 17,3 °C 0,0 km/h (0 Bft)
02.08.2017 07:35 17,3 °C 17,3 °C 96 % 1016,2 hPa 0,0 mm 1,2 km/h (1 Bft) N-NO 32 ° 0 min 0,000 mm 0,0 UV-I 54 W/m² 16,7 °C 17,3 °C 3,2 km/h (1 Bft)
02.08.2017 07:36 17,4 °C 17,4 °C 96 % 1016,2 hPa 0,0 mm 0,3 km/h (0 Bft) N-NO 32 ° 0 min 0,000 mm 0,6 UV-I 72 W/m² 16,8 °C 17,4 °C 1,6 km/h (1 Bft)
02.08.2017 07:38 17,6 °C 17,6 °C 96 % 1016,2 hPa 0,0 mm 0,3 km/h (0 Bft) N-NO 32 ° 0 min 0,000 mm 0,7 UV-I 125 W/m² 17,0 °C 17,6 °C 1,6 km/h (1 Bft)
02.08.2017 07:39 17,5 °C 17,6 °C 96 % 1016,2 hPa 0,0 mm 0,4 km/h (0 Bft) N-NO 32 ° 0 min 0,000 mm 0,7 UV-I 125 W/m² 16,9 °C 17,5 °C 1,6 km/h (1 Bft)
02.08.2017 07:41 17,6 °C 17,6 °C 96 % 1016,3 hPa 0,0 mm 0,9 km/h (0 Bft) N-NO 32 ° 0 min 0,000 mm 0,7 UV-I 123 W/m² 17,0 °C 17,6 °C 3,2 km/h (1 Bft)
02.08.2017 07:42 17,5 °C 17,6 °C 96 % 1016,3 hPa 0,0 mm 0,2 km/h (0 Bft) N-NO 32 ° 0 min 0,000 mm 0,8 UV-I 123 W/m² 16,9 °C 17,5 °C 1,6 km/h (1 Bft)
02.08.2017 07:44 17,6 °C 17,6 °C 96 % 1016,3 hPa 0,0 mm 0,8 km/h (0 Bft) N-NO 32 ° 0 min 0,000 mm 0,8 UV-I 123 W/m² 17,0 °C 17,6 °C 3,2 km/h (1 Bft)
02.08.2017 07:45 17,6 °C 17,6 °C 96 % 1016,3 hPa 0,0 mm 0,2 km/h (0 Bft) N-NO 32 ° 0 min 0,000 mm 0,8 UV-I 123 W/m² 17,0 °C 17,6 °C 1,6 km/h (1 Bft)
02.08.2017 07:47 17,7 °C 17,7 °C 96 % 1016,3 hPa 0,0 mm 0,7 km/h (0 Bft) N-NO 32 ° 0 min 0,000 mm 0,8 UV-I 128 W/m² 17,1 °C 17,7 °C 3,2 km/h (1 Bft)
02.08.2017 07:48 17,7 °C 17,7 °C 96 % 1016,3 hPa 0,0 mm 0,3 km/h (0 Bft) N-NO 32 ° 0 min 0,000 mm 0,8 UV-I 130 W/m² 17,1 °C 17,7 °C 1,6 km/h (1 Bft)
02.08.2017 07:50 17,9 °C 17,9 °C 95 % 1016,3 hPa 0,0 mm 1,1 km/h (1 Bft) N-NO 32 ° 0 min 0,000 mm 0,8 UV-I 139 W/m² 17,1 °C 17,9 °C 3,2 km/h (1 Bft)
02.08.2017 07:51 17,9 °C 17,9 °C 95 % 1016,3 hPa 0,0 mm 0,0 km/h (0 Bft) N-NO 32 ° 0 min 0,000 mm 0,9 UV-I 144 W/m² 17,1 °C 17,9 °C 0,0 km/h (0 Bft)
02.08.2017 07:53 18,2 °C 18,2 °C 95 % 1016,3 hPa 0,0 mm 0,0 km/h (0 Bft) N-NO 32 ° 0 min 0,000 mm 0,9 UV-I 156 W/m² 17,4 °C 18,2 °C 0,0 km/h (0 Bft)
02.08.2017 07:54 18,2 °C 18,2 °C 95 % 1016,3 hPa 0,0 mm 0,0 km/h (0 Bft) N-NO 32 ° 0 min 0,000 mm 0,9 UV-I 162 W/m² 17,4 °C 18,2 °C 0,0 km/h (0 Bft)
02.08.2017 07:56 18,3 °C 18,3 °C 95 % 1016,2 hPa 0,0 mm 0,5 km/h (0 Bft) N-NO 32 ° 0 min 0,000 mm 0,9 UV-I 172 W/m² 17,5 °C 18,3 °C 1,6 km/h (1 Bft)
02.08.2017 07:57 18,3 °C 18,3 °C 95 % 1016,2 hPa 0,0 mm 0,0 km/h (0 Bft) N-NO 32 ° 0 min 0,000 mm 0,9 UV-I 178 W/m² 17,5 °C 18,3 °C 0,0 km/h (0 Bft)
02.08.2017 07:59 18,3 °C 18,3 °C 94 % 1016,3 hPa 0,0 mm 3,7 km/h (1 Bft) S-SO 153 ° 0 min 0,000 mm 1,0 UV-I 200 W/m² 17,3 °C 18,3 °C 8,0 km/h (2 Bft)
02.08.2017 08:00 18,3 °C 18,3 °C 94 % 1016,3 hPa 0,0 mm 1,7 km/h (1 Bft) S-SO 153 ° 0 min 0,000 mm 1,0 UV-I 211 W/m² 17,3 °C 18,3 °C 3,2 km/h (1 Bft)
02.08.2017 08:02 18,4 °C 18,4 °C 94 % 1016,2 hPa 0,0 mm 1,6 km/h (1 Bft) SO 130 ° 0 min 0,051 mm 1,0 UV-I 230 W/m² 17,4 °C 18,4 °C 4,8 km/h (1 Bft)
02.08.2017 08:03 18,4 °C 18,4 °C 94 % 1016,2 hPa 0,0 mm 1,2 km/h (1 Bft) O 92 ° 0 min 0,000 mm 1,1 UV-I 237 W/m² 17,4 °C 18,4 °C 3,2 km/h (1 Bft)
02.08.2017 08:05 18,6 °C 18,6 °C 94 % 1016,2 hPa 0,0 mm 0,0 km/h (0 Bft) O 92 ° 0 min 0,000 mm 1,0 UV-I 248 W/m² 17,6 °C 18,6 °C 1,6 km/h (1 Bft)
02.08.2017 08:06 18,7 °C 18,7 °C 95 % 1016,2 hPa 0,0 mm 0,0 km/h (0 Bft) O 92 ° 0 min 0,000 mm 1,0 UV-I 227 W/m² 17,9 °C 18,7 °C 0,0 km/h (0 Bft)
02.08.2017 08:08 18,7 °C 18,7 °C 94 % 1016,2 hPa 0,0 mm 0,0 km/h (0 Bft) O 92 ° 0 min 0,000 mm 1,0 UV-I 236 W/m² 17,7 °C 18,7 °C 0,0 km/h (0 Bft)
02.08.2017 08:09 18,7 °C 18,7 °C 93 % 1016,2 hPa 0,0 mm 0,0 km/h (0 Bft) O 92 ° 0 min 0,000 mm 1,0 UV-I 218 W/m² 17,5 °C 18,7 °C 0,0 km/h (0 Bft)
02.08.2017 08:11 18,7 °C 18,7 °C 93 % 1016,3 hPa 0,0 mm 0,0 km/h (0 Bft) O 92 ° 0 min 0,000 mm 0,9 UV-I 77 W/m² 17,5 °C 18,7 °C 0,0 km/h (0 Bft)
02.08.2017 08:12 18,7 °C 18,7 °C 93 % 1016,3 hPa 0,0 mm 0,2 km/h (0 Bft) N-NW 338 ° 0 min 0,000 mm 0,9 UV-I 76 W/m² 17,5 °C 18,7 °C 1,6 km/h (1 Bft)
02.08.2017 08:14 18,7 °C 18,7 °C 92 % 1016,3 hPa 0,0 mm 1,3 km/h (1 Bft) N-NW 334 ° 0 min 0,000 mm 0,9 UV-I 72 W/m² 17,4 °C 18,7 °C 4,8 km/h (1 Bft)
02.08.2017 08:15 18,7 °C 18,8 °C 92 % 1016,3 hPa 0,0 mm 3,6 km/h (1 Bft) N-NW 345 ° 0 min 0,000 mm 0,9 UV-I 74 W/m² 17,4 °C 18,7 °C 4,8 km/h (1 Bft)
02.08.2017 08:17 18,6 °C 18,7 °C 92 % 1016,3 hPa 0,0 mm 0,7 km/h (0 Bft) N-NW 345 ° 0 min 0,000 mm 1,1 UV-I 84 W/m² 17,3 °C 18,6 °C 3,2 km/h (1 Bft)
02.08.2017 08:18 18,6 °C 18,7 °C 92 % 1016,3 hPa 0,0 mm 3,0 km/h (1 Bft) O-NO 70 ° 0 min 0,000 mm 1,0 UV-I 91 W/m² 17,3 °C 18,6 °C 4,8 km/h (1 Bft)
02.08.2017 08:20 18,4 °C 18,6 °C 93 % 1016,4 hPa 0,0 mm 1,3 km/h (1 Bft) O-NO 70 ° 0 min 0,000 mm 1,1 UV-I 121 W/m² 17,2 °C 18,4 °C 4,8 km/h (1 Bft)
02.08.2017 08:21 18,5 °C 18,5 °C 93 % 1016,4 hPa 0,0 mm 0,2 km/h (0 Bft) O-NO 70 ° 0 min 0,000 mm 1,3 UV-I 121 W/m² 17,3 °C 18,5 °C 3,2 km/h (1 Bft)
02.08.2017 08:23 18,9 °C 18,9 °C 94 % 1016,4 hPa 0,0 mm 1,5 km/h (1 Bft) O-NO 70 ° 2 min 0,000 mm 1,4 UV-I 336 W/m² 17,9 °C 18,9 °C 3,2 km/h (1 Bft)
02.08.2017 08:24 19,0 °C 19,0 °C 94 % 1016,4 hPa 0,0 mm 0,1 km/h (0 Bft) O-NO 70 ° 1 min 0,000 mm 1,4 UV-I 348 W/m² 18,0 °C 19,0 °C 1,6 km/h (1 Bft)
02.08.2017 08:26 19,0 °C 19,1 °C 93 % 1016,4 hPa 0,0 mm 1,5 km/h (1 Bft) O-NO 70 ° 2 min 0,000 mm 1,4 UV-I 345 W/m² 17,8 °C 19,0 °C 3,2 km/h (1 Bft)
02.08.2017 08:27 19,0 °C 19,0 °C 92 % 1016,4 hPa 0,0 mm 1,7 km/h (1 Bft) O-NO 70 ° 1 min 0,000 mm 1,3 UV-I 309 W/m² 17,7 °C 19,0 °C 3,2 km/h (1 Bft)
02.08.2017 08:29 19,2 °C 19,2 °C 93 % 1016,4 hPa 0,0 mm 0,8 km/h (0 Bft) O-NO 70 ° 2 min 0,000 mm 1,3 UV-I 329 W/m² 18,0 °C 19,2 °C 3,2 km/h (1 Bft)
02.08.2017 08:30 19,3 °C 19,3 °C 92 % 1016,4 hPa 0,0 mm 0,0 km/h (0 Bft) O-NO 70 ° 1 min 0,000 mm 1,1 UV-I 297 W/m² 18,0 °C 19,3 °C 0,0 km/h (0 Bft)
02.08.2017 08:32 19,6 °C 19,6 °C 92 % 1016,4 hPa 0,0 mm 0,4 km/h (0 Bft) O-NO 70 ° 0 min 0,000 mm 1,1 UV-I 123 W/m² 18,3 °C 19,6 °C 1,6 km/h (1 Bft)
02.08.2017 08:33 19,6 °C 19,6 °C 91 % 1016,4 hPa 0,0 mm 0,5 km/h (0 Bft) O-NO 70 ° 0 min 0,000 mm 1,2 UV-I 142 W/m² 18,1 °C 19,6 °C 1,6 km/h (1 Bft)
02.08.2017 08:35 19,5 °C 19,7 °C 91 % 1016,4 hPa 0,0 mm 1,5 km/h (1 Bft) SO 133 ° 0 min 0,000 mm 1,2 UV-I 142 W/m² 18,0 °C 19,5 °C 4,8 km/h (1 Bft)
02.08.2017 08:36 19,4 °C 19,5 °C 91 % 1016,4 hPa 0,0 mm 1,0 km/h (0 Bft) SO 133 ° 0 min 0,000 mm 1,3 UV-I 171 W/m² 17,9 °C 19,4 °C 1,6 km/h (1 Bft)
02.08.2017 08:38 19,2 °C 19,4 °C 92 % 1016,4 hPa 0,0 mm 0,0 km/h (0 Bft) SO 133 ° 2 min 0,000 mm 1,5 UV-I 339 W/m² 17,9 °C 19,2 °C 1,6 km/h (1 Bft)
02.08.2017 08:39 19,1 °C 19,2 °C 92 % 1016,4 hPa 0,0 mm 0,8 km/h (0 Bft) SO 133 ° 1 min 0,000 mm 1,6 UV-I 371 W/m² 17,8 °C 19,1 °C 3,2 km/h (1 Bft)
02.08.2017 08:41 19,2 °C 19,2 °C 92 % 1016,5 hPa 0,0 mm 0,2 km/h (0 Bft) SO 133 ° 2 min 0,000 mm 1,7 UV-I 385 W/m² 17,9 °C 19,2 °C 1,6 km/h (1 Bft)
02.08.2017 08:42 19,3 °C 19,3 °C 93 % 1016,5 hPa 0,0 mm 0,0 km/h (0 Bft) SO 133 ° 1 min 0,000 mm 1,7 UV-I 378 W/m² 18,1 °C 19,3 °C 0,0 km/h (0 Bft)
02.08.2017 08:43 19,3 °C 19,3 °C 93 % 1016,5 hPa 0,0 mm 0,1 km/h (0 Bft) N 11 ° 1 min 0,000 mm 1,7 UV-I 376 W/m² 18,1 °C 19,3 °C 1,6 km/h (1 Bft)
02.08.2017 08:45 19,5 °C 19,5 °C 93 % 1016,4 hPa 0,0 mm 1,3 km/h (1 Bft) SO 143 ° 2 min 0,000 mm 1,7 UV-I 362 W/m² 18,3 °C 19,5 °C 3,2 km/h (1 Bft)
02.08.2017 08:46 19,5 °C 19,5 °C 93 % 1016,4 hPa 0,0 mm 0,7 km/h (0 Bft) W 259 ° 1 min 0,000 mm 1,4 UV-I 362 W/m² 18,3 °C 19,5 °C 3,2 km/h (1 Bft)
02.08.2017 08:48 19,5 °C 19,6 °C 93 % 1016,5 hPa 0,0 mm 0,5 km/h (0 Bft) W 259 ° 2 min 0,000 mm 1,7 UV-I 338 W/m² 18,3 °C 19,5 °C 1,6 km/h (1 Bft)
02.08.2017 08:49 19,6 °C 19,6 °C 92 % 1016,5 hPa 0,0 mm 0,5 km/h (0 Bft) SW 236 ° 1 min 0,000 mm 1,3 UV-I 295 W/m² 18,3 °C 19,6 °C 3,2 km/h (1 Bft)
02.08.2017 08:50 19,5 °C 19,6 °C 92 % 1016,5 hPa 0,0 mm 0,3 km/h (0 Bft) SW 236 ° 1 min 0,000 mm 1,3 UV-I 295 W/m² 18,2 °C 19,5 °C 1,6 km/h (1 Bft)
02.08.2017 08:52 19,4 °C 19,5 °C 93 % 1016,5 hPa 0,0 mm 0,2 km/h (0 Bft) SW 236 ° 2 min 0,000 mm 1,4 UV-I 295 W/m² 18,2 °C 19,4 °C 1,6 km/h (1 Bft)
02.08.2017 08:53 19,4 °C 19,4 °C 93 % 1016,6 hPa 0,0 mm 3,9 km/h (1 Bft) W-SW 242 ° 1 min 0,000 mm 1,4 UV-I 295 W/m² 18,2 °C 19,4 °C 8,0 km/h (2 Bft)
02.08.2017 08:55 19,4 °C 19,4 °C 91 % 1016,6 hPa 0,0 mm 3,7 km/h (1 Bft) S 176 ° 2 min 0,000 mm 2,0 UV-I 392 W/m² 17,9 °C 19,4 °C 6,4 km/h (2 Bft)
02.08.2017 08:56 19,5 °C 19,5 °C 90 % 1016,6 hPa 0,0 mm 3,7 km/h (1 Bft) S 176 ° 1 min 0,000 mm 2,0 UV-I 396 W/m² 17,8 °C 19,5 °C 4,8 km/h (1 Bft)
02.08.2017 08:58 19,5 °C 19,6 °C 90 % 1016,5 hPa 0,0 mm 1,7 km/h (1 Bft) S 177 ° 0 min 0,000 mm 2,0 UV-I 279 W/m² 17,8 °C 19,5 °C 4,8 km/h (1 Bft)
02.08.2017 08:59 19,5 °C 19,5 °C 91 % 1016,5 hPa 0,0 mm 4,0 km/h (1 Bft) W-NW 285 ° 0 min 0,000 mm 2,0 UV-I 279 W/m² 18,0 °C 19,5 °C 4,8 km/h (1 Bft)
02.08.2017 09:01 19,6 °C 19,6 °C 92 % 1016,4 hPa 0,0 mm 1,1 km/h (1 Bft) W-NW 284 ° 2 min 0,127 mm 2,1 UV-I 406 W/m² 18,3 °C 19,6 °C 4,8 km/h (1 Bft)
02.08.2017 09:02 19,6 °C 19,6 °C 92 % 1016,4 hPa 0,0 mm 1,3 km/h (1 Bft) W-NW 284 ° 1 min 0,000 mm 2,1 UV-I 406 W/m² 18,3 °C 19,6 °C 3,2 km/h (1 Bft)
02.08.2017 09:04 19,7 °C 19,7 °C 93 % 1016,4 hPa 0,0 mm 0,5 km/h (0 Bft) W-NW 284 ° 2 min 0,000 mm 2,1 UV-I 392 W/m² 18,5 °C 19,7 °C 3,2 km/h (1 Bft)
02.08.2017 09:05 19,8 °C 19,8 °C 93 % 1016,4 hPa 0,0 mm 2,6 km/h (1 Bft) N-NW 329 ° 1 min 0,000 mm 2,2 UV-I 396 W/m² 18,6 °C 19,8 °C 4,8 km/h (1 Bft)
02.08.2017 09:07 20,0 °C 20,0 °C 92 % 1016,4 hPa 0,0 mm 1,5 km/h (1 Bft) N-NW 340 ° 2 min 0,000 mm 2,2 UV-I 397 W/m² 18,7 °C 20,0 °C 4,8 km/h (1 Bft)
02.08.2017 09:08 20,0 °C 20,1 °C 91 % 1016,4 hPa 0,0 mm 1,5 km/h (1 Bft) N-NW 340 ° 1 min 0,000 mm 2,2 UV-I 401 W/m² 18,5 °C 20,0 °C 3,2 km/h (1 Bft)
02.08.2017 09:10 19,9 °C 20,1 °C 91 % 1016,4 hPa 0,0 mm 0,4 km/h (0 Bft) N-NW 340 ° 2 min 0,000 mm 2,3 UV-I 411 W/m² 18,4 °C 19,9 °C 1,6 km/h (1 Bft)
02.08.2017 09:11 19,9 °C 20,0 °C 91 % 1016,4 hPa 0,0 mm 0,4 km/h (0 Bft) N-NW 342 ° 1 min 0,000 mm 2,3 UV-I 410 W/m² 18,4 °C 19,9 °C 1,6 km/h (1 Bft)
02.08.2017 09:13 20,0 °C 20,1 °C 91 % 1016,4 hPa 0,0 mm 0,5 km/h (0 Bft) N-NW 342 ° 2 min 0,000 mm 2,3 UV-I 410 W/m² 18,5 °C 20,0 °C 3,2 km/h (1 Bft)
02.08.2017 09:14 20,1 °C 20,1 °C 92 % 1016,4 hPa 0,0 mm 0,5 km/h (0 Bft) NW 308 ° 1 min 0,000 mm 2,3 UV-I 415 W/m² 18,8 °C 20,1 °C 3,2 km/h (1 Bft)
02.08.2017 09:16 20,2 °C 20,2 °C 90 % 1016,4 hPa 0,0 mm 0,0 km/h (0 Bft) NW 308 ° 2 min 0,000 mm 2,4 UV-I 429 W/m² 18,5 °C 20,2 °C 0,0 km/h (0 Bft)
02.08.2017 09:17 20,1 °C 20,2 °C 91 % 1016,4 hPa 0,0 mm 0,9 km/h (0 Bft) NW 308 ° 1 min 0,000 mm 2,4 UV-I 431 W/m² 18,6 °C 20,1 °C 1,6 km/h (1 Bft)
02.08.2017 09:19 20,0 °C 20,1 °C 91 % 1016,4 hPa 0,0 mm 0,8 km/h (0 Bft) NW 308 ° 2 min 0,000 mm 2,5 UV-I 445 W/m² 18,5 °C 20,0 °C 3,2 km/h (1 Bft)
02.08.2017 09:20 20,0 °C 20,0 °C 90 % 1016,4 hPa 0,0 mm 1,1 km/h (1 Bft) S-SW 212 ° 1 min 0,000 mm 2,6 UV-I 466 W/m² 18,3 °C 20,0 °C 3,2 km/h (1 Bft)
02.08.2017 09:22 20,2 °C 20,2 °C 90 % 1016,3 hPa 0,0 mm 0,6 km/h (0 Bft) N-NO 24 ° 2 min 0,000 mm 2,7 UV-I 483 W/m² 18,5 °C 20,2 °C 3,2 km/h (1 Bft)
02.08.2017 09:23 20,2 °C 20,2 °C 92 % 1016,3 hPa 0,0 mm 0,5 km/h (0 Bft) N-NO 24 ° 1 min 0,000 mm 2,8 UV-I 492 W/m² 18,9 °C 20,2 °C 1,6 km/h (1 Bft)
02.08.2017 09:25 20,4 °C 20,4 °C 93 % 1016,4 hPa 0,0 mm 0,3 km/h (0 Bft) N-NO 24 ° 2 min 0,000 mm 2,8 UV-I 515 W/m² 19,2 °C 20,4 °C 1,6 km/h (1 Bft)
02.08.2017 09:26 20,4 °C 20,4 °C 92 % 1016,4 hPa 0,0 mm 0,2 km/h (0 Bft) N-NO 24 ° 1 min 0,000 mm 2,9 UV-I 517 W/m² 19,1 °C 20,4 °C 1,6 km/h (1 Bft)
02.08.2017 09:28 20,6 °C 20,6 °C 91 % 1016,5 hPa 0,0 mm 0,0 km/h (0 Bft) N-NO 24 ° 2 min 0,000 mm 2,9 UV-I 513 W/m² 19,1 °C 20,6 °C 0,0 km/h (0 Bft)
02.08.2017 09:29 20,7 °C 20,7 °C 90 % 1016,5 hPa 0,0 mm 0,1 km/h (0 Bft) N-NO 24 ° 1 min 0,000 mm 2,9 UV-I 510 W/m² 19,0 °C 20,7 °C 1,6 km/h (1 Bft)
02.08.2017 09:31 20,8 °C 20,8 °C 90 % 1016,5 hPa 0,0 mm 0,8 km/h (0 Bft) N-NO 24 ° 2 min 0,000 mm 2,9 UV-I 501 W/m² 19,1 °C 20,8 °C 3,2 km/h (1 Bft)
02.08.2017 09:32 20,8 °C 20,8 °C 89 % 1016,5 hPa 0,0 mm 0,0 km/h (0 Bft) N-NO 24 ° 1 min 0,000 mm 2,9 UV-I 497 W/m² 18,9 °C 20,8 °C 0,0 km/h (0 Bft)
02.08.2017 09:34 21,1 °C 21,1 °C 89 % 1016,4 hPa 0,0 mm 0,9 km/h (0 Bft) N-NO 26 ° 2 min 0,000 mm 2,9 UV-I 496 W/m² 19,2 °C 21,1 °C 3,2 km/h (1 Bft)
02.08.2017 09:35 21,2 °C 21,2 °C 89 % 1016,4 hPa 0,0 mm 1,3 km/h (1 Bft) O-NO 78 ° 1 min 0,000 mm 2,9 UV-I 497 W/m² 19,3 °C 21,2 °C 3,2 km/h (1 Bft)
02.08.2017 09:37 21,2 °C 21,3 °C 89 % 1016,4 hPa 0,0 mm 0,3 km/h (0 Bft) O-NO 78 ° 2 min 0,000 mm 3,0 UV-I 497 W/m² 19,3 °C 21,2 °C 1,6 km/h (1 Bft)
02.08.2017 09:38 21,3 °C 21,3 °C 88 % 1016,4 hPa 0,0 mm 0,0 km/h (0 Bft) O-NO 78 ° 1 min 0,000 mm 3,0 UV-I 497 W/m² 19,2 °C 21,3 °C 0,0 km/h (0 Bft)
02.08.2017 09:40 21,2 °C 21,3 °C 89 % 1016,4 hPa 0,0 mm 0,8 km/h (0 Bft) O-NO 78 ° 2 min 0,000 mm 3,1 UV-I 504 W/m² 19,3 °C 21,2 °C 3,2 km/h (1 Bft)
02.08.2017 09:41 21,2 °C 21,2 °C 89 % 1016,4 hPa 0,0 mm 0,0 km/h (0 Bft) O-NO 78 ° 1 min 0,000 mm 3,1 UV-I 510 W/m² 19,3 °C 21,2 °C 0,0 km/h (0 Bft)
02.08.2017 09:43 21,4 °C 21,4 °C 90 % 1016,4 hPa 0,0 mm 0,7 km/h (0 Bft) O-NO 78 ° 2 min 0,000 mm 3,2 UV-I 536 W/m² 19,7 °C 21,4 °C 3,2 km/h (1 Bft)
02.08.2017 09:44 21,3 °C 21,4 °C 89 % 1016,4 hPa 0,0 mm 0,0 km/h (0 Bft) O-NO 78 ° 1 min 0,000 mm 3,3 UV-I 541 W/m² 19,4 °C 21,3 °C 0,0 km/h (0 Bft)
02.08.2017 09:46 21,3 °C 21,3 °C 90 % 1016,5 hPa 0,0 mm 0,0 km/h (0 Bft) O-NO 78 ° 2 min 0,000 mm 3,4 UV-I 555 W/m² 19,6 °C 21,3 °C 0,0 km/h (0 Bft)
02.08.2017 09:47 21,4 °C 21,4 °C 90 % 1016,5 hPa 0,0 mm 0,1 km/h (0 Bft) O-NO 78 ° 1 min 0,000 mm 3,4 UV-I 559 W/m² 19,7 °C 21,4 °C 1,6 km/h (1 Bft)
02.08.2017 09:49 21,6 °C 21,6 °C 88 % 1016,5 hPa 0,0 mm 0,9 km/h (0 Bft) O-NO 78 ° 2 min 0,000 mm 3,5 UV-I 561 W/m² 19,5 °C 21,6 °C 3,2 km/h (1 Bft)
02.08.2017 09:50 21,7 °C 21,7 °C 88 % 1016,5 hPa 0,0 mm 0,4 km/h (0 Bft) O-NO 78 ° 1 min 0,000 mm 3,5 UV-I 568 W/m² 19,6 °C 21,7 °C 1,6 km/h (1 Bft)
02.08.2017 09:52 22,0 °C 22,0 °C 89 % 1016,4 hPa 0,0 mm 0,4 km/h (0 Bft) O-NO 78 ° 2 min 0,000 mm 3,5 UV-I 571 W/m² 20,1 °C 22,0 °C 1,6 km/h (1 Bft)
02.08.2017 09:53 22,1 °C 22,1 °C 85 % 1016,4 hPa 0,0 mm 1,3 km/h (1 Bft) O-NO 78 ° 1 min 0,000 mm 3,5 UV-I 564 W/m² 19,5 °C 22,1 °C 1,6 km/h (1 Bft)
02.08.2017 09:55 21,9 °C 22,1 °C 89 % 1016,5 hPa 0,0 mm 2,3 km/h (1 Bft) O 79 ° 2 min 0,000 mm 3,1 UV-I 563 W/m² 20,0 °C 21,9 °C 3,2 km/h (1 Bft)
02.08.2017 09:56 21,9 °C 21,9 °C 91 % 1016,5 hPa 0,0 mm 0,1 km/h (0 Bft) O 79 ° 1 min 0,000 mm 3,6 UV-I 566 W/m² 20,4 °C 21,9 °C 1,6 km/h (1 Bft)
02.08.2017 09:58 22,1 °C 22,1 °C 87 % 1016,5 hPa 0,0 mm 0,9 km/h (0 Bft) O-SO 107 ° 2 min 0,000 mm 3,6 UV-I 555 W/m² 19,8 °C 22,1 °C 4,8 km/h (1 Bft)
02.08.2017 09:59 22,1 °C 22,1 °C 88 % 1016,5 hPa 0,0 mm 0,1 km/h (0 Bft) O-SO 107 ° 1 min 0,000 mm 3,5 UV-I 555 W/m² 20,0 °C 22,1 °C 1,6 km/h (1 Bft)
02.08.2017 10:01 22,2 °C 22,2 °C 86 % 1016,5 hPa 0,0 mm 0,2 km/h (0 Bft) O-SO 107 ° 2 min 0,279 mm 3,6 UV-I 552 W/m² 19,7 °C 22,2 °C 1,6 km/h (1 Bft)
02.08.2017 10:02 22,3 °C 22,3 °C 87 % 1016,5 hPa 0,0 mm 0,0 km/h (0 Bft) O-SO 107 ° 1 min 0,000 mm 3,6 UV-I 552 W/m² 20,0 °C 22,3 °C 0,0 km/h (0 Bft)
02.08.2017 10:04 22,3 °C 22,3 °C 88 % 1016,5 hPa 0,0 mm 0,0 km/h (0 Bft) O-SO 107 ° 2 min 0,000 mm 3,6 UV-I 554 W/m² 20,2 °C 22,3 °C 0,0 km/h (0 Bft)
02.08.2017 10:05 22,5 °C 22,5 °C 89 % 1016,5 hPa 0,0 mm 0,0 km/h (0 Bft) O-SO 107 ° 1 min 0,000 mm 3,8 UV-I 568 W/m² 20,6 °C 22,5 °C 0,0 km/h (0 Bft)
02.08.2017 10:07 22,7 °C 22,7 °C 84 % 1016,6 hPa 0,0 mm 0,7 km/h (0 Bft) O-SO 107 ° 2 min 0,000 mm 3,9 UV-I 612 W/m² 19,9 °C 22,7 °C 3,2 km/h (1 Bft)
02.08.2017 10:08 22,7 °C 22,7 °C 86 % 1016,6 hPa 0,0 mm 0,0 km/h (0 Bft) O-SO 107 ° 1 min 0,000 mm 3,7 UV-I 661 W/m² 20,2 °C 22,7 °C 0,0 km/h (0 Bft)
02.08.2017 10:10 22,7 °C 22,7 °C 89 % 1016,6 hPa 0,0 mm 0,0 km/h (0 Bft) O-SO 107 ° 2 min 0,000 mm 4,3 UV-I 721 W/m² 20,8 °C 22,7 °C 0,0 km/h (0 Bft)
02.08.2017 10:11 22,8 °C 22,8 °C 88 % 1016,6 hPa 0,0 mm 0,0 km/h (0 Bft) O-SO 107 ° 1 min 0,000 mm 4,2 UV-I 740 W/m² 20,7 °C 22,8 °C 0,0 km/h (0 Bft)
02.08.2017 10:13 22,9 °C 22,9 °C 84 % 1016,5 hPa 0,0 mm 1,2 km/h (1 Bft) O-SO 107 ° 2 min 0,000 mm 3,8 UV-I 483 W/m² 20,0 °C 22,9 °C 3,2 km/h (1 Bft)
02.08.2017 10:14 22,8 °C 22,9 °C 86 % 1016,5 hPa 0,0 mm 0,0 km/h (0 Bft) O-SO 107 ° 1 min 0,000 mm 4,1 UV-I 483 W/m² 20,3 °C 22,8 °C 0,0 km/h (0 Bft)
02.08.2017 10:16 22,8 °C 22,8 °C 86 % 1016,5 hPa 0,0 mm 0,0 km/h (0 Bft) O-SO 107 ° 2 min 0,000 mm 3,5 UV-I 483 W/m² 20,3 °C 22,8 °C 0,0 km/h (0 Bft)
02.08.2017 10:17 23,0 °C 23,0 °C 88 % 1016,5 hPa 0,0 mm 0,0 km/h (0 Bft) O-SO 107 ° 1 min 0,000 mm 2,9 UV-I 483 W/m² 20,9 °C 23,0 °C 0,0 km/h (0 Bft)
02.08.2017 10:19 23,2 °C 23,2 °C 84 % 1016,6 hPa 0,0 mm 0,5 km/h (0 Bft) O-SO 107 ° 0 min 0,000 mm 2,1 UV-I 225 W/m² 20,3 °C 23,2 °C 1,6 km/h (1 Bft)
02.08.2017 10:20 23,1 °C 23,2 °C 83 % 1016,6 hPa 0,0 mm 0,2 km/h (0 Bft) O-SO 107 ° 0 min 0,000 mm 3,2 UV-I 225 W/m² 20,0 °C 23,1 °C 1,6 km/h (1 Bft)
02.08.2017 10:22 22,9 °C 23,1 °C 85 % 1016,5 hPa 0,0 mm 0,0 km/h (0 Bft) O-SO 107 ° 0 min 0,000 mm 3,6 UV-I 225 W/m² 20,2 °C 22,9 °C 0,0 km/h (0 Bft)
02.08.2017 10:23 22,9 °C 22,9 °C 85 % 1016,5 hPa 0,0 mm 1,7 km/h (1 Bft) O-SO 107 ° 0 min 0,000 mm 2,1 UV-I 225 W/m² 20,2 °C 22,9 °C 3,2 km/h (1 Bft)
02.08.2017 10:25 22,9 °C 22,9 °C 82 % 1016,5 hPa 0,0 mm 0,9 km/h (0 Bft) O-SO 107 ° 0 min 0,000 mm 1,9 UV-I 190 W/m² 19,7 °C 22,9 °C 3,2 km/h (1 Bft)
02.08.2017 10:26 22,8 °C 22,9 °C 81 % 1016,5 hPa 0,0 mm 1,9 km/h (1 Bft) O-SO 119 ° 0 min 0,000 mm 1,9 UV-I 186 W/m² 19,4 °C 22,8 °C 3,2 km/h (1 Bft)
02.08.2017 10:28 22,8 °C 22,8 °C 85 % 1016,6 hPa 0,0 mm 0,2 km/h (0 Bft) O-SO 119 ° 0 min 0,000 mm 1,9 UV-I 190 W/m² 20,1 °C 22,8 °C 1,6 km/h (1 Bft)
02.08.2017 10:29 22,8 °C 22,8 °C 86 % 1016,6 hPa 0,0 mm 2,5 km/h (1 Bft) W-SW 238 ° 0 min 0,000 mm 2,0 UV-I 188 W/m² 20,3 °C 22,8 °C 4,8 km/h (1 Bft)
02.08.2017 10:31 22,6 °C 22,8 °C 84 % 1016,6 hPa 0,0 mm 0,8 km/h (0 Bft) W-SW 238 ° 0 min 0,000 mm 2,2 UV-I 195 W/m² 19,8 °C 22,6 °C 3,2 km/h (1 Bft)
02.08.2017 10:32 22,4 °C 22,6 °C 85 % 1016,6 hPa 0,0 mm 0,9 km/h (0 Bft) W-SW 237 ° 0 min 0,000 mm 2,5 UV-I 239 W/m² 19,7 °C 22,4 °C 1,6 km/h (1 Bft)
02.08.2017 10:34 22,3 °C 22,4 °C 88 % 1016,6 hPa 0,0 mm 0,5 km/h (0 Bft) SW 236 ° 2 min 0,000 mm 4,5 UV-I 698 W/m² 20,2 °C 22,3 °C 3,2 km/h (1 Bft)
02.08.2017 10:35 22,3 °C 22,3 °C 85 % 1016,6 hPa 0,0 mm 0,6 km/h (0 Bft) SW 236 ° 1 min 0,000 mm 4,7 UV-I 731 W/m² 19,7 °C 22,3 °C 1,6 km/h (1 Bft)
02.08.2017 10:37 22,6 °C 22,6 °C 85 % 1016,7 hPa 0,0 mm 0,8 km/h (0 Bft) SW 236 ° 2 min 0,000 mm 4,8 UV-I 696 W/m² 19,9 °C 22,6 °C 3,2 km/h (1 Bft)
02.08.2017 10:38 22,8 °C 22,8 °C 83 % 1016,7 hPa 0,0 mm 0,2 km/h (0 Bft) SW 236 ° 1 min 0,000 mm 4,7 UV-I 779 W/m² 19,8 °C 22,8 °C 1,6 km/h (1 Bft)
02.08.2017 10:40 23,2 °C 23,2 °C 85 % 1016,6 hPa 0,0 mm 2,4 km/h (1 Bft) S 182 ° 2 min 0,000 mm 4,7 UV-I 754 W/m² 20,5 °C 23,2 °C 4,8 km/h (1 Bft)
02.08.2017 10:41 23,3 °C 23,3 °C 83 % 1016,6 hPa 0,0 mm 0,0 km/h (0 Bft) S 182 ° 1 min 0,000 mm 4,7 UV-I 714 W/m² 20,2 °C 23,3 °C 0,0 km/h (0 Bft)
02.08.2017 10:43 23,5 °C 23,5 °C 81 % 1016,6 hPa 0,0 mm 2,5 km/h (1 Bft) S-SO 148 ° 2 min 0,000 mm 5,0 UV-I 779 W/m² 20,0 °C 23,5 °C 6,4 km/h (2 Bft)
02.08.2017 10:44 23,5 °C 23,5 °C 82 % 1016,6 hPa 0,0 mm 3,5 km/h (1 Bft) SO 139 ° 1 min 0,000 mm 5,0 UV-I 800 W/m² 20,2 °C 23,5 °C 4,8 km/h (1 Bft)
02.08.2017 10:46 23,6 °C 23,6 °C 83 % 1016,6 hPa 0,0 mm 0,1 km/h (0 Bft) SO 139 ° 2 min 0,000 mm 3,4 UV-I 424 W/m² 20,5 °C 23,6 °C 1,6 km/h (1 Bft)
02.08.2017 10:47 23,6 °C 23,6 °C 83 % 1016,6 hPa 0,0 mm 0,0 km/h (0 Bft) SO 139 ° 1 min 0,000 mm 3,3 UV-I 424 W/m² 20,5 °C 23,6 °C 0,0 km/h (0 Bft)
02.08.2017 10:49 23,9 °C 23,9 °C 77 % 1016,6 hPa 0,0 mm 0,1 km/h (0 Bft) SO 139 ° 2 min 0,000 mm 2,8 UV-I 301 W/m² 19,6 °C 23,9 °C 1,6 km/h (1 Bft)
02.08.2017 10:50 24,1 °C 24,1 °C 81 % 1016,6 hPa 0,0 mm 1,9 km/h (1 Bft) W-NW 291 ° 0 min 0,000 mm 2,7 UV-I 278 W/m² 20,6 °C 24,1 °C 4,8 km/h (1 Bft)
02.08.2017 10:52 24,4 °C 24,4 °C 74 % 1016,6 hPa 0,0 mm 6,9 km/h (2 Bft) W-SW 240 ° 0 min 0,000 mm 2,6 UV-I 272 W/m² 19,5 °C 24,4 °C 11,3 km/h (2 Bft)
02.08.2017 10:53 24,4 °C 24,4 °C 75 % 1016,6 hPa 0,0 mm 6,4 km/h (2 Bft) W 281 ° 1 min 0,000 mm 3,3 UV-I 309 W/m² 19,7 °C 24,4 °C 9,7 km/h (2 Bft)
02.08.2017 10:55 24,4 °C 24,4 °C 78 % 1016,7 hPa 0,0 mm 4,6 km/h (1 Bft) W 272 ° 2 min 0,000 mm 4,0 UV-I 517 W/m² 20,3 °C 24,4 °C 11,3 km/h (2 Bft)
02.08.2017 10:56 24,3 °C 24,4 °C 76 % 1016,7 hPa 0,0 mm 6,5 km/h (2 Bft) W-SW 247 ° 1 min 0,000 mm 2,5 UV-I 517 W/m² 19,8 °C 24,3 °C 11,3 km/h (2 Bft)
02.08.2017 10:58 24,3 °C 24,5 °C 78 % 1016,7 hPa 0,0 mm 4,7 km/h (1 Bft) W 279 ° 0 min 0,000 mm 2,3 UV-I 229 W/m² 20,2 °C 24,3 °C 11,3 km/h (2 Bft)
02.08.2017 10:59 24,2 °C 24,3 °C 78 % 1016,7 hPa 0,0 mm 2,4 km/h (1 Bft) W 267 ° 0 min 0,000 mm 2,8 UV-I 229 W/m² 20,1 °C 24,2 °C 4,8 km/h (1 Bft)
02.08.2017 11:01 24,2 °C 24,2 °C 74 % 1016,8 hPa 0,0 mm 3,8 km/h (1 Bft) W 266 ° 0 min 0,280 mm 2,6 UV-I 255 W/m² 19,3 °C 24,2 °C 9,7 km/h (2 Bft)
02.08.2017 11:02 24,2 °C 24,2 °C 74 % 1016,8 hPa 0,0 mm 5,0 km/h (1 Bft) W 259 ° 0 min 0,000 mm 2,8 UV-I 278 W/m² 19,3 °C 24,2 °C 6,4 km/h (2 Bft)
02.08.2017 11:04 24,2 °C 24,2 °C 74 % 1016,8 hPa 0,0 mm 5,5 km/h (1 Bft) W 270 ° 0 min 0,000 mm 2,9 UV-I 287 W/m² 19,3 °C 24,2 °C 14,5 km/h (3 Bft)
02.08.2017 11:05 24,2 °C 24,2 °C 73 % 1016,8 hPa 0,0 mm 6,4 km/h (2 Bft) W 270 ° 1 min 0,000 mm 3,0 UV-I 297 W/m² 19,0 °C 24,2 °C 14,5 km/h (3 Bft)
02.08.2017 11:06 24,2 °C 24,2 °C 72 % 1016,8 hPa 0,0 mm 6,4 km/h (2 Bft) W 270 ° 1 min 0,000 mm 3,0 UV-I 309 W/m² 18,8 °C 24,2 °C 9,7 km/h (2 Bft)
02.08.2017 11:07 24,1 °C 24,2 °C 78 % 1016,8 hPa 0,0 mm 3,2 km/h (1 Bft) W 270 ° 1 min 0,000 mm 3,4 UV-I 339 W/m² 20,0 °C 24,1 °C 4,8 km/h (1 Bft)
02.08.2017 11:08 23,8 °C 24,0 °C 79 % 1016,8 hPa 0,0 mm 3,2 km/h (1 Bft) W 270 ° 1 min 0,000 mm 3,7 UV-I 424 W/m² 19,9 °C 23,8 °C 4,8 km/h (1 Bft)
02.08.2017 11:09 23,7 °C 23,8 °C 79 % 1016,8 hPa 0,0 mm 6,4 km/h (2 Bft) W 270 ° 1 min 0,000 mm 3,4 UV-I 401 W/m² 19,8 °C 23,7 °C 11,3 km/h (2 Bft)
02.08.2017 11:10 23,7 °C 23,8 °C 78 % 1016,8 hPa 0,0 mm 4,8 km/h (1 Bft) W 270 ° 1 min 0,000 mm 2,8 UV-I 302 W/m² 19,6 °C 23,7 °C 6,4 km/h (2 Bft)
02.08.2017 11:11 23,7 °C 23,7 °C 78 % 1016,8 hPa 0,0 mm 1,6 km/h (1 Bft) W-SW 247 ° 0 min 0,000 mm 2,6 UV-I 262 W/m² 19,6 °C 23,7 °C 3,2 km/h (1 Bft)
02.08.2017 11:12 23,7 °C 23,7 °C 79 % 1016,8 hPa 0,0 mm 3,2 km/h (1 Bft) W-SW 247 ° 0 min 0,000 mm 2,4 UV-I 230 W/m² 19,8 °C 23,7 °C 4,8 km/h (1 Bft)
02.08.2017 11:13 23,7 °C 23,7 °C 80 % 1016,8 hPa 0,0 mm 0,0 km/h (0 Bft) W-SW 247 ° 0 min 0,000 mm 2,2 UV-I 204 W/m² 20,0 °C 23,7 °C 3,2 km/h (1 Bft)
02.08.2017 11:14 23,7 °C 23,8 °C 79 % 1016,8 hPa 0,0 mm 3,2 km/h (1 Bft) W 270 ° 0 min 0,000 mm 2,3 UV-I 207 W/m² 19,8 °C 23,7 °C 6,4 km/h (2 Bft)
02.08.2017 11:16 23,5 °C 23,8 °C 83 % 1016,8 hPa 0,0 mm 0,0 km/h (0 Bft) W 262 ° 0 min 0,000 mm 2,7 UV-I 257 W/m² 20,4 °C 23,5 °C 0,0 km/h (0 Bft)
02.08.2017 11:17 23,5 °C 23,6 °C 78 % 1016,8 hPa 0,0 mm 0,0 km/h (0 Bft) W 262 ° 1 min 0,000 mm 2,9 UV-I 295 W/m² 19,4 °C 23,5 °C 0,0 km/h (0 Bft)
02.08.2017 11:18 23,6 °C 23,6 °C 78 % 1016,8 hPa 0,0 mm 0,0 km/h (0 Bft) W 262 ° 1 min 0,000 mm 3,2 UV-I 406 W/m² 19,5 °C 23,6 °C 0,0 km/h (0 Bft)
02.08.2017 11:19 23,6 °C 23,6 °C 84 % 1016,8 hPa 0,0 mm 0,0 km/h (0 Bft) W 262 ° 1 min 0,000 mm 4,3 UV-I 406 W/m² 20,7 °C 23,6 °C 0,0 km/h (0 Bft)
02.08.2017 11:20 23,6 °C 23,6 °C 82 % 1016,8 hPa 0,0 mm 1,5 km/h (1 Bft) W 262 ° 1 min 0,000 mm 4,2 UV-I 406 W/m² 20,3 °C 23,6 °C 3,2 km/h (1 Bft)
02.08.2017 11:21 23,7 °C 23,7 °C 79 % 1016,7 hPa 0,0 mm 0,2 km/h (0 Bft) W 262 ° 1 min 0,000 mm 5,0 UV-I 406 W/m² 19,8 °C 23,7 °C 1,6 km/h (1 Bft)
02.08.2017 11:22 23,9 °C 23,9 °C 78 % 1016,8 hPa 0,0 mm 3,9 km/h (1 Bft) W 262 ° 1 min 0,000 mm 5,1 UV-I 677 W/m² 19,8 °C 23,9 °C 6,4 km/h (2 Bft)
02.08.2017 11:23 24,2 °C 24,2 °C 77 % 1016,8 hPa 0,0 mm 2,4 km/h (1 Bft) W 263 ° 1 min 0,000 mm 5,3 UV-I 715 W/m² 19,9 °C 24,2 °C 3,2 km/h (1 Bft)
02.08.2017 11:24 24,4 °C 24,4 °C 79 % 1016,8 hPa 0,0 mm 2,9 km/h (1 Bft) W 263 ° 1 min 0,000 mm 4,3 UV-I 529 W/m² 20,5 °C 24,4 °C 3,2 km/h (1 Bft)
02.08.2017 11:25 24,6 °C 24,6 °C 79 % 1016,8 hPa 0,0 mm 2,2 km/h (1 Bft) W 263 ° 1 min 0,000 mm 4,1 UV-I 476 W/m² 20,7 °C 24,6 °C 4,8 km/h (1 Bft)
02.08.2017 11:26 24,7 °C 24,7 °C 78 % 1016,8 hPa 0,0 mm 4,3 km/h (1 Bft) W-NW 287 ° 1 min 0,000 mm 3,3 UV-I 390 W/m² 20,6 °C 24,7 °C 6,4 km/h (2 Bft)
02.08.2017 11:27 24,8 °C 24,8 °C 74 % 1016,8 hPa 0,0 mm 5,2 km/h (1 Bft) W-NW 288 ° 1 min 0,000 mm 3,2 UV-I 359 W/m² 19,8 °C 24,8 °C 8,0 km/h (2 Bft)
02.08.2017 11:28 24,8 °C 24,8 °C 75 % 1016,8 hPa 0,0 mm 5,2 km/h (1 Bft) W 274 ° 1 min 0,000 mm 3,2 UV-I 371 W/m² 20,1 °C 24,8 °C 8,0 km/h (2 Bft)
02.08.2017 11:29 24,8 °C 24,9 °C 74 % 1016,8 hPa 0,0 mm 4,8 km/h (1 Bft) W-NW 284 ° 1 min 0,000 mm 3,1 UV-I 341 W/m² 19,8 °C 24,8 °C 9,7 km/h (2 Bft)
02.08.2017 11:30 24,9 °C 24,9 °C 74 % 1016,8 hPa 0,0 mm 3,6 km/h (1 Bft) W-NW 290 ° 1 min 0,000 mm 3,1 UV-I 350 W/m² 19,9 °C 24,9 °C 6,4 km/h (2 Bft)
02.08.2017 11:31 24,8 °C 24,9 °C 76 % 1016,9 hPa 0,0 mm 3,4 km/h (1 Bft) W-NW 286 ° 1 min 0,000 mm 3,1 UV-I 348 W/m² 20,3 °C 24,8 °C 4,8 km/h (1 Bft)
02.08.2017 11:32 24,7 °C 24,8 °C 79 % 1016,9 hPa 0,0 mm 2,8 km/h (1 Bft) W-NW 285 ° 1 min 0,000 mm 3,2 UV-I 350 W/m² 20,8 °C 24,7 °C 3,2 km/h (1 Bft)
02.08.2017 11:33 24,8 °C 24,8 °C 74 % 1016,9 hPa 0,0 mm 2,7 km/h (1 Bft) W-NW 285 ° 1 min 0,000 mm 3,2 UV-I 357 W/m² 19,8 °C 24,8 °C 4,8 km/h (1 Bft)
02.08.2017 11:34 24,8 °C 24,8 °C 75 % 1016,9 hPa 0,0 mm 2,8 km/h (1 Bft) W 274 ° 1 min 0,000 mm 3,3 UV-I 367 W/m² 20,1 °C 24,8 °C 4,8 km/h (1 Bft)
02.08.2017 11:35 24,8 °C 24,8 °C 70 % 1016,9 hPa 0,0 mm 7,2 km/h (2 Bft) W 266 ° 1 min 0,000 mm 3,5 UV-I 387 W/m² 18,9 °C 24,8 °C 12,9 km/h (3 Bft)
02.08.2017 11:36 24,8 °C 24,8 °C 70 % 1017,0 hPa 0,0 mm 9,4 km/h (2 Bft) W 259 ° 1 min 0,000 mm 3,7 UV-I 404 W/m² 18,9 °C 24,8 °C 14,5 km/h (3 Bft)
02.08.2017 11:37 24,8 °C 24,8 °C 69 % 1016,9 hPa 0,0 mm 9,9 km/h (2 Bft) W-SW 251 ° 1 min 0,000 mm 3,9 UV-I 434 W/m² 18,7 °C 24,8 °C 16,1 km/h (3 Bft)
02.08.2017 11:38 24,8 °C 24,8 °C 70 % 1017,1 hPa 0,0 mm 6,9 km/h (2 Bft) W-SW 255 ° 1 min 0,000 mm 4,0 UV-I 445 W/m² 18,9 °C 24,8 °C 12,9 km/h (3 Bft)
02.08.2017 11:39 24,7 °C 24,8 °C 73 % 1017,1 hPa 0,0 mm 4,0 km/h (1 Bft) W-SW 247 ° 1 min 0,000 mm 4,8 UV-I 527 W/m² 19,5 °C 24,7 °C 9,7 km/h (2 Bft)
02.08.2017 11:40 24,8 °C 24,8 °C 71 % 1017,1 hPa 0,0 mm 7,0 km/h (2 Bft) W 261 ° 1 min 0,000 mm 4,6 UV-I 522 W/m² 19,2 °C 24,8 °C 9,7 km/h (2 Bft)
02.08.2017 11:41 24,8 °C 24,8 °C 71 % 1017,1 hPa 0,0 mm 11,7 km/h (2 Bft) W 273 ° 1 min 0,000 mm 4,9 UV-I 587 W/m² 19,2 °C 24,8 °C 16,1 km/h (3 Bft)
02.08.2017 11:42 24,9 °C 24,9 °C 72 % 1017,1 hPa 0,0 mm 4,9 km/h (1 Bft) W-SW 250 ° 1 min 0,000 mm 5,0 UV-I 599 W/m² 19,5 °C 24,9 °C 6,4 km/h (2 Bft)
02.08.2017 11:43 24,9 °C 24,9 °C 71 % 1017,1 hPa 0,0 mm 6,6 km/h (2 Bft) NW 304 ° 1 min 0,000 mm 5,3 UV-I 599 W/m² 19,3 °C 24,9 °C 12,9 km/h (3 Bft)
02.08.2017 11:44 25,0 °C 25,0 °C 71 % 1017,1 hPa 0,0 mm 5,8 km/h (2 Bft) W-SW 252 ° 1 min 0,000 mm 5,5 UV-I 647 W/m² 19,4 °C 25,0 °C 9,7 km/h (2 Bft)
02.08.2017 11:45 25,1 °C 25,1 °C 73 % 1017,1 hPa 0,0 mm 8,0 km/h (2 Bft) W-NW 302 ° 1 min 0,000 mm 4,4 UV-I 647 W/m² 19,9 °C 25,1 °C 11,3 km/h (2 Bft)
02.08.2017 11:46 25,2 °C 25,2 °C 70 % 1017,1 hPa 0,0 mm 5,2 km/h (1 Bft) W-NW 294 ° 1 min 0,000 mm 4,4 UV-I 647 W/m² 19,3 °C 25,2 °C 11,3 km/h (2 Bft)
02.08.2017 11:47 25,2 °C 25,2 °C 69 % 1017,1 hPa 0,0 mm 7,2 km/h (2 Bft) W 264 ° 1 min 0,000 mm 4,7 UV-I 647 W/m² 19,1 °C 25,2 °C 11,3 km/h (2 Bft)
02.08.2017 11:48 25,2 °C 25,2 °C 69 % 1017,1 hPa 0,0 mm 9,7 km/h (2 Bft) W 263 ° 1 min 0,000 mm 5,2 UV-I 638 W/m² 19,1 °C 25,2 °C 16,1 km/h (3 Bft)
02.08.2017 11:49 25,2 °C 25,2 °C 70 % 1017,1 hPa 0,0 mm 8,7 km/h (2 Bft) W-NW 296 ° 1 min 0,000 mm 5,6 UV-I 638 W/m² 19,3 °C 25,2 °C 14,5 km/h (3 Bft)
02.08.2017 11:50 25,2 °C 25,2 °C 68 % 1017,1 hPa 0,0 mm 8,5 km/h (2 Bft) W-SW 242 ° 1 min 0,000 mm 4,9 UV-I 638 W/m² 18,9 °C 25,2 °C 17,7 km/h (3 Bft)
02.08.2017 11:51 25,1 °C 25,2 °C 68 % 1017,1 hPa 0,0 mm 13,3 km/h (3 Bft) W 263 ° 1 min 0,000 mm 4,9 UV-I 638 W/m² 18,8 °C 25,1 °C 16,1 km/h (3 Bft)
02.08.2017 11:52 25,1 °C 25,1 °C 70 % 1017,1 hPa 0,0 mm 15,2 km/h (3 Bft) W 273 ° 1 min 0,000 mm 5,0 UV-I 522 W/m² 19,2 °C 25,1 °C 22,5 km/h (4 Bft)
02.08.2017 11:53 25,1 °C 25,1 °C 68 % 1017,1 hPa 0,0 mm 15,4 km/h (3 Bft) W-NW 299 ° 1 min 0,000 mm 4,8 UV-I 570 W/m² 18,8 °C 25,1 °C 22,5 km/h (4 Bft)
02.08.2017 11:54 25,1 °C 25,1 °C 66 % 1017,1 hPa 0,0 mm 5,2 km/h (1 Bft) W 261 ° 1 min 0,000 mm 6,2 UV-I 828 W/m² 18,3 °C 25,1 °C 9,7 km/h (2 Bft)
02.08.2017 11:55 25,1 °C 25,1 °C 70 % 1017,0 hPa 0,0 mm 12,3 km/h (3 Bft) W 263 ° 1 min 0,000 mm 6,2 UV-I 809 W/m² 19,2 °C 25,1 °C 14,5 km/h (3 Bft)
02.08.2017 11:56 25,1 °C 25,1 °C 69 % 1017,0 hPa 0,0 mm 11,3 km/h (2 Bft) W-NW 292 ° 1 min 0,000 mm 6,2 UV-I 809 W/m² 19,0 °C 25,1 °C 14,5 km/h (3 Bft)
02.08.2017 11:57 25,1 °C 25,2 °C 69 % 1017,1 hPa 0,0 mm 11,1 km/h (2 Bft) N-NW 333 ° 1 min 0,000 mm 6,2 UV-I 810 W/m² 19,0 °C 25,1 °C 16,1 km/h (3 Bft)
02.08.2017 11:58 25,3 °C 25,3 °C 68 % 1017,0 hPa 0,0 mm 6,1 km/h (2 Bft) W-NW 295 ° 1 min 0,000 mm 6,2 UV-I 812 W/m² 19,0 °C 25,3 °C 14,5 km/h (3 Bft)
02.08.2017 11:59 25,3 °C 25,3 °C 71 % 1017,0 hPa 0,0 mm 5,6 km/h (1 Bft) W-NW 292 ° 1 min 0,000 mm 6,2 UV-I 810 W/m² 19,7 °C 25,3 °C 12,9 km/h (3 Bft)
02.08.2017 12:00 25,4 °C 25,4 °C 65 % 1017,1 hPa 0,0 mm 6,6 km/h (2 Bft) W 275 ° 1 min 0,000 mm 5,0 UV-I 810 W/m² 18,3 °C 25,4 °C 12,9 km/h (3 Bft)
02.08.2017 12:01 25,3 °C 25,4 °C 65 % 1017,0 hPa 0,0 mm 6,7 km/h (2 Bft) NW 323 ° 1 min 0,330 mm 6,1 UV-I 786 W/m² 18,2 °C 25,3 °C 9,7 km/h (2 Bft)
02.08.2017 12:02 25,3 °C 25,3 °C 66 % 1017,1 hPa 0,0 mm 5,6 km/h (1 Bft) N-NW 328 ° 1 min 0,000 mm 6,1 UV-I 784 W/m² 18,5 °C 25,3 °C 8,0 km/h (2 Bft)
02.08.2017 12:03 25,3 °C 25,3 °C 68 % 1017,1 hPa 0,0 mm 7,0 km/h (2 Bft) N-NW 334 ° 1 min 0,000 mm 6,1 UV-I 780 W/m² 19,0 °C 25,3 °C 12,9 km/h (3 Bft)
02.08.2017 12:04 25,5 °C 25,5 °C 72 % 1017,1 hPa 0,0 mm 6,2 km/h (2 Bft) NW 317 ° 1 min 0,000 mm 6,2 UV-I 780 W/m² 20,1 °C 25,5 °C 11,3 km/h (2 Bft)
02.08.2017 12:05 25,6 °C 25,6 °C 66 % 1017,1 hPa 0,0 mm 5,5 km/h (1 Bft) W 278 ° 1 min 0,000 mm 6,2 UV-I 780 W/m² 18,8 °C 25,6 °C 11,3 km/h (2 Bft)
02.08.2017 12:06 25,6 °C 25,6 °C 69 % 1017,1 hPa 0,0 mm 6,0 km/h (2 Bft) W-NW 300 ° 1 min 0,000 mm 6,2 UV-I 779 W/m² 19,5 °C 25,6 °C 9,7 km/h (2 Bft)
02.08.2017 12:07 25,6 °C 25,6 °C 68 % 1017,1 hPa 0,0 mm 8,8 km/h (2 Bft) W-NW 285 ° 1 min 0,000 mm 6,2 UV-I 779 W/m² 19,2 °C 25,6 °C 12,9 km/h (3 Bft)
02.08.2017 12:08 25,6 °C 25,7 °C 66 % 1017,1 hPa 0,0 mm 6,2 km/h (2 Bft) NW 319 ° 1 min 0,000 mm 6,2 UV-I 779 W/m² 18,8 °C 25,6 °C 9,7 km/h (2 Bft)
02.08.2017 12:09 25,6 °C 25,7 °C 67 % 1017,1 hPa 0,0 mm 7,6 km/h (2 Bft) W 274 ° 1 min 0,000 mm 6,3 UV-I 788 W/m² 19,0 °C 25,6 °C 12,9 km/h (3 Bft)
02.08.2017 12:10 25,6 °C 25,6 °C 70 % 1017,1 hPa 0,0 mm 8,2 km/h (2 Bft) NW 320 ° 1 min 0,000 mm 6,3 UV-I 782 W/m² 19,7 °C 25,6 °C 11,3 km/h (2 Bft)
02.08.2017 12:11 25,6 °C 25,6 °C 68 % 1017,1 hPa 0,0 mm 8,3 km/h (2 Bft) W-NW 286 ° 1 min 0,000 mm 6,3 UV-I 786 W/m² 19,2 °C 25,6 °C 14,5 km/h (3 Bft)
02.08.2017 12:12 25,7 °C 25,7 °C 70 % 1017,1 hPa 0,0 mm 7,0 km/h (2 Bft) W 263 ° 1 min 0,000 mm 6,3 UV-I 791 W/m² 19,8 °C 25,7 °C 12,9 km/h (3 Bft)
02.08.2017 12:13 25,7 °C 25,7 °C 71 % 1017,1 hPa 0,0 mm 5,6 km/h (1 Bft) W 271 ° 1 min 0,000 mm 6,3 UV-I 791 W/m² 20,0 °C 25,7 °C 12,9 km/h (3 Bft)
02.08.2017 12:14 25,7 °C 25,7 °C 67 % 1017,1 hPa 0,0 mm 7,7 km/h (2 Bft) W-SW 257 ° 1 min 0,000 mm 6,3 UV-I 789 W/m² 19,1 °C 25,7 °C 14,5 km/h (3 Bft)
02.08.2017 12:15 25,6 °C 25,7 °C 69 % 1017,1 hPa 0,0 mm 8,1 km/h (2 Bft) W 267 ° 1 min 0,000 mm 6,3 UV-I 789 W/m² 19,5 °C 25,6 °C 12,9 km/h (3 Bft)
02.08.2017 12:16 25,6 °C 25,6 °C 66 % 1017,0 hPa 0,0 mm 9,4 km/h (2 Bft) W-NW 283 ° 1 min 0,000 mm 6,4 UV-I 796 W/m² 18,8 °C 25,6 °C 17,7 km/h (3 Bft)
02.08.2017 12:17 25,5 °C 25,6 °C 68 % 1017,0 hPa 0,0 mm 6,9 km/h (2 Bft) W-NW 284 ° 1 min 0,000 mm 6,4 UV-I 795 W/m² 19,1 °C 25,5 °C 11,3 km/h (2 Bft)
02.08.2017 12:18 25,5 °C 25,5 °C 69 % 1017,1 hPa 0,0 mm 5,6 km/h (1 Bft) N-NW 343 ° 1 min 0,000 mm 6,4 UV-I 796 W/m² 19,4 °C 25,5 °C 11,3 km/h (2 Bft)
02.08.2017 12:19 25,6 °C 25,6 °C 68 % 1017,1 hPa 0,0 mm 6,6 km/h (2 Bft) W 265 ° 1 min 0,000 mm 6,4 UV-I 796 W/m² 19,2 °C 25,6 °C 11,3 km/h (2 Bft)
02.08.2017 12:20 25,7 °C 25,7 °C 70 % 1017,0 hPa 0,0 mm 8,3 km/h (2 Bft) W-SW 248 ° 1 min 0,000 mm 6,4 UV-I 798 W/m² 19,8 °C 25,7 °C 12,9 km/h (3 Bft)
02.08.2017 12:21 25,7 °C 25,7 °C 70 % 1017,1 hPa 0,0 mm 7,9 km/h (2 Bft) W-SW 242 ° 1 min 0,000 mm 6,4 UV-I 809 W/m² 19,8 °C 25,7 °C 12,9 km/h (3 Bft)
02.08.2017 12:22 25,7 °C 25,7 °C 68 % 1017,1 hPa 0,0 mm 6,4 km/h (2 Bft) W-NW 294 ° 1 min 0,000 mm 6,5 UV-I 830 W/m² 19,3 °C 25,7 °C 9,7 km/h (2 Bft)
02.08.2017 12:23 25,7 °C 25,7 °C 68 % 1017,1 hPa 0,0 mm 8,8 km/h (2 Bft) N-NW 340 ° 1 min 0,000 mm 6,7 UV-I 840 W/m² 19,3 °C 25,7 °C 12,9 km/h (3 Bft)
02.08.2017 12:24 25,7 °C 25,7 °C 68 % 1017,1 hPa 0,0 mm 7,6 km/h (2 Bft) NW 306 ° 1 min 0,000 mm 6,8 UV-I 863 W/m² 19,3 °C 25,7 °C 14,5 km/h (3 Bft)
02.08.2017 12:25 25,8 °C 25,8 °C 70 % 1017,1 hPa 0,0 mm 7,5 km/h (2 Bft) NW 315 ° 1 min 0,000 mm 6,4 UV-I 831 W/m² 19,9 °C 25,8 °C 9,7 km/h (2 Bft)
02.08.2017 12:26 25,8 °C 25,8 °C 68 % 1017,1 hPa 0,0 mm 3,3 km/h (1 Bft) W 280 ° 1 min 0,000 mm 5,8 UV-I 831 W/m² 19,4 °C 25,8 °C 4,8 km/h (1 Bft)
02.08.2017 12:27 25,8 °C 25,8 °C 66 % 1017,1 hPa 0,0 mm 6,9 km/h (2 Bft) W 268 ° 1 min 0,000 mm 6,2 UV-I 802 W/m² 19,0 °C 25,8 °C 12,9 km/h (3 Bft)
02.08.2017 12:28 25,8 °C 25,8 °C 70 % 1017,1 hPa 0,0 mm 10,8 km/h (2 Bft) W 266 ° 1 min 0,000 mm 6,4 UV-I 802 W/m² 19,9 °C 25,8 °C 16,1 km/h (3 Bft)
02.08.2017 12:29 25,7 °C 25,8 °C 67 % 1017,1 hPa 0,0 mm 9,3 km/h (2 Bft) W-NW 286 ° 1 min 0,000 mm 7,2 UV-I 807 W/m² 19,1 °C 25,7 °C 12,9 km/h (3 Bft)
02.08.2017 12:30 25,7 °C 25,7 °C 65 % 1017,1 hPa 0,0 mm 5,3 km/h (1 Bft) NW 312 ° 1 min 0,000 mm 4,6 UV-I 807 W/m² 18,6 °C 25,7 °C 9,7 km/h (2 Bft)
02.08.2017 12:31 25,7 °C 25,7 °C 69 % 1017,1 hPa 0,0 mm 5,4 km/h (1 Bft) W-NW 287 ° 1 min 0,000 mm 5,1 UV-I 807 W/m² 19,6 °C 25,7 °C 8,0 km/h (2 Bft)
02.08.2017 12:32 25,7 °C 25,7 °C 68 % 1017,1 hPa 0,0 mm 7,2 km/h (2 Bft) W-SW 252 ° 1 min 0,000 mm 6,8 UV-I 807 W/m² 19,3 °C 25,7 °C 11,3 km/h (2 Bft)
02.08.2017 12:33 25,8 °C 25,8 °C 70 % 1017,1 hPa 0,0 mm 6,9 km/h (2 Bft) NW 310 ° 1 min 0,000 mm 7,1 UV-I 807 W/m² 19,9 °C 25,8 °C 11,3 km/h (2 Bft)
02.08.2017 12:34 25,8 °C 25,8 °C 70 % 1017,1 hPa 0,0 mm 4,8 km/h (1 Bft) NW 325 ° 1 min 0,000 mm 6,0 UV-I 807 W/m² 19,9 °C 25,8 °C 8,0 km/h (2 Bft)
02.08.2017 12:35 25,9 °C 25,9 °C 69 % 1017,0 hPa 0,0 mm 7,6 km/h (2 Bft) W-NW 294 ° 1 min 0,000 mm 6,7 UV-I 446 W/m² 19,8 °C 25,9 °C 12,9 km/h (3 Bft)
02.08.2017 12:36 25,9 °C 25,9 °C 68 % 1017,0 hPa 0,0 mm 10,1 km/h (2 Bft) W-SW 257 ° 1 min 0,000 mm 7,0 UV-I 446 W/m² 19,5 °C 25,9 °C 16,1 km/h (3 Bft)
02.08.2017 12:37 25,9 °C 25,9 °C 68 % 1017,0 hPa 0,0 mm 8,8 km/h (2 Bft) W-SW 250 ° 1 min 0,000 mm 6,6 UV-I 446 W/m² 19,5 °C 25,9 °C 14,5 km/h (3 Bft)
02.08.2017 12:38 25,9 °C 25,9 °C 66 % 1017,0 hPa 0,0 mm 3,7 km/h (1 Bft) W-SW 254 ° 1 min 0,000 mm 6,8 UV-I 831 W/m² 19,0 °C 25,9 °C 6,4 km/h (2 Bft)
02.08.2017 12:39 26,1 °C 26,1 °C 68 % 1017,1 hPa 0,0 mm 8,2 km/h (2 Bft) W 279 ° 1 min 0,000 mm 6,9 UV-I 826 W/m² 19,7 °C 26,1 °C 14,5 km/h (3 Bft)
02.08.2017 12:40 26,1 °C 26,1 °C 65 % 1017,0 hPa 0,0 mm 7,0 km/h (2 Bft) W 268 ° 1 min 0,000 mm 6,5 UV-I 826 W/m² 19,0 °C 26,1 °C 12,9 km/h (3 Bft)
02.08.2017 12:41 26,1 °C 26,1 °C 70 % 1017,0 hPa 0,0 mm 7,1 km/h (2 Bft) W-NW 294 ° 1 min 0,000 mm 5,2 UV-I 749 W/m² 20,2 °C 26,1 °C 9,7 km/h (2 Bft)
02.08.2017 12:42 26,2 °C 26,2 °C 67 % 1017,1 hPa 0,0 mm 5,7 km/h (1 Bft) W 267 ° 1 min 0,000 mm 6,6 UV-I 775 W/m² 19,6 °C 26,2 °C 9,7 km/h (2 Bft)
02.08.2017 12:43 26,2 °C 26,2 °C 68 % 1017,0 hPa 0,0 mm 3,2 km/h (1 Bft) S-SW 199 ° 1 min 0,000 mm 4,8 UV-I 775 W/m² 19,8 °C 26,2 °C 4,8 km/h (1 Bft)
02.08.2017 12:44 26,1 °C 26,2 °C 65 % 1017,1 hPa 0,0 mm 3,2 km/h (1 Bft) NW 312 ° 1 min 0,000 mm 3,6 UV-I 775 W/m² 19,0 °C 26,1 °C 6,4 km/h (2 Bft)
02.08.2017 12:45 26,0 °C 26,1 °C 65 % 1017,1 hPa 0,0 mm 5,5 km/h (1 Bft) W-SW 246 ° 0 min 0,000 mm 3,4 UV-I 271 W/m² 18,9 °C 26,0 °C 8,0 km/h (2 Bft)
02.08.2017 12:46 25,8 °C 26,0 °C 64 % 1017,0 hPa 0,0 mm 5,1 km/h (1 Bft) W 272 ° 0 min 0,000 mm 3,1 UV-I 257 W/m² 18,5 °C 25,8 °C 9,7 km/h (2 Bft)
02.08.2017 12:47 25,7 °C 25,8 °C 65 % 1017,1 hPa 0,0 mm 7,5 km/h (2 Bft) W-NW 284 ° 0 min 0,000 mm 2,8 UV-I 237 W/m² 18,6 °C 25,7 °C 9,7 km/h (2 Bft)
02.08.2017 12:48 25,5 °C 25,7 °C 63 % 1017,1 hPa 0,0 mm 5,8 km/h (2 Bft) W-NW 292 ° 0 min 0,000 mm 2,7 UV-I 227 W/m² 17,9 °C 25,5 °C 9,7 km/h (2 Bft)
02.08.2017 12:49 25,3 °C 25,5 °C 66 % 1017,1 hPa 0,0 mm 5,9 km/h (2 Bft) W 259 ° 0 min 0,000 mm 2,6 UV-I 221 W/m² 18,5 °C 25,3 °C 9,7 km/h (2 Bft)
02.08.2017 12:50 25,2 °C 25,3 °C 66 % 1017,1 hPa 0,0 mm 9,0 km/h (2 Bft) W 276 ° 0 min 0,000 mm 2,6 UV-I 221 W/m² 18,4 °C 25,2 °C 12,9 km/h (3 Bft)
02.08.2017 12:51 25,1 °C 25,2 °C 68 % 1017,1 hPa 0,0 mm 5,9 km/h (2 Bft) W 260 ° 0 min 0,000 mm 2,7 UV-I 229 W/m² 18,8 °C 25,1 °C 12,9 km/h (3 Bft)
02.08.2017 12:52 24,9 °C 25,1 °C 66 % 1017,1 hPa 0,0 mm 10,0 km/h (2 Bft) W 261 ° 0 min 0,000 mm 3,0 UV-I 243 W/m² 18,1 °C 24,9 °C 12,9 km/h (3 Bft)
02.08.2017 12:53 24,9 °C 24,9 °C 67 % 1017,1 hPa 0,0 mm 8,1 km/h (2 Bft) W-SW 251 ° 1 min 0,000 mm 3,8 UV-I 290 W/m² 18,3 °C 24,9 °C 12,9 km/h (3 Bft)
02.08.2017 12:54 24,8 °C 24,9 °C 68 % 1017,0 hPa 0,0 mm 5,3 km/h (1 Bft) W 269 ° 1 min 0,000 mm 7,0 UV-I 290 W/m² 18,5 °C 24,8 °C 9,7 km/h (2 Bft)
02.08.2017 12:55 24,8 °C 24,8 °C 72 % 1017,0 hPa 0,0 mm 5,8 km/h (2 Bft) W 259 ° 1 min 0,000 mm 5,1 UV-I 290 W/m² 19,4 °C 24,8 °C 9,7 km/h (2 Bft)
02.08.2017 12:56 25,0 °C 25,0 °C 70 % 1017,1 hPa 0,0 mm 5,6 km/h (1 Bft) SW 236 ° 1 min 0,000 mm 4,5 UV-I 290 W/m² 19,1 °C 25,0 °C 6,4 km/h (2 Bft)
02.08.2017 12:57 25,2 °C 25,2 °C 68 % 1017,1 hPa 0,0 mm 9,1 km/h (2 Bft) W-NW 299 ° 1 min 0,000 mm 7,0 UV-I 290 W/m² 18,9 °C 25,2 °C 12,9 km/h (3 Bft)
02.08.2017 12:58 25,2 °C 25,2 °C 68 % 1017,1 hPa 0,0 mm 8,0 km/h (2 Bft) W 268 ° 1 min 0,000 mm 4,9 UV-I 290 W/m² 18,9 °C 25,2 °C 12,9 km/h (3 Bft)
02.08.2017 12:59 25,3 °C 25,3 °C 69 % 1017,0 hPa 0,0 mm 5,5 km/h (1 Bft) W 266 ° 1 min 0,000 mm 3,8 UV-I 290 W/m² 19,2 °C 25,3 °C 9,7 km/h (2 Bft)
02.08.2017 13:00 25,2 °C 25,3 °C 68 % 1017,0 hPa 0,0 mm 4,3 km/h (1 Bft) W 278 ° 1 min 0,000 mm 4,0 UV-I 323 W/m² 18,9 °C 25,2 °C 6,4 km/h (2 Bft)
02.08.2017 13:01 25,1 °C 25,2 °C 70 % 1017,0 hPa 0,0 mm 6,2 km/h (2 Bft) NW 311 ° 1 min 0,457 mm 4,0 UV-I 309 W/m² 19,2 °C 25,1 °C 9,7 km/h (2 Bft)
02.08.2017 13:02 25,1 °C 25,1 °C 70 % 1017,0 hPa 0,0 mm 4,5 km/h (1 Bft) W 261 ° 1 min 0,000 mm 5,1 UV-I 320 W/m² 19,2 °C 25,1 °C 12,9 km/h (3 Bft)
02.08.2017 13:03 25,1 °C 25,1 °C 70 % 1017,0 hPa 0,0 mm 4,8 km/h (1 Bft) W 269 ° 1 min 0,000 mm 7,1 UV-I 930 W/m² 19,2 °C 25,1 °C 9,7 km/h (2 Bft)
02.08.2017 13:04 25,2 °C 25,2 °C 69 % 1017,0 hPa 0,0 mm 5,0 km/h (1 Bft) W-SW 243 ° 1 min 0,000 mm 7,0 UV-I 907 W/m² 19,1 °C 25,2 °C 6,4 km/h (2 Bft)
02.08.2017 13:05 25,3 °C 25,3 °C 69 % 1017,0 hPa 0,0 mm 5,3 km/h (1 Bft) W 259 ° 1 min 0,000 mm 7,0 UV-I 877 W/m² 19,2 °C 25,3 °C 9,7 km/h (2 Bft)
02.08.2017 13:06 25,4 °C 25,4 °C 72 % 1016,9 hPa 0,0 mm 3,3 km/h (1 Bft) SW 217 ° 1 min 0,000 mm 7,0 UV-I 874 W/m² 20,0 °C 25,4 °C 6,4 km/h (2 Bft)
02.08.2017 13:07 25,6 °C 25,6 °C 68 % 1016,9 hPa 0,0 mm 3,8 km/h (1 Bft) W-SW 248 ° 1 min 0,000 mm 6,9 UV-I 865 W/m² 19,2 °C 25,6 °C 6,4 km/h (2 Bft)
02.08.2017 13:08 25,7 °C 25,7 °C 64 % 1016,8 hPa 0,0 mm 7,7 km/h (2 Bft) W-SW 246 ° 1 min 0,000 mm 6,8 UV-I 856 W/m² 18,4 °C 25,7 °C 12,9 km/h (3 Bft)
02.08.2017 13:09 25,8 °C 25,8 °C 67 % 1016,8 hPa 0,0 mm 7,7 km/h (2 Bft) W 275 ° 1 min 0,000 mm 6,7 UV-I 828 W/m² 19,2 °C 25,8 °C 14,5 km/h (3 Bft)
02.08.2017 13:10 25,8 °C 25,8 °C 62 % 1016,8 hPa 0,0 mm 7,7 km/h (2 Bft) W 264 ° 1 min 0,000 mm 6,7 UV-I 830 W/m² 18,0 °C 25,8 °C 12,9 km/h (3 Bft)
02.08.2017 13:11 25,9 °C 25,9 °C 64 % 1016,8 hPa 0,0 mm 8,0 km/h (2 Bft) W 269 ° 1 min 0,000 mm 6,7 UV-I 826 W/m² 18,6 °C 25,9 °C 11,3 km/h (2 Bft)
02.08.2017 13:12 25,9 °C 25,9 °C 65 % 1016,8 hPa 0,0 mm 5,0 km/h (1 Bft) W-SW 252 ° 1 min 0,000 mm 6,7 UV-I 830 W/m² 18,8 °C 25,9 °C 6,4 km/h (2 Bft)
02.08.2017 13:13 25,9 °C 25,9 °C 64 % 1016,7 hPa 0,0 mm 2,0 km/h (1 Bft) W-SW 252 ° 1 min 0,000 mm 6,5 UV-I 779 W/m² 18,6 °C 25,9 °C 4,8 km/h (1 Bft)
02.08.2017 13:14 25,9 °C 25,9 °C 67 % 1016,7 hPa 0,0 mm 2,9 km/h (1 Bft) W-SW 254 ° 1 min 0,000 mm 6,3 UV-I 737 W/m² 19,3 °C 25,9 °C 3,2 km/h (1 Bft)
02.08.2017 13:15 25,9 °C 25,9 °C 64 % 1016,7 hPa 0,0 mm 3,5 km/h (1 Bft) W 261 ° 1 min 0,000 mm 6,4 UV-I 791 W/m² 18,6 °C 25,9 °C 9,7 km/h (2 Bft)
02.08.2017 13:16 25,9 °C 25,9 °C 64 % 1016,7 hPa 0,0 mm 6,7 km/h (2 Bft) W-NW 298 ° 1 min 0,000 mm 6,5 UV-I 775 W/m² 18,6 °C 25,9 °C 11,3 km/h (2 Bft)
02.08.2017 13:17 26,1 °C 26,1 °C 64 % 1016,7 hPa 0,0 mm 5,4 km/h (1 Bft) N-NW 335 ° 1 min 0,000 mm 6,2 UV-I 726 W/m² 18,7 °C 26,1 °C 9,7 km/h (2 Bft)
02.08.2017 13:18 26,2 °C 26,2 °C 67 % 1016,7 hPa 0,0 mm 4,0 km/h (1 Bft) W-NW 288 ° 1 min 0,000 mm 6,4 UV-I 740 W/m² 19,6 °C 26,2 °C 6,4 km/h (2 Bft)
02.08.2017 13:19 26,3 °C 26,3 °C 66 % 1016,7 hPa 0,0 mm 3,9 km/h (1 Bft) W 281 ° 1 min 0,000 mm 6,7 UV-I 802 W/m² 19,4 °C 26,3 °C 4,8 km/h (1 Bft)
02.08.2017 13:20 26,3 °C 26,3 °C 67 % 1016,7 hPa 0,0 mm 2,5 km/h (1 Bft) NW 313 ° 1 min 0,000 mm 6,8 UV-I 824 W/m² 19,7 °C 26,3 °C 4,8 km/h (1 Bft)
02.08.2017 13:21 26,4 °C 26,4 °C 69 % 1016,7 hPa 0,0 mm 4,8 km/h (1 Bft) NW 322 ° 1 min 0,000 mm 6,8 UV-I 838 W/m² 20,2 °C 26,4 °C 9,7 km/h (2 Bft)
02.08.2017 13:22 26,5 °C 26,5 °C 64 % 1016,7 hPa 0,0 mm 5,8 km/h (2 Bft) W 279 ° 1 min 0,000 mm 7,0 UV-I 849 W/m² 19,1 °C 26,5 °C 9,7 km/h (2 Bft)
02.08.2017 13:23 26,6 °C 26,6 °C 69 % 1016,7 hPa 0,0 mm 6,2 km/h (2 Bft) W 281 ° 1 min 0,000 mm 7,0 UV-I 861 W/m² 20,4 °C 26,6 °C 9,7 km/h (2 Bft)
02.08.2017 13:24 26,6 °C 26,6 °C 62 % 1016,7 hPa 0,0 mm 4,1 km/h (1 Bft) NW 311 ° 1 min 0,000 mm 7,0 UV-I 879 W/m² 18,7 °C 26,6 °C 6,4 km/h (2 Bft)
02.08.2017 13:25 26,6 °C 26,6 °C 62 % 1016,7 hPa 0,0 mm 6,6 km/h (2 Bft) W-NW 287 ° 1 min 0,000 mm 7,1 UV-I 891 W/m² 18,7 °C 26,6 °C 12,9 km/h (3 Bft)
02.08.2017 13:26 26,7 °C 26,7 °C 66 % 1016,7 hPa 0,0 mm 12,9 km/h (3 Bft) W-NW 298 ° 1 min 0,000 mm 6,2 UV-I 912 W/m² 19,8 °C 26,7 °C 16,1 km/h (3 Bft)
02.08.2017 13:27 26,7 °C 26,7 °C 63 % 1016,7 hPa 0,0 mm 12,7 km/h (3 Bft) W-SW 257 ° 1 min 0,000 mm 7,1 UV-I 912 W/m² 19,1 °C 26,7 °C 17,7 km/h (3 Bft)
02.08.2017 13:28 26,7 °C 26,7 °C 61 % 1016,8 hPa 0,0 mm 9,1 km/h (2 Bft) W 271 ° 1 min 0,000 mm 5,1 UV-I 912 W/m² 18,5 °C 26,7 °C 12,9 km/h (3 Bft)
02.08.2017 13:29 26,6 °C 26,7 °C 61 % 1016,7 hPa 0,0 mm 7,4 km/h (2 Bft) W 268 ° 1 min 0,000 mm 5,9 UV-I 536 W/m² 18,4 °C 26,6 °C 14,5 km/h (3 Bft)
02.08.2017 13:30 26,4 °C 26,6 °C 61 % 1016,7 hPa 0,0 mm 8,0 km/h (2 Bft) NW 311 ° 1 min 0,000 mm 7,2 UV-I 536 W/m² 18,3 °C 26,4 °C 14,5 km/h (3 Bft)
02.08.2017 13:31 26,3 °C 26,4 °C 59 % 1016,8 hPa 0,0 mm 10,4 km/h (2 Bft) NW 307 ° 1 min 0,000 mm 5,9 UV-I 536 W/m² 17,6 °C 26,3 °C 17,7 km/h (3 Bft)
02.08.2017 13:32 26,3 °C 26,3 °C 61 % 1016,8 hPa 0,0 mm 7,4 km/h (2 Bft) W-NW 282 ° 1 min 0,000 mm 6,9 UV-I 1016 W/m² 18,2 °C 26,3 °C 14,5 km/h (3 Bft)
02.08.2017 13:33 26,3 °C 26,3 °C 62 % 1016,8 hPa 0,0 mm 9,7 km/h (2 Bft) W-NW 284 ° 1 min 0,000 mm 4,2 UV-I 1016 W/m² 18,4 °C 26,3 °C 16,1 km/h (3 Bft)
02.08.2017 13:34 26,2 °C 26,3 °C 60 % 1016,8 hPa 0,0 mm 8,6 km/h (2 Bft) N-NW 327 ° 1 min 0,000 mm 4,0 UV-I 353 W/m² 17,8 °C 26,2 °C 12,9 km/h (3 Bft)
02.08.2017 13:35 26,1 °C 26,2 °C 62 % 1016,8 hPa 0,0 mm 10,1 km/h (2 Bft) W-NW 293 ° 1 min 0,000 mm 4,3 UV-I 387 W/m² 18,2 °C 26,1 °C 16,1 km/h (3 Bft)
02.08.2017 13:36 26,0 °C 26,2 °C 61 % 1016,7 hPa 0,0 mm 9,9 km/h (2 Bft) W-NW 298 ° 1 min 0,000 mm 4,5 UV-I 378 W/m² 17,9 °C 26,0 °C 16,1 km/h (3 Bft)
02.08.2017 13:37 25,9 °C 26,0 °C 61 % 1016,7 hPa 0,0 mm 9,4 km/h (2 Bft) W-NW 284 ° 1 min 0,000 mm 3,8 UV-I 346 W/m² 17,8 °C 25,9 °C 14,5 km/h (3 Bft)
02.08.2017 13:38 25,9 °C 25,9 °C 63 % 1016,7 hPa 0,0 mm 8,0 km/h (2 Bft) N-NW 336 ° 1 min 0,000 mm 3,8 UV-I 322 W/m² 18,3 °C 25,9 °C 12,9 km/h (3 Bft)
02.08.2017 13:39 25,8 °C 25,9 °C 62 % 1016,7 hPa 0,0 mm 8,0 km/h (2 Bft) W-NW 291 ° 1 min 0,000 mm 3,4 UV-I 295 W/m² 18,0 °C 25,8 °C 11,3 km/h (2 Bft)
02.08.2017 13:40 25,8 °C 25,8 °C 64 % 1016,7 hPa 0,0 mm 4,8 km/h (1 Bft) W-SW 257 ° 0 min 0,000 mm 3,4 UV-I 288 W/m² 18,5 °C 25,8 °C 8,0 km/h (2 Bft)
02.08.2017 13:41 25,7 °C 25,8 °C 64 % 1016,7 hPa 0,0 mm 7,5 km/h (2 Bft) W-NW 286 ° 0 min 0,000 mm 3,3 UV-I 287 W/m² 18,4 °C 25,7 °C 11,3 km/h (2 Bft)
02.08.2017 13:42 25,7 °C 25,7 °C 65 % 1016,7 hPa 0,0 mm 5,3 km/h (1 Bft) W 262 ° 1 min 0,000 mm 3,3 UV-I 290 W/m² 18,6 °C 25,7 °C 9,7 km/h (2 Bft)
02.08.2017 13:43 25,6 °C 25,7 °C 65 % 1016,7 hPa 0,0 mm 9,5 km/h (2 Bft) W-NW 285 ° 1 min 0,000 mm 3,4 UV-I 299 W/m² 18,5 °C 25,6 °C 14,5 km/h (3 Bft)
02.08.2017 13:44 25,6 °C 25,6 °C 66 % 1016,7 hPa 0,0 mm 5,8 km/h (2 Bft) W 264 ° 1 min 0,000 mm 3,5 UV-I 332 W/m² 18,8 °C 25,6 °C 11,3 km/h (2 Bft)
02.08.2017 13:45 25,5 °C 25,6 °C 64 % 1016,6 hPa 0,0 mm 5,9 km/h (2 Bft) W-SW 252 ° 1 min 0,000 mm 3,7 UV-I 371 W/m² 18,2 °C 25,5 °C 11,3 km/h (2 Bft)
02.08.2017 13:46 25,4 °C 25,5 °C 67 % 1016,7 hPa 0,0 mm 4,5 km/h (1 Bft) W 273 ° 1 min 0,000 mm 4,2 UV-I 425 W/m² 18,8 °C 25,4 °C 6,4 km/h (2 Bft)
02.08.2017 13:47 25,5 °C 25,5 °C 67 % 1016,7 hPa 0,0 mm 6,6 km/h (2 Bft) W 261 ° 1 min 0,000 mm 5,3 UV-I 473 W/m² 18,9 °C 25,5 °C 12,9 km/h (3 Bft)
02.08.2017 13:48 25,6 °C 25,6 °C 66 % 1016,6 hPa 0,0 mm 6,7 km/h (2 Bft) W-NW 283 ° 1 min 0,000 mm 5,8 UV-I 473 W/m² 18,8 °C 25,6 °C 9,7 km/h (2 Bft)
02.08.2017 13:49 25,6 °C 25,6 °C 65 % 1016,6 hPa 0,0 mm 3,7 km/h (1 Bft) NW 309 ° 1 min 0,000 mm 6,0 UV-I 473 W/m² 18,5 °C 25,6 °C 6,4 km/h (2 Bft)
02.08.2017 13:50 25,7 °C 25,7 °C 64 % 1016,6 hPa 0,0 mm 6,4 km/h (2 Bft) W-NW 288 ° 1 min 0,000 mm 5,4 UV-I 473 W/m² 18,4 °C 25,7 °C 9,7 km/h (2 Bft)
02.08.2017 13:51 25,8 °C 25,8 °C 63 % 1016,6 hPa 0,0 mm 6,2 km/h (2 Bft) W 269 ° 1 min 0,000 mm 5,5 UV-I 473 W/m² 18,2 °C 25,8 °C 11,3 km/h (2 Bft)
02.08.2017 13:52 25,8 °C 25,8 °C 64 % 1016,6 hPa 0,0 mm 5,6 km/h (1 Bft) W 259 ° 1 min 0,000 mm 6,2 UV-I 608 W/m² 18,5 °C 25,8 °C 9,7 km/h (2 Bft)
02.08.2017 13:53 25,9 °C 25,9 °C 65 % 1016,5 hPa 0,0 mm 5,1 km/h (1 Bft) W-SW 257 ° 1 min 0,000 mm 7,5 UV-I 608 W/m² 18,8 °C 25,9 °C 9,7 km/h (2 Bft)
02.08.2017 13:54 26,1 °C 26,1 °C 68 % 1016,5 hPa 0,0 mm 9,9 km/h (2 Bft) W-NW 294 ° 1 min 0,000 mm 7,3 UV-I 972 W/m² 19,7 °C 26,1 °C 14,5 km/h (3 Bft)
02.08.2017 13:55 26,2 °C 26,2 °C 63 % 1016,5 hPa 0,0 mm 9,4 km/h (2 Bft) W-NW 299 ° 1 min 0,000 mm 7,1 UV-I 981 W/m² 18,6 °C 26,2 °C 12,9 km/h (3 Bft)
02.08.2017 13:56 26,3 °C 26,3 °C 65 % 1016,5 hPa 0,0 mm 9,6 km/h (2 Bft) W 266 ° 1 min 0,000 mm 7,1 UV-I 916 W/m² 19,2 °C 26,3 °C 14,5 km/h (3 Bft)
02.08.2017 13:57 26,3 °C 26,3 °C 62 % 1016,5 hPa 0,0 mm 7,0 km/h (2 Bft) W 281 ° 1 min 0,000 mm 7,2 UV-I 837 W/m² 18,4 °C 26,3 °C 9,7 km/h (2 Bft)
02.08.2017 13:58 26,3 °C 26,3 °C 61 % 1016,5 hPa 0,0 mm 5,8 km/h (2 Bft) NW 320 ° 1 min 0,000 mm 7,2 UV-I 768 W/m² 18,2 °C 26,3 °C 9,7 km/h (2 Bft)
02.08.2017 13:59 26,4 °C 26,4 °C 64 % 1016,4 hPa 0,0 mm 10,1 km/h (2 Bft) NW 306 ° 1 min 0,000 mm 6,8 UV-I 675 W/m² 19,0 °C 26,4 °C 14,5 km/h (3 Bft)
02.08.2017 14:00 26,6 °C 26,6 °C 64 % 1016,4 hPa 0,0 mm 8,0 km/h (2 Bft) N-NW 331 ° 1 min 0,457 mm 6,9 UV-I 675 W/m² 19,2 °C 26,6 °C 11,3 km/h (2 Bft)
02.08.2017 14:01 26,7 °C 26,7 °C 64 % 1016,4 hPa 0,0 mm 5,9 km/h (2 Bft) W 264 ° 1 min 0,000 mm 6,8 UV-I 844 W/m² 19,3 °C 26,7 °C 8,0 km/h (2 Bft)
02.08.2017 14:02 26,7 °C 26,7 °C 63 % 1016,4 hPa 0,0 mm 5,7 km/h (1 Bft) W-NW 297 ° 1 min 0,000 mm 6,8 UV-I 835 W/m² 19,1 °C 26,7 °C 8,0 km/h (2 Bft)
02.08.2017 14:03 26,8 °C 26,8 °C 66 % 1016,4 hPa 0,0 mm 8,4 km/h (2 Bft) W-SW 251 ° 1 min 0,000 mm 6,7 UV-I 830 W/m² 19,9 °C 26,8 °C 14,5 km/h (3 Bft)
02.08.2017 14:04 26,8 °C 26,8 °C 62 % 1016,4 hPa 0,0 mm 1,8 km/h (1 Bft) W 266 ° 1 min 0,000 mm 6,7 UV-I 824 W/m² 18,9 °C 26,8 °C 4,8 km/h (1 Bft)
02.08.2017 14:05 26,8 °C 26,8 °C 60 % 1016,5 hPa 0,0 mm 7,9 km/h (2 Bft) W-SW 256 ° 1 min 0,000 mm 6,7 UV-I 821 W/m² 18,4 °C 26,8 °C 11,3 km/h (2 Bft)
02.08.2017 14:06 26,8 °C 26,8 °C 62 % 1016,3 hPa 0,0 mm 4,6 km/h (1 Bft) W 276 ° 1 min 0,000 mm 6,7 UV-I 824 W/m² 18,9 °C 26,8 °C 6,4 km/h (2 Bft)
02.08.2017 14:07 26,8 °C 26,8 °C 65 % 1016,3 hPa 0,0 mm 4,3 km/h (1 Bft) W-SW 257 ° 1 min 0,000 mm 6,7 UV-I 819 W/m² 19,7 °C 26,8 °C 8,0 km/h (2 Bft)
02.08.2017 14:08 26,9 °C 26,9 °C 67 % 1016,3 hPa 0,0 mm 7,6 km/h (2 Bft) W 264 ° 1 min 0,000 mm 6,7 UV-I 819 W/m² 20,2 °C 26,9 °C 12,9 km/h (3 Bft)
02.08.2017 14:09 26,9 °C 26,9 °C 67 % 1016,3 hPa 0,0 mm 7,2 km/h (2 Bft) W 277 ° 1 min 0,000 mm 6,7 UV-I 819 W/m² 20,2 °C 26,9 °C 11,3 km/h (2 Bft)
02.08.2017 14:10 26,8 °C 26,9 °C 61 % 1016,3 hPa 0,0 mm 5,5 km/h (1 Bft) NW 312 ° 1 min 0,000 mm 6,6 UV-I 817 W/m² 18,6 °C 26,8 °C 6,4 km/h (2 Bft)
02.08.2017 14:11 26,8 °C 26,8 °C 62 % 1016,3 hPa 0,0 mm 6,8 km/h (2 Bft) N-NW 330 ° 1 min 0,000 mm 6,6 UV-I 817 W/m² 18,9 °C 26,8 °C 11,3 km/h (2 Bft)
02.08.2017 14:12 26,9 °C 26,9 °C 61 % 1016,3 hPa 0,0 mm 9,8 km/h (2 Bft) NW 306 ° 1 min 0,000 mm 6,6 UV-I 819 W/m² 18,7 °C 26,9 °C 12,9 km/h (3 Bft)
02.08.2017 14:13 26,9 °C 26,9 °C 63 % 1016,3 hPa 0,0 mm 4,8 km/h (1 Bft) NW 306 ° 1 min 0,000 mm 6,6 UV-I 816 W/m² 19,2 °C 26,9 °C 9,7 km/h (2 Bft)
02.08.2017 14:14 26,9 °C 26,9 °C 63 % 1016,3 hPa 0,0 mm 7,6 km/h (2 Bft) NW 325 ° 1 min 0,000 mm 6,6 UV-I 814 W/m² 19,2 °C 26,9 °C 12,9 km/h (3 Bft)
02.08.2017 14:15 26,9 °C 26,9 °C 60 % 1016,4 hPa 0,0 mm 8,4 km/h (2 Bft) W-NW 290 ° 1 min 0,000 mm 6,6 UV-I 812 W/m² 18,5 °C 26,9 °C 12,9 km/h (3 Bft)
02.08.2017 14:16 26,9 °C 26,9 °C 59 % 1016,4 hPa 0,0 mm 4,2 km/h (1 Bft) W-NW 298 ° 1 min 0,000 mm 6,6 UV-I 810 W/m² 18,2 °C 26,9 °C 6,4 km/h (2 Bft)
02.08.2017 14:17 26,9 °C 26,9 °C 64 % 1016,4 hPa 0,0 mm 6,7 km/h (2 Bft) NW 306 ° 1 min 0,000 mm 6,6 UV-I 812 W/m² 19,5 °C 26,9 °C 12,9 km/h (3 Bft)
02.08.2017 14:18 26,9 °C 26,9 °C 61 % 1016,4 hPa 0,0 mm 8,7 km/h (2 Bft) NW 309 ° 1 min 0,000 mm 6,5 UV-I 809 W/m² 18,7 °C 26,9 °C 16,1 km/h (3 Bft)
02.08.2017 14:19 26,9 °C 26,9 °C 61 % 1016,4 hPa 0,0 mm 7,7 km/h (2 Bft) NW 315 ° 1 min 0,000 mm 6,5 UV-I 809 W/m² 18,7 °C 26,9 °C 11,3 km/h (2 Bft)
02.08.2017 14:20 26,9 °C 26,9 °C 61 % 1016,4 hPa 0,0 mm 6,0 km/h (2 Bft) W-SW 256 ° 1 min 0,000 mm 6,5 UV-I 807 W/m² 18,7 °C 26,9 °C 11,3 km/h (2 Bft)
02.08.2017 14:21 26,9 °C 26,9 °C 59 % 1016,4 hPa 0,0 mm 7,0 km/h (2 Bft) W 259 ° 1 min 0,000 mm 6,5 UV-I 807 W/m² 18,2 °C 26,9 °C 11,3 km/h (2 Bft)
02.08.2017 14:22 26,9 °C 26,9 °C 59 % 1016,3 hPa 0,0 mm 9,5 km/h (2 Bft) W-NW 300 ° 1 min 0,000 mm 6,5 UV-I 807 W/m² 18,2 °C 26,9 °C 14,5 km/h (3 Bft)
02.08.2017 14:23 26,9 °C 26,9 °C 60 % 1016,4 hPa 0,0 mm 7,4 km/h (2 Bft) W-NW 282 ° 1 min 0,000 mm 6,5 UV-I 807 W/m² 18,5 °C 26,9 °C 11,3 km/h (2 Bft)
02.08.2017 14:24 26,9 °C 26,9 °C 59 % 1016,3 hPa 0,0 mm 7,8 km/h (2 Bft) N-NO 27 ° 1 min 0,000 mm 6,4 UV-I 803 W/m² 18,2 °C 26,9 °C 16,1 km/h (3 Bft)
02.08.2017 14:25 27,1 °C 27,1 °C 60 % 1016,3 hPa 0,0 mm 4,1 km/h (1 Bft) N-NW 341 ° 1 min 0,000 mm 6,4 UV-I 803 W/m² 18,6 °C 27,1 °C 6,4 km/h (2 Bft)
02.08.2017 14:26 27,2 °C 27,2 °C 60 % 1016,3 hPa 0,0 mm 8,0 km/h (2 Bft) N-NW 328 ° 1 min 0,000 mm 6,4 UV-I 803 W/m² 18,7 °C 27,2 °C 14,5 km/h (3 Bft)
02.08.2017 14:27 27,4 °C 27,4 °C 62 % 1016,3 hPa 0,0 mm 8,5 km/h (2 Bft) NW 320 ° 1 min 0,000 mm 6,4 UV-I 803 W/m² 19,5 °C 27,4 °C 12,9 km/h (3 Bft)
02.08.2017 14:28 27,4 °C 27,4 °C 62 % 1016,3 hPa 0,0 mm 9,7 km/h (2 Bft) W-NW 288 ° 1 min 0,000 mm 6,4 UV-I 800 W/m² 19,5 °C 27,4 °C 12,9 km/h (3 Bft)
02.08.2017 14:29 27,4 °C 27,5 °C 59 % 1016,3 hPa 0,0 mm 9,4 km/h (2 Bft) W 259 ° 1 min 0,000 mm 6,4 UV-I 800 W/m² 18,7 °C 27,4 °C 14,5 km/h (3 Bft)
02.08.2017 14:30 27,3 °C 27,4 °C 58 % 1016,3 hPa 0,0 mm 5,9 km/h (2 Bft) W 277 ° 1 min 0,000 mm 6,4 UV-I 798 W/m² 18,3 °C 27,3 °C 11,3 km/h (2 Bft)
02.08.2017 14:31 27,2 °C 27,3 °C 59 % 1016,3 hPa 0,0 mm 7,0 km/h (2 Bft) NW 320 ° 1 min 0,000 mm 6,4 UV-I 798 W/m² 18,5 °C 27,2 °C 9,7 km/h (2 Bft)
02.08.2017 14:32 27,2 °C 27,2 °C 59 % 1016,3 hPa 0,0 mm 6,0 km/h (2 Bft) NW 319 ° 1 min 0,000 mm 6,4 UV-I 798 W/m² 18,5 °C 27,2 °C 8,0 km/h (2 Bft)
02.08.2017 14:33 27,3 °C 27,3 °C 63 % 1016,3 hPa 0,0 mm 7,6 km/h (2 Bft) NW 304 ° 1 min 0,000 mm 6,4 UV-I 798 W/m² 19,6 °C 27,3 °C 12,9 km/h (3 Bft)
02.08.2017 14:34 27,3 °C 27,3 °C 58 % 1016,2 hPa 0,0 mm 6,4 km/h (2 Bft) W-NW 284 ° 1 min 0,000 mm 6,3 UV-I 798 W/m² 18,3 °C 27,3 °C 12,9 km/h (3 Bft)
02.08.2017 14:35 27,2 °C 27,3 °C 61 % 1016,2 hPa 0,0 mm 5,6 km/h (1 Bft) NW 324 ° 1 min 0,000 mm 6,3 UV-I 796 W/m² 19,0 °C 27,2 °C 9,7 km/h (2 Bft)
02.08.2017 14:36 27,2 °C 27,2 °C 60 % 1016,2 hPa 0,0 mm 4,7 km/h (1 Bft) S 181 ° 1 min 0,000 mm 6,3 UV-I 796 W/m² 18,7 °C 27,2 °C 8,0 km/h (2 Bft)
02.08.2017 14:37 27,2 °C 27,2 °C 59 % 1016,2 hPa 0,0 mm 5,8 km/h (2 Bft) W-SW 256 ° 1 min 0,000 mm 6,3 UV-I 795 W/m² 18,5 °C 27,2 °C 8,0 km/h (2 Bft)
02.08.2017 14:38 27,1 °C 27,2 °C 59 % 1016,2 hPa 0,0 mm 4,0 km/h (1 Bft) W-NW 300 ° 1 min 0,000 mm 6,3 UV-I 796 W/m² 18,4 °C 27,1 °C 6,4 km/h (2 Bft)
02.08.2017 14:39 27,1 °C 27,1 °C 59 % 1016,2 hPa 0,0 mm 5,4 km/h (1 Bft) N-NW 341 ° 1 min 0,000 mm 6,3 UV-I 795 W/m² 18,4 °C 27,1 °C 8,0 km/h (2 Bft)
02.08.2017 14:40 27,2 °C 27,2 °C 62 % 1016,2 hPa 0,0 mm 8,5 km/h (2 Bft) NO 41 ° 1 min 0,000 mm 6,3 UV-I 795 W/m² 19,3 °C 27,2 °C 16,1 km/h (3 Bft)
02.08.2017 14:41 27,2 °C 27,2 °C 60 % 1016,2 hPa 0,0 mm 5,7 km/h (1 Bft) N-NW 328 ° 1 min 0,000 mm 6,3 UV-I 793 W/m² 18,7 °C 27,2 °C 12,9 km/h (3 Bft)
02.08.2017 14:42 27,2 °C 27,2 °C 60 % 1016,2 hPa 0,0 mm 3,7 km/h (1 Bft) W 281 ° 1 min 0,000 mm 6,3 UV-I 793 W/m² 18,7 °C 27,2 °C 6,4 km/h (2 Bft)
02.08.2017 14:43 27,3 °C 27,3 °C 61 % 1016,2 hPa 0,0 mm 5,6 km/h (1 Bft) NW 321 ° 1 min 0,000 mm 6,2 UV-I 791 W/m² 19,1 °C 27,3 °C 9,7 km/h (2 Bft)
02.08.2017 14:44 27,3 °C 27,3 °C 60 % 1016,2 hPa 0,0 mm 7,2 km/h (2 Bft) N-NW 331 ° 1 min 0,000 mm 6,2 UV-I 791 W/m² 18,8 °C 27,3 °C 12,9 km/h (3 Bft)
02.08.2017 14:45 27,4 °C 27,4 °C 63 % 1016,2 hPa 0,0 mm 4,3 km/h (1 Bft) N-NW 329 ° 1 min 0,000 mm 6,2 UV-I 789 W/m² 19,7 °C 27,4 °C 6,4 km/h (2 Bft)
02.08.2017 14:46 27,5 °C 27,5 °C 60 % 1016,2 hPa 0,0 mm 6,0 km/h (2 Bft) N-NW 334 ° 1 min 0,000 mm 6,2 UV-I 791 W/m² 19,0 °C 27,5 °C 9,7 km/h (2 Bft)
02.08.2017 14:47 27,4 °C 27,5 °C 58 % 1016,2 hPa 0,0 mm 3,3 km/h (1 Bft) N-NW 339 ° 1 min 0,000 mm 6,2 UV-I 791 W/m² 18,4 °C 27,4 °C 4,8 km/h (1 Bft)
02.08.2017 14:48 27,4 °C 27,4 °C 60 % 1016,1 hPa 0,0 mm 6,0 km/h (2 Bft) NW 314 ° 1 min 0,000 mm 6,2 UV-I 789 W/m² 18,9 °C 27,4 °C 8,0 km/h (2 Bft)
02.08.2017 14:49 27,4 °C 27,4 °C 60 % 1016,2 hPa 0,0 mm 8,0 km/h (2 Bft) NW 320 ° 1 min 0,000 mm 6,2 UV-I 786 W/m² 18,9 °C 27,4 °C 12,9 km/h (3 Bft)
02.08.2017 14:50 27,4 °C 27,4 °C 62 % 1016,1 hPa 0,0 mm 5,5 km/h (1 Bft) W 267 ° 1 min 0,000 mm 6,1 UV-I 784 W/m² 19,5 °C 27,4 °C 11,3 km/h (2 Bft)
02.08.2017 14:51 27,4 °C 27,4 °C 59 % 1016,1 hPa 0,0 mm 4,6 km/h (1 Bft) W-SW 252 ° 1 min 0,000 mm 6,1 UV-I 782 W/m² 18,7 °C 27,4 °C 6,4 km/h (2 Bft)
02.08.2017 14:52 27,4 °C 27,4 °C 61 % 1016,1 hPa 0,0 mm 3,6 km/h (1 Bft) W 274 ° 1 min 0,000 mm 6,1 UV-I 780 W/m² 19,2 °C 27,4 °C 9,7 km/h (2 Bft)
02.08.2017 14:53 27,4 °C 27,5 °C 63 % 1016,1 hPa 0,0 mm 7,8 km/h (2 Bft) W-NW 290 ° 1 min 0,000 mm 6,0 UV-I 779 W/m² 19,7 °C 27,4 °C 11,3 km/h (2 Bft)
02.08.2017 14:54 27,4 °C 27,4 °C 60 % 1016,1 hPa 0,0 mm 11,0 km/h (2 Bft) W 276 ° 1 min 0,000 mm 6,0 UV-I 777 W/m² 18,9 °C 27,4 °C 14,5 km/h (3 Bft)
02.08.2017 14:55 27,4 °C 27,4 °C 58 % 1016,1 hPa 0,0 mm 3,6 km/h (1 Bft) W-SW 244 ° 1 min 0,000 mm 6,0 UV-I 775 W/m² 18,4 °C 27,4 °C 6,4 km/h (2 Bft)
02.08.2017 14:56 27,3 °C 27,4 °C 61 % 1016,1 hPa 0,0 mm 5,4 km/h (1 Bft) W-NW 298 ° 1 min 0,000 mm 6,0 UV-I 773 W/m² 19,1 °C 27,3 °C 11,3 km/h (2 Bft)
02.08.2017 14:57 27,3 °C 27,3 °C 60 % 1016,1 hPa 0,0 mm 6,7 km/h (2 Bft) W 278 ° 1 min 0,000 mm 6,0 UV-I 772 W/m² 18,8 °C 27,3 °C 9,7 km/h (2 Bft)
02.08.2017 14:58 27,3 °C 27,4 °C 60 % 1016,1 hPa 0,0 mm 8,2 km/h (2 Bft) W 278 ° 1 min 0,000 mm 6,0 UV-I 772 W/m² 18,8 °C 27,3 °C 11,3 km/h (2 Bft)
02.08.2017 14:59 27,3 °C 27,4 °C 58 % 1016,1 hPa 0,0 mm 8,4 km/h (2 Bft) W 266 ° 1 min 0,000 mm 6,0 UV-I 770 W/m² 18,3 °C 27,3 °C 11,3 km/h (2 Bft)
02.08.2017 15:00 27,3 °C 27,3 °C 59 % 1016,1 hPa 0,0 mm 5,1 km/h (1 Bft) NW 315 ° 1 min 0,559 mm 5,9 UV-I 766 W/m² 18,6 °C 27,3 °C 6,4 km/h (2 Bft)
02.08.2017 15:01 27,3 °C 27,3 °C 59 % 1016,1 hPa 0,0 mm 3,8 km/h (1 Bft) NW 320 ° 1 min 0,000 mm 5,9 UV-I 766 W/m² 18,6 °C 27,3 °C 4,8 km/h (1 Bft)
02.08.2017 15:02 27,3 °C 27,3 °C 61 % 1016,1 hPa 0,0 mm 6,4 km/h (2 Bft) N-NW 327 ° 1 min 0,000 mm 5,9 UV-I 766 W/m² 19,1 °C 27,3 °C 11,3 km/h (2 Bft)
02.08.2017 15:03 27,3 °C 27,3 °C 61 % 1016,1 hPa 0,0 mm 5,2 km/h (1 Bft) W-NW 302 ° 1 min 0,000 mm 5,9 UV-I 768 W/m² 19,1 °C 27,3 °C 6,4 km/h (2 Bft)
02.08.2017 15:04 27,3 °C 27,3 °C 59 % 1016,1 hPa 0,0 mm 6,7 km/h (2 Bft) NW 313 ° 1 min 0,000 mm 5,9 UV-I 766 W/m² 18,6 °C 27,3 °C 9,7 km/h (2 Bft)
02.08.2017 15:05 27,3 °C 27,3 °C 57 % 1016,1 hPa 0,0 mm 7,7 km/h (2 Bft) NW 326 ° 1 min 0,000 mm 5,9 UV-I 765 W/m² 18,0 °C 27,3 °C 9,7 km/h (2 Bft)
02.08.2017 15:06 27,4 °C 27,4 °C 57 % 1016,1 hPa 0,0 mm 6,0 km/h (2 Bft) W-NW 300 ° 1 min 0,000 mm 5,9 UV-I 761 W/m² 18,1 °C 27,4 °C 9,7 km/h (2 Bft)
02.08.2017 15:07 27,3 °C 27,4 °C 59 % 1016,1 hPa 0,0 mm 4,5 km/h (1 Bft) N-NW 333 ° 1 min 0,000 mm 5,8 UV-I 759 W/m² 18,6 °C 27,3 °C 6,4 km/h (2 Bft)
02.08.2017 15:08 27,4 °C 27,4 °C 57 % 1016,1 hPa 0,0 mm 3,8 km/h (1 Bft) NW 315 ° 1 min 0,000 mm 5,8 UV-I 761 W/m² 18,1 °C 27,4 °C 6,4 km/h (2 Bft)
02.08.2017 15:09 27,4 °C 27,5 °C 58 % 1016,1 hPa 0,0 mm 4,4 km/h (1 Bft) NW 306 ° 1 min 0,000 mm 5,8 UV-I 759 W/m² 18,4 °C 27,4 °C 6,4 km/h (2 Bft)
02.08.2017 15:10 27,4 °C 27,5 °C 58 % 1016,0 hPa 0,0 mm 9,3 km/h (2 Bft) W 281 ° 1 min 0,000 mm 5,8 UV-I 758 W/m² 18,4 °C 27,4 °C 16,1 km/h (3 Bft)
02.08.2017 15:11 27,4 °C 27,4 °C 58 % 1016,1 hPa 0,0 mm 6,2 km/h (2 Bft) N-NW 329 ° 1 min 0,000 mm 5,8 UV-I 758 W/m² 18,4 °C 27,4 °C 8,0 km/h (2 Bft)
02.08.2017 15:12 27,3 °C 27,4 °C 57 % 1016,0 hPa 0,0 mm 2,7 km/h (1 Bft) NW 317 ° 1 min 0,000 mm 5,8 UV-I 754 W/m² 18,0 °C 27,3 °C 8,0 km/h (2 Bft)
02.08.2017 15:13 27,3 °C 27,3 °C 58 % 1016,0 hPa 0,0 mm 2,4 km/h (1 Bft) NW 315 ° 1 min 0,000 mm 5,7 UV-I 752 W/m² 18,3 °C 27,3 °C 4,8 km/h (1 Bft)
02.08.2017 15:14 27,3 °C 27,3 °C 59 % 1016,0 hPa 0,0 mm 6,0 km/h (2 Bft) W 273 ° 1 min 0,000 mm 5,7 UV-I 752 W/m² 18,6 °C 27,3 °C 12,9 km/h (3 Bft)
02.08.2017 15:15 27,3 °C 27,3 °C 58 % 1016,1 hPa 0,0 mm 6,6 km/h (2 Bft) NW 323 ° 1 min 0,000 mm 5,7 UV-I 751 W/m² 18,3 °C 27,3 °C 11,3 km/h (2 Bft)
02.08.2017 15:16 27,4 °C 27,4 °C 61 % 1016,0 hPa 0,0 mm 6,9 km/h (2 Bft) W-NW 294 ° 1 min 0,000 mm 5,7 UV-I 751 W/m² 19,2 °C 27,4 °C 9,7 km/h (2 Bft)
02.08.2017 15:17 27,4 °C 27,4 °C 59 % 1016,1 hPa 0,0 mm 5,7 km/h (1 Bft) W-NW 285 ° 1 min 0,000 mm 5,7 UV-I 751 W/m² 18,7 °C 27,4 °C 8,0 km/h (2 Bft)
02.08.2017 15:18 27,4 °C 27,4 °C 57 % 1016,1 hPa 0,0 mm 2,1 km/h (1 Bft) N-NW 327 ° 1 min 0,000 mm 5,7 UV-I 751 W/m² 18,1 °C 27,4 °C 4,8 km/h (1 Bft)
02.08.2017 15:19 27,4 °C 27,4 °C 57 % 1016,1 hPa 0,0 mm 3,2 km/h (1 Bft) W-NW 300 ° 1 min 0,000 mm 5,7 UV-I 749 W/m² 18,1 °C 27,4 °C 6,4 km/h (2 Bft)
02.08.2017 15:20 27,5 °C 27,5 °C 59 % 1016,1 hPa 0,0 mm 7,4 km/h (2 Bft) N-NW 336 ° 1 min 0,000 mm 5,6 UV-I 745 W/m² 18,8 °C 27,5 °C 11,3 km/h (2 Bft)
02.08.2017 15:21 27,6 °C 27,6 °C 62 % 1016,1 hPa 0,0 mm 7,1 km/h (2 Bft) W-NW 287 ° 1 min 0,000 mm 5,6 UV-I 742 W/m² 19,6 °C 27,6 °C 11,3 km/h (2 Bft)
02.08.2017 15:22 27,7 °C 27,7 °C 58 % 1016,0 hPa 0,0 mm 6,3 km/h (2 Bft) N-NW 333 ° 1 min 0,000 mm 5,6 UV-I 742 W/m² 18,7 °C 27,7 °C 9,7 km/h (2 Bft)
02.08.2017 15:23 27,7 °C 27,7 °C 58 % 1016,1 hPa 0,0 mm 6,2 km/h (2 Bft) N-NW 329 ° 1 min 0,000 mm 5,6 UV-I 738 W/m² 18,7 °C 27,7 °C 9,7 km/h (2 Bft)
02.08.2017 15:24 27,7 °C 27,7 °C 62 % 1016,0 hPa 0,0 mm 8,4 km/h (2 Bft) NW 309 ° 1 min 0,000 mm 5,5 UV-I 737 W/m² 19,7 °C 27,7 °C 12,9 km/h (3 Bft)
02.08.2017 15:25 27,7 °C 27,7 °C 59 % 1016,0 hPa 0,0 mm 6,4 km/h (2 Bft) N-NW 345 ° 1 min 0,000 mm 5,5 UV-I 735 W/m² 18,9 °C 27,7 °C 12,9 km/h (3 Bft)
02.08.2017 15:26 27,8 °C 27,8 °C 62 % 1016,0 hPa 0,0 mm 5,5 km/h (1 Bft) N-NW 345 ° 1 min 0,000 mm 5,5 UV-I 733 W/m² 19,8 °C 27,8 °C 8,0 km/h (2 Bft)
02.08.2017 15:27 27,8 °C 27,8 °C 60 % 1016,1 hPa 0,0 mm 3,8 km/h (1 Bft) N-NW 331 ° 1 min 0,000 mm 5,5 UV-I 733 W/m² 19,3 °C 27,8 °C 8,0 km/h (2 Bft)
02.08.2017 15:28 27,8 °C 27,8 °C 56 % 1016,0 hPa 0,0 mm 3,1 km/h (1 Bft) N 360 ° 1 min 0,000 mm 5,5 UV-I 731 W/m² 18,2 °C 27,8 °C 4,8 km/h (1 Bft)
02.08.2017 15:29 27,8 °C 27,8 °C 60 % 1015,9 hPa 0,0 mm 5,8 km/h (2 Bft) N-NW 341 ° 1 min 0,000 mm 5,5 UV-I 729 W/m² 19,3 °C 27,8 °C 8,0 km/h (2 Bft)
02.08.2017 15:30 27,8 °C 27,8 °C 57 % 1015,9 hPa 0,0 mm 7,4 km/h (2 Bft) N-NW 336 ° 1 min 0,000 mm 5,4 UV-I 728 W/m² 18,5 °C 27,8 °C 11,3 km/h (2 Bft)
02.08.2017 15:31 27,8 °C 27,8 °C 59 % 1015,9 hPa 0,0 mm 4,9 km/h (1 Bft) NW 326 ° 1 min 0,000 mm 5,4 UV-I 726 W/m² 19,0 °C 27,8 °C 8,0 km/h (2 Bft)
02.08.2017 15:32 27,8 °C 27,8 °C 59 % 1015,9 hPa 0,0 mm 3,4 km/h (1 Bft) NW 321 ° 1 min 0,000 mm 5,4 UV-I 724 W/m² 19,0 °C 27,8 °C 4,8 km/h (1 Bft)
02.08.2017 15:33 27,7 °C 27,8 °C 58 % 1015,9 hPa 0,0 mm 6,2 km/h (2 Bft) NW 319 ° 1 min 0,000 mm 5,4 UV-I 722 W/m² 18,7 °C 27,7 °C 8,0 km/h (2 Bft)
02.08.2017 15:34 27,6 °C 27,7 °C 56 % 1015,9 hPa 0,0 mm 4,1 km/h (1 Bft) NW 309 ° 1 min 0,000 mm 5,3 UV-I 719 W/m² 18,0 °C 27,6 °C 8,0 km/h (2 Bft)
02.08.2017 15:35 27,5 °C 27,6 °C 57 % 1016,0 hPa 0,0 mm 4,5 km/h (1 Bft) NW 309 ° 1 min 0,000 mm 5,3 UV-I 714 W/m² 18,2 °C 27,5 °C 6,4 km/h (2 Bft)
02.08.2017 15:36 27,4 °C 27,5 °C 54 % 1016,0 hPa 0,0 mm 4,6 km/h (1 Bft) NW 317 ° 1 min 0,000 mm 5,2 UV-I 710 W/m² 17,3 °C 27,4 °C 6,4 km/h (2 Bft)
02.08.2017 15:37 27,6 °C 27,6 °C 57 % 1016,0 hPa 0,0 mm 6,3 km/h (2 Bft) NW 324 ° 1 min 0,000 mm 5,2 UV-I 708 W/m² 18,3 °C 27,6 °C 12,9 km/h (3 Bft)
02.08.2017 15:38 27,6 °C 27,6 °C 59 % 1016,0 hPa 0,0 mm 8,2 km/h (2 Bft) N-NW 331 ° 1 min 0,000 mm 5,2 UV-I 705 W/m² 18,8 °C 27,6 °C 12,9 km/h (3 Bft)
02.08.2017 15:39 27,6 °C 27,6 °C 57 % 1016,0 hPa 0,0 mm 3,9 km/h (1 Bft) NW 309 ° 1 min 0,000 mm 4,2 UV-I 707 W/m² 18,3 °C 27,6 °C 6,4 km/h (2 Bft)
02.08.2017 15:40 27,6 °C 27,6 °C 61 % 1016,0 hPa 0,0 mm 4,4 km/h (1 Bft) W-NW 296 ° 1 min 0,000 mm 4,5 UV-I 705 W/m² 19,4 °C 27,6 °C 6,4 km/h (2 Bft)
02.08.2017 15:41 27,5 °C 27,6 °C 57 % 1016,0 hPa 0,0 mm 5,4 km/h (1 Bft) W 275 ° 1 min 0,000 mm 5,1 UV-I 701 W/m² 18,2 °C 27,5 °C 8,0 km/h (2 Bft)
02.08.2017 15:42 27,4 °C 27,5 °C 58 % 1016,1 hPa 0,0 mm 4,6 km/h (1 Bft) W 266 ° 1 min 0,000 mm 5,1 UV-I 700 W/m² 18,4 °C 27,4 °C 6,4 km/h (2 Bft)
02.08.2017 15:43 27,4 °C 27,4 °C 59 % 1015,9 hPa 0,0 mm 3,5 km/h (1 Bft) W-NW 294 ° 1 min 0,000 mm 5,1 UV-I 698 W/m² 18,7 °C 27,4 °C 4,8 km/h (1 Bft)
02.08.2017 15:44 27,4 °C 27,4 °C 57 % 1015,9 hPa 0,0 mm 5,6 km/h (1 Bft) W 273 ° 1 min 0,000 mm 5,0 UV-I 694 W/m² 18,1 °C 27,4 °C 9,7 km/h (2 Bft)
02.08.2017 15:45 27,4 °C 27,4 °C 56 % 1015,9 hPa 0,0 mm 5,3 km/h (1 Bft) W-NW 283 ° 1 min 0,000 mm 5,0 UV-I 693 W/m² 17,8 °C 27,4 °C 9,7 km/h (2 Bft)
02.08.2017 15:46 27,3 °C 27,4 °C 57 % 1016,0 hPa 0,0 mm 5,8 km/h (2 Bft) W 275 ° 1 min 0,000 mm 5,0 UV-I 693 W/m² 18,0 °C 27,3 °C 8,0 km/h (2 Bft)
02.08.2017 15:47 27,3 °C 27,3 °C 58 % 1016,0 hPa 0,0 mm 3,0 km/h (1 Bft) NW 321 ° 1 min 0,000 mm 5,0 UV-I 687 W/m² 18,3 °C 27,3 °C 6,4 km/h (2 Bft)
02.08.2017 15:48 27,3 °C 27,3 °C 58 % 1016,0 hPa 0,0 mm 7,1 km/h (2 Bft) N-NO 13 ° 1 min 0,000 mm 4,9 UV-I 686 W/m² 18,3 °C 27,3 °C 11,3 km/h (2 Bft)
02.08.2017 15:49 27,4 °C 27,4 °C 58 % 1016,0 hPa 0,0 mm 7,0 km/h (2 Bft) N-NW 346 ° 1 min 0,000 mm 4,9 UV-I 684 W/m² 18,4 °C 27,4 °C 11,3 km/h (2 Bft)
02.08.2017 15:50 27,4 °C 27,4 °C 56 % 1015,9 hPa 0,0 mm 4,2 km/h (1 Bft) N-NO 27 ° 1 min 0,000 mm 4,9 UV-I 682 W/m² 17,8 °C 27,4 °C 8,0 km/h (2 Bft)
02.08.2017 15:51 27,4 °C 27,4 °C 57 % 1016,0 hPa 0,0 mm 4,9 km/h (1 Bft) N 5 ° 1 min 0,000 mm 4,9 UV-I 680 W/m² 18,1 °C 27,4 °C 6,4 km/h (2 Bft)
02.08.2017 15:52 27,5 °C 27,5 °C 56 % 1016,0 hPa 0,0 mm 2,3 km/h (1 Bft) N 5 ° 1 min 0,000 mm 4,9 UV-I 680 W/m² 17,9 °C 27,5 °C 4,8 km/h (1 Bft)
02.08.2017 15:53 27,6 °C 27,6 °C 57 % 1015,9 hPa 0,0 mm 0,7 km/h (0 Bft) N 5 ° 1 min 0,000 mm 4,9 UV-I 677 W/m² 18,3 °C 27,6 °C 1,6 km/h (1 Bft)
02.08.2017 15:54 27,7 °C 27,7 °C 58 % 1015,9 hPa 0,0 mm 3,5 km/h (1 Bft) N-NW 337 ° 1 min 0,000 mm 4,8 UV-I 675 W/m² 18,7 °C 27,7 °C 4,8 km/h (1 Bft)
02.08.2017 15:55 27,7 °C 27,7 °C 58 % 1015,9 hPa 0,0 mm 4,5 km/h (1 Bft) N 350 ° 1 min 0,000 mm 4,8 UV-I 675 W/m² 18,7 °C 27,7 °C 4,8 km/h (1 Bft)
02.08.2017 15:56 27,7 °C 27,8 °C 56 % 1016,0 hPa 0,0 mm 7,7 km/h (2 Bft) NW 309 ° 1 min 0,000 mm 4,8 UV-I 673 W/m² 18,1 °C 27,7 °C 11,3 km/h (2 Bft)
02.08.2017 15:57 27,7 °C 27,7 °C 57 % 1015,9 hPa 0,0 mm 6,9 km/h (2 Bft) N-NO 15 ° 1 min 0,000 mm 4,8 UV-I 671 W/m² 18,4 °C 27,7 °C 9,7 km/h (2 Bft)
02.08.2017 15:58 27,6 °C 27,7 °C 59 % 1016,0 hPa 0,0 mm 5,1 km/h (1 Bft) N-NO 18 ° 1 min 0,000 mm 4,8 UV-I 670 W/m² 18,8 °C 27,6 °C 9,7 km/h (2 Bft)
02.08.2017 15:59 27,7 °C 27,7 °C 59 % 1015,9 hPa 0,0 mm 4,2 km/h (1 Bft) N 350 ° 1 min 0,000 mm 4,7 UV-I 664 W/m² 18,9 °C 27,7 °C 6,4 km/h (2 Bft)
02.08.2017 16:00 27,7 °C 27,7 °C 58 % 1016,0 hPa 0,0 mm 4,4 km/h (1 Bft) N 5 ° 1 min 0,508 mm 4,7 UV-I 663 W/m² 18,7 °C 27,7 °C 8,0 km/h (2 Bft)
02.08.2017 16:01 27,7 °C 27,7 °C 60 % 1015,9 hPa 0,0 mm 1,5 km/h (1 Bft) N 5 ° 1 min 0,000 mm 4,7 UV-I 661 W/m² 19,2 °C 27,7 °C 3,2 km/h (1 Bft)
02.08.2017 16:02 27,6 °C 27,7 °C 59 % 1015,9 hPa 0,0 mm 4,1 km/h (1 Bft) N 10 ° 1 min 0,000 mm 4,7 UV-I 659 W/m² 18,8 °C 27,6 °C 6,4 km/h (2 Bft)
02.08.2017 16:03 27,7 °C 27,7 °C 59 % 1015,9 hPa 0,0 mm 6,1 km/h (2 Bft) N-NO 22 ° 1 min 0,000 mm 4,6 UV-I 659 W/m² 18,9 °C 27,7 °C 11,3 km/h (2 Bft)
02.08.2017 16:04 27,8 °C 27,8 °C 57 % 1015,9 hPa 0,0 mm 6,4 km/h (2 Bft) O 86 ° 1 min 0,000 mm 4,6 UV-I 656 W/m² 18,5 °C 27,8 °C 11,3 km/h (2 Bft)
02.08.2017 16:05 27,8 °C 27,8 °C 58 % 1015,9 hPa 0,0 mm 5,7 km/h (1 Bft) NO 55 ° 1 min 0,000 mm 4,6 UV-I 650 W/m² 18,8 °C 27,8 °C 11,3 km/h (2 Bft)
02.08.2017 16:06 27,7 °C 27,8 °C 60 % 1015,9 hPa 0,0 mm 4,1 km/h (1 Bft) O-NO 71 ° 1 min 0,000 mm 4,5 UV-I 649 W/m² 19,2 °C 27,7 °C 6,4 km/h (2 Bft)
02.08.2017 16:07 27,6 °C 27,7 °C 59 % 1015,9 hPa 0,0 mm 4,3 km/h (1 Bft) O-NO 63 ° 1 min 0,000 mm 4,5 UV-I 647 W/m² 18,8 °C 27,6 °C 6,4 km/h (2 Bft)
02.08.2017 16:08 27,5 °C 27,6 °C 57 % 1016,0 hPa 0,0 mm 5,0 km/h (1 Bft) O-NO 61 ° 1 min 0,000 mm 4,5 UV-I 628 W/m² 18,2 °C 27,5 °C 6,4 km/h (2 Bft)
02.08.2017 16:09 27,4 °C 27,5 °C 57 % 1015,9 hPa 0,0 mm 4,7 km/h (1 Bft) O-NO 74 ° 1 min 0,000 mm 4,5 UV-I 628 W/m² 18,1 °C 27,4 °C 8,0 km/h (2 Bft)
02.08.2017 16:10 27,3 °C 27,4 °C 58 % 1015,9 hPa 0,0 mm 2,2 km/h (1 Bft) O-NO 73 ° 1 min 0,000 mm 3,8 UV-I 436 W/m² 18,3 °C 27,3 °C 4,8 km/h (1 Bft)
02.08.2017 16:11 27,4 °C 27,4 °C 59 % 1015,9 hPa 0,0 mm 5,7 km/h (1 Bft) N-NW 327 ° 1 min 0,000 mm 3,4 UV-I 436 W/m² 18,7 °C 27,4 °C 9,7 km/h (2 Bft)
02.08.2017 16:12 27,4 °C 27,4 °C 61 % 1015,9 hPa 0,0 mm 5,6 km/h (1 Bft) N-NW 327 ° 1 min 0,000 mm 2,7 UV-I 436 W/m² 19,2 °C 27,4 °C 8,0 km/h (2 Bft)
02.08.2017 16:13 27,5 °C 27,5 °C 58 % 1016,0 hPa 0,0 mm 3,0 km/h (1 Bft) N-NW 332 ° 0 min 0,000 mm 2,4 UV-I 104 W/m² 18,5 °C 27,5 °C 8,0 km/h (2 Bft)
02.08.2017 16:14 27,6 °C 27,6 °C 59 % 1016,0 hPa 0,0 mm 2,3 km/h (1 Bft) NW 324 ° 0 min 0,000 mm 2,4 UV-I 104 W/m² 18,8 °C 27,6 °C 4,8 km/h (1 Bft)
02.08.2017 16:15 27,6 °C 27,6 °C 60 % 1015,9 hPa 0,0 mm 3,9 km/h (1 Bft) NW 319 ° 0 min 0,000 mm 2,3 UV-I 102 W/m² 19,1 °C 27,6 °C 6,4 km/h (2 Bft)
02.08.2017 16:16 27,6 °C 27,6 °C 59 % 1016,0 hPa 0,0 mm 5,3 km/h (1 Bft) NW 315 ° 0 min 0,000 mm 2,4 UV-I 102 W/m² 18,8 °C 27,6 °C 8,0 km/h (2 Bft)
02.08.2017 16:17 27,5 °C 27,6 °C 60 % 1016,0 hPa 0,0 mm 4,0 km/h (1 Bft) NW 321 ° 0 min 0,000 mm 2,4 UV-I 84 W/m² 19,0 °C 27,5 °C 6,4 km/h (2 Bft)
02.08.2017 16:18 27,4 °C 27,5 °C 57 % 1016,0 hPa 0,0 mm 5,1 km/h (1 Bft) NW 319 ° 0 min 0,000 mm 2,4 UV-I 86 W/m² 18,1 °C 27,4 °C 8,0 km/h (2 Bft)
02.08.2017 16:19 27,3 °C 27,4 °C 58 % 1016,0 hPa 0,0 mm 7,1 km/h (2 Bft) NW 317 ° 0 min 0,000 mm 2,3 UV-I 81 W/m² 18,3 °C 27,3 °C 9,7 km/h (2 Bft)
02.08.2017 16:20 27,3 °C 27,3 °C 58 % 1016,0 hPa 0,0 mm 3,0 km/h (1 Bft) NW 315 ° 0 min 0,000 mm 2,3 UV-I 77 W/m² 18,3 °C 27,3 °C 4,8 km/h (1 Bft)
02.08.2017 16:21 27,3 °C 27,3 °C 60 % 1016,0 hPa 0,0 mm 4,0 km/h (1 Bft) NW 320 ° 0 min 0,000 mm 2,2 UV-I 76 W/m² 18,8 °C 27,3 °C 6,4 km/h (2 Bft)
02.08.2017 16:22 27,3 °C 27,3 °C 60 % 1016,0 hPa 0,0 mm 3,7 km/h (1 Bft) N-NW 344 ° 0 min 0,000 mm 2,2 UV-I 74 W/m² 18,8 °C 27,3 °C 6,4 km/h (2 Bft)
02.08.2017 16:23 27,3 °C 27,4 °C 62 % 1016,0 hPa 0,0 mm 4,7 km/h (1 Bft) W-NW 286 ° 0 min 0,000 mm 2,2 UV-I 74 W/m² 19,4 °C 27,3 °C 9,7 km/h (2 Bft)
02.08.2017 16:24 27,3 °C 27,3 °C 57 % 1015,9 hPa 0,0 mm 5,6 km/h (1 Bft) NW 314 ° 0 min 0,000 mm 2,2 UV-I 74 W/m² 18,0 °C 27,3 °C 8,0 km/h (2 Bft)
02.08.2017 16:25 27,3 °C 27,3 °C 57 % 1015,9 hPa 0,0 mm 3,2 km/h (1 Bft) N 360 ° 0 min 0,000 mm 2,2 UV-I 74 W/m² 18,0 °C 27,3 °C 4,8 km/h (1 Bft)
02.08.2017 16:26 27,3 °C 27,3 °C 57 % 1016,0 hPa 0,0 mm 4,7 km/h (1 Bft) N-NO 16 ° 0 min 0,000 mm 2,2 UV-I 77 W/m² 18,0 °C 27,3 °C 6,4 km/h (2 Bft)
02.08.2017 16:27 27,4 °C 27,4 °C 58 % 1015,9 hPa 0,0 mm 7,2 km/h (2 Bft) N 10 ° 0 min 0,000 mm 2,2 UV-I 90 W/m² 18,4 °C 27,4 °C 12,9 km/h (3 Bft)
02.08.2017 16:28 27,6 °C 27,6 °C 58 % 1015,9 hPa 0,0 mm 4,6 km/h (1 Bft) N 355 ° 0 min 0,000 mm 2,2 UV-I 76 W/m² 18,6 °C 27,6 °C 8,0 km/h (2 Bft)
02.08.2017 16:29 27,7 °C 27,7 °C 58 % 1015,9 hPa 0,0 mm 7,0 km/h (2 Bft) N-NO 16 ° 0 min 0,000 mm 2,2 UV-I 72 W/m² 18,7 °C 27,7 °C 8,0 km/h (2 Bft)
02.08.2017 16:30 27,6 °C 27,7 °C 57 % 1016,0 hPa 0,0 mm 4,8 km/h (1 Bft) N-NO 16 ° 0 min 0,000 mm 2,2 UV-I 72 W/m² 18,3 °C 27,6 °C 6,4 km/h (2 Bft)
02.08.2017 16:31 27,6 °C 27,6 °C 58 % 1015,9 hPa 0,0 mm 2,7 km/h (1 Bft) N-NO 16 ° 0 min 0,000 mm 2,2 UV-I 72 W/m² 18,6 °C 27,6 °C 3,2 km/h (1 Bft)
02.08.2017 16:32 27,5 °C 27,6 °C 59 % 1015,9 hPa 0,0 mm 3,0 km/h (1 Bft) NW 319 ° 0 min 0,000 mm 2,2 UV-I 72 W/m² 18,8 °C 27,5 °C 6,4 km/h (2 Bft)
02.08.2017 16:33 27,4 °C 27,5 °C 57 % 1015,9 hPa 0,0 mm 3,7 km/h (1 Bft) N-NW 328 ° 0 min 0,000 mm 2,1 UV-I 72 W/m² 18,1 °C 27,4 °C 6,4 km/h (2 Bft)
02.08.2017 16:34 27,4 °C 27,4 °C 58 % 1015,9 hPa 0,0 mm 4,7 km/h (1 Bft) W-NW 296 ° 0 min 0,000 mm 2,1 UV-I 74 W/m² 18,4 °C 27,4 °C 6,4 km/h (2 Bft)
02.08.2017 16:35 27,3 °C 27,4 °C 57 % 1015,9 hPa 0,0 mm 6,3 km/h (2 Bft) N-NW 333 ° 0 min 0,000 mm 2,1 UV-I 74 W/m² 18,0 °C 27,3 °C 9,7 km/h (2 Bft)
02.08.2017 16:36 27,2 °C 27,3 °C 58 % 1015,9 hPa 0,0 mm 1,6 km/h (1 Bft) N-NW 333 ° 0 min 0,000 mm 2,1 UV-I 74 W/m² 18,2 °C 27,2 °C 3,2 km/h (1 Bft)
02.08.2017 16:37 27,2 °C 27,2 °C 57 % 1015,9 hPa 0,0 mm 3,4 km/h (1 Bft) NW 310 ° 0 min 0,000 mm 2,1 UV-I 86 W/m² 17,9 °C 27,2 °C 4,8 km/h (1 Bft)
02.08.2017 16:38 27,2 °C 27,2 °C 58 % 1015,9 hPa 0,0 mm 3,6 km/h (1 Bft) NW 311 ° 0 min 0,000 mm 2,1 UV-I 88 W/m² 18,2 °C 27,2 °C 4,8 km/h (1 Bft)
02.08.2017 16:39 27,2 °C 27,2 °C 60 % 1015,9 hPa 0,0 mm 5,3 km/h (1 Bft) NW 321 ° 0 min 0,000 mm 2,2 UV-I 128 W/m² 18,7 °C 27,2 °C 8,0 km/h (2 Bft)
02.08.2017 16:40 27,2 °C 27,2 °C 59 % 1015,9 hPa 0,0 mm 3,6 km/h (1 Bft) N-NW 327 ° 0 min 0,000 mm 2,5 UV-I 107 W/m² 18,5 °C 27,2 °C 6,4 km/h (2 Bft)
02.08.2017 16:41 27,2 °C 27,2 °C 59 % 1015,9 hPa 0,0 mm 4,8 km/h (1 Bft) NW 317 ° 0 min 0,000 mm 2,2 UV-I 93 W/m² 18,5 °C 27,2 °C 6,4 km/h (2 Bft)
02.08.2017 16:42 27,3 °C 27,3 °C 59 % 1015,8 hPa 0,0 mm 4,1 km/h (1 Bft) N-NW 341 ° 0 min 0,000 mm 2,1 UV-I 83 W/m² 18,6 °C 27,3 °C 6,4 km/h (2 Bft)
02.08.2017 16:43 27,3 °C 27,3 °C 60 % 1015,9 hPa 0,0 mm 4,9 km/h (1 Bft) NW 319 ° 0 min 0,000 mm 2,0 UV-I 70 W/m² 18,8 °C 27,3 °C 6,4 km/h (2 Bft)
02.08.2017 16:44 27,3 °C 27,3 °C 59 % 1015,9 hPa 0,0 mm 3,2 km/h (1 Bft) NW 318 ° 0 min 0,000 mm 2,0 UV-I 70 W/m² 18,6 °C 27,3 °C 4,8 km/h (1 Bft)
02.08.2017 16:45 27,3 °C 27,3 °C 58 % 1015,8 hPa 0,0 mm 2,9 km/h (1 Bft) W-NW 294 ° 0 min 0,000 mm 2,0 UV-I 70 W/m² 18,3 °C 27,3 °C 4,8 km/h (1 Bft)
02.08.2017 16:46 27,3 °C 27,3 °C 58 % 1015,8 hPa 0,0 mm 2,1 km/h (1 Bft) NW 309 ° 0 min 0,000 mm 2,0 UV-I 84 W/m² 18,3 °C 27,3 °C 3,2 km/h (1 Bft)
02.08.2017 16:47 27,2 °C 27,3 °C 59 % 1015,8 hPa 0,0 mm 2,4 km/h (1 Bft) N 355 ° 0 min 0,000 mm 2,0 UV-I 90 W/m² 18,5 °C 27,2 °C 4,8 km/h (1 Bft)
02.08.2017 16:48 27,2 °C 27,2 °C 61 % 1015,8 hPa 0,0 mm 3,8 km/h (1 Bft) N-NW 340 ° 0 min 0,000 mm 2,0 UV-I 72 W/m² 19,0 °C 27,2 °C 6,4 km/h (2 Bft)
02.08.2017 16:49 27,3 °C 27,3 °C 62 % 1015,8 hPa 0,0 mm 4,9 km/h (1 Bft) N-NW 331 ° 0 min 0,000 mm 2,0 UV-I 69 W/m² 19,4 °C 27,3 °C 8,0 km/h (2 Bft)
02.08.2017 16:50 27,3 °C 27,3 °C 57 % 1015,8 hPa 0,0 mm 1,7 km/h (1 Bft) N-NW 331 ° 0 min 0,000 mm 2,0 UV-I 69 W/m² 18,0 °C 27,3 °C 3,2 km/h (1 Bft)
02.08.2017 16:51 27,2 °C 27,3 °C 58 % 1015,8 hPa 0,0 mm 2,4 km/h (1 Bft) N-NW 334 ° 0 min 0,000 mm 2,0 UV-I 69 W/m² 18,2 °C 27,2 °C 3,2 km/h (1 Bft)
02.08.2017 16:52 27,2 °C 27,2 °C 58 % 1015,9 hPa 0,0 mm 0,8 km/h (0 Bft) N-NW 334 ° 0 min 0,000 mm 1,9 UV-I 69 W/m² 18,2 °C 27,2 °C 1,6 km/h (1 Bft)
02.08.2017 16:53 27,2 °C 27,2 °C 58 % 1015,8 hPa 0,0 mm 2,5 km/h (1 Bft) N-NW 334 ° 0 min 0,000 mm 1,9 UV-I 67 W/m² 18,2 °C 27,2 °C 4,8 km/h (1 Bft)
02.08.2017 16:54 27,2 °C 27,2 °C 61 % 1015,8 hPa 0,0 mm 3,3 km/h (1 Bft) N-NW 332 ° 0 min 0,000 mm 1,9 UV-I 67 W/m² 19,0 °C 27,2 °C 4,8 km/h (1 Bft)
02.08.2017 16:55 27,2 °C 27,2 °C 60 % 1015,8 hPa 0,0 mm 5,0 km/h (1 Bft) N-NW 336 ° 0 min 0,000 mm 1,9 UV-I 67 W/m² 18,7 °C 27,2 °C 11,3 km/h (2 Bft)
02.08.2017 16:56 27,2 °C 27,2 °C 61 % 1015,8 hPa 0,0 mm 5,4 km/h (1 Bft) NW 323 ° 0 min 0,000 mm 1,9 UV-I 65 W/m² 19,0 °C 27,2 °C 6,4 km/h (2 Bft)
02.08.2017 16:57 27,2 °C 27,2 °C 62 % 1015,8 hPa 0,0 mm 3,6 km/h (1 Bft) N-NW 342 ° 0 min 0,000 mm 1,9 UV-I 65 W/m² 19,3 °C 27,2 °C 8,0 km/h (2 Bft)
02.08.2017 16:58 27,2 °C 27,2 °C 60 % 1015,8 hPa 0,0 mm 3,6 km/h (1 Bft) N 355 ° 0 min 0,000 mm 1,9 UV-I 65 W/m² 18,7 °C 27,2 °C 4,8 km/h (1 Bft)
02.08.2017 16:59 27,2 °C 27,2 °C 61 % 1015,8 hPa 0,0 mm 2,7 km/h (1 Bft) N 355 ° 0 min 0,000 mm 1,9 UV-I 65 W/m² 19,0 °C 27,2 °C 3,2 km/h (1 Bft)
02.08.2017 17:00 27,2 °C 27,2 °C 59 % 1015,7 hPa 0,0 mm 4,5 km/h (1 Bft) N-NW 336 ° 0 min 0,152 mm 1,9 UV-I 65 W/m² 18,5 °C 27,2 °C 8,0 km/h (2 Bft)
02.08.2017 17:01 27,3 °C 27,3 °C 58 % 1015,7 hPa 0,0 mm 4,8 km/h (1 Bft) N 5 ° 0 min 0,000 mm 1,8 UV-I 65 W/m² 18,3 °C 27,3 °C 6,4 km/h (2 Bft)
02.08.2017 17:02 27,3 °C 27,3 °C 57 % 1015,7 hPa 0,0 mm 3,0 km/h (1 Bft) N 5 ° 0 min 0,000 mm 1,8 UV-I 65 W/m² 18,0 °C 27,3 °C 4,8 km/h (1 Bft)
02.08.2017 17:03 27,3 °C 27,3 °C 58 % 1015,7 hPa 0,0 mm 3,2 km/h (1 Bft) N 5 ° 0 min 0,000 mm 1,8 UV-I 65 W/m² 18,3 °C 27,3 °C 8,0 km/h (2 Bft)
02.08.2017 17:04 27,3 °C 27,3 °C 57 % 1015,7 hPa 0,0 mm 5,0 km/h (1 Bft) N 5 ° 0 min 0,000 mm 1,8 UV-I 63 W/m² 18,0 °C 27,3 °C 8,0 km/h (2 Bft)
02.08.2017 17:05 27,3 °C 27,3 °C 57 % 1015,7 hPa 0,0 mm 2,2 km/h (1 Bft) N 5 ° 0 min 0,000 mm 1,8 UV-I 65 W/m² 18,0 °C 27,3 °C 3,2 km/h (1 Bft)
02.08.2017 17:06 27,3 °C 27,3 °C 58 % 1015,7 hPa 0,0 mm 0,2 km/h (0 Bft) N 5 ° 0 min 0,000 mm 1,8 UV-I 63 W/m² 18,3 °C 27,3 °C 3,2 km/h (1 Bft)
02.08.2017 17:07 27,3 °C 27,3 °C 58 % 1015,7 hPa 0,0 mm 1,7 km/h (1 Bft) N 5 ° 0 min 0,000 mm 1,8 UV-I 63 W/m² 18,3 °C 27,3 °C 4,8 km/h (1 Bft)
02.08.2017 17:08 27,2 °C 27,3 °C 59 % 1015,7 hPa 0,0 mm 3,0 km/h (1 Bft) N 5 ° 0 min 0,000 mm 1,8 UV-I 63 W/m² 18,5 °C 27,2 °C 4,8 km/h (1 Bft)
02.08.2017 17:09 27,2 °C 27,2 °C 61 % 1015,7 hPa 0,0 mm 5,0 km/h (1 Bft) W-NW 301 ° 0 min 0,000 mm 1,8 UV-I 63 W/m² 19,0 °C 27,2 °C 6,4 km/h (2 Bft)
02.08.2017 17:10 27,2 °C 27,2 °C 60 % 1015,7 hPa 0,0 mm 5,6 km/h (1 Bft) W-NW 300 ° 0 min 0,000 mm 1,8 UV-I 63 W/m² 18,7 °C 27,2 °C 8,0 km/h (2 Bft)
02.08.2017 17:11 27,2 °C 27,2 °C 60 % 1015,7 hPa 0,0 mm 4,5 km/h (1 Bft) W-NW 298 ° 0 min 0,000 mm 1,7 UV-I 62 W/m² 18,7 °C 27,2 °C 6,4 km/h (2 Bft)
02.08.2017 17:12 27,2 °C 27,2 °C 61 % 1015,8 hPa 0,0 mm 4,8 km/h (1 Bft) W 263 ° 0 min 0,000 mm 1,7 UV-I 63 W/m² 19,0 °C 27,2 °C 6,4 km/h (2 Bft)
02.08.2017 17:13 27,1 °C 27,2 °C 57 % 1015,7 hPa 0,0 mm 3,4 km/h (1 Bft) NW 316 ° 0 min 0,000 mm 1,7 UV-I 65 W/m² 17,8 °C 27,1 °C 4,8 km/h (1 Bft)
02.08.2017 17:14 27,1 °C 27,1 °C 58 % 1015,7 hPa 0,0 mm 6,6 km/h (2 Bft) N-NW 347 ° 0 min 0,000 mm 1,7 UV-I 65 W/m² 18,1 °C 27,1 °C 8,0 km/h (2 Bft)
02.08.2017 17:15 27,1 °C 27,1 °C 60 % 1015,8 hPa 0,0 mm 4,2 km/h (1 Bft) N-NW 345 ° 0 min 0,000 mm 1,7 UV-I 63 W/m² 18,6 °C 27,1 °C 6,4 km/h (2 Bft)
02.08.2017 17:16 27,1 °C 27,1 °C 59 % 1015,7 hPa 0,0 mm 2,7 km/h (1 Bft) N-NW 346 ° 0 min 0,000 mm 1,7 UV-I 63 W/m² 18,4 °C 27,1 °C 4,8 km/h (1 Bft)
02.08.2017 17:17 27,1 °C 27,2 °C 60 % 1015,7 hPa 0,0 mm 4,6 km/h (1 Bft) NW 323 ° 0 min 0,000 mm 1,7 UV-I 63 W/m² 18,6 °C 27,1 °C 4,8 km/h (1 Bft)
02.08.2017 17:18 27,2 °C 27,2 °C 59 % 1015,7 hPa 0,0 mm 1,6 km/h (1 Bft) NW 323 ° 0 min 0,000 mm 1,7 UV-I 63 W/m² 18,5 °C 27,2 °C 3,2 km/h (1 Bft)
02.08.2017 17:19 27,1 °C 27,2 °C 59 % 1015,7 hPa 0,0 mm 1,5 km/h (1 Bft) NW 323 ° 0 min 0,000 mm 1,7 UV-I 63 W/m² 18,4 °C 27,1 °C 3,2 km/h (1 Bft)
02.08.2017 17:20 27,1 °C 27,1 °C 59 % 1015,7 hPa 0,0 mm 1,5 km/h (1 Bft) NW 323 ° 0 min 0,000 mm 1,7 UV-I 62 W/m² 18,4 °C 27,1 °C 3,2 km/h (1 Bft)
02.08.2017 17:21 27,1 °C 27,1 °C 58 % 1015,8 hPa 0,0 mm 0,3 km/h (0 Bft) NW 323 ° 0 min 0,000 mm 1,7 UV-I 63 W/m² 18,1 °C 27,1 °C 1,6 km/h (1 Bft)
02.08.2017 17:22 27,0 °C 27,1 °C 59 % 1015,7 hPa 0,0 mm 0,0 km/h (0 Bft) NW 323 ° 0 min 0,000 mm 1,6 UV-I 62 W/m² 18,3 °C 27,0 °C 0,0 km/h (0 Bft)
02.08.2017 17:23 27,0 °C 27,1 °C 59 % 1015,7 hPa 0,0 mm 2,4 km/h (1 Bft) NW 322 ° 0 min 0,000 mm 1,6 UV-I 62 W/m² 18,3 °C 27,0 °C 4,8 km/h (1 Bft)
02.08.2017 17:24 27,0 °C 27,1 °C 57 % 1015,7 hPa 0,0 mm 2,2 km/h (1 Bft) NW 322 ° 0 min 0,000 mm 1,6 UV-I 62 W/m² 17,7 °C 27,0 °C 3,2 km/h (1 Bft)
02.08.2017 17:25 27,0 °C 27,1 °C 60 % 1015,7 hPa 0,0 mm 0,5 km/h (0 Bft) NW 322 ° 0 min 0,000 mm 1,6 UV-I 63 W/m² 18,6 °C 27,0 °C 1,6 km/h (1 Bft)
02.08.2017 17:26 27,1 °C 27,1 °C 62 % 1015,7 hPa 0,0 mm 3,6 km/h (1 Bft) N-NO 32 ° 0 min 0,000 mm 1,6 UV-I 86 W/m² 19,2 °C 27,1 °C 11,3 km/h (2 Bft)
02.08.2017 17:27 27,1 °C 27,1 °C 60 % 1015,7 hPa 0,0 mm 7,5 km/h (2 Bft) N-NO 28 ° 0 min 0,000 mm 1,6 UV-I 69 W/m² 18,6 °C 27,1 °C 12,9 km/h (3 Bft)
02.08.2017 17:28 27,1 °C 27,1 °C 59 % 1015,7 hPa 0,0 mm 4,1 km/h (1 Bft) N-NO 28 ° 0 min 0,000 mm 1,6 UV-I 69 W/m² 18,4 °C 27,1 °C 6,4 km/h (2 Bft)
02.08.2017 17:29 27,1 °C 27,2 °C 59 % 1015,7 hPa 0,0 mm 3,4 km/h (1 Bft) N-NO 29 ° 0 min 0,000 mm 1,6 UV-I 60 W/m² 18,4 °C 27,1 °C 4,8 km/h (1 Bft)
02.08.2017 17:30 27,2 °C 27,2 °C 58 % 1015,6 hPa 0,0 mm 2,7 km/h (1 Bft) N 5 ° 0 min 0,000 mm 1,6 UV-I 60 W/m² 18,2 °C 27,2 °C 4,8 km/h (1 Bft)
02.08.2017 17:31 27,1 °C 27,2 °C 56 % 1015,7 hPa 0,0 mm 0,9 km/h (0 Bft) N 5 ° 0 min 0,000 mm 1,6 UV-I 60 W/m² 17,5 °C 27,1 °C 3,2 km/h (1 Bft)
02.08.2017 17:32 27,1 °C 27,1 °C 56 % 1015,7 hPa 0,0 mm 0,2 km/h (0 Bft) N 5 ° 0 min 0,000 mm 1,6 UV-I 60 W/m² 17,5 °C 27,1 °C 1,6 km/h (1 Bft)
02.08.2017 17:33 27,1 °C 27,1 °C 57 % 1015,7 hPa 0,0 mm 0,0 km/h (0 Bft) N 5 ° 0 min 0,000 mm 1,5 UV-I 58 W/m² 17,8 °C 27,1 °C 0,0 km/h (0 Bft)
02.08.2017 17:34 27,0 °C 27,1 °C 57 % 1015,7 hPa 0,0 mm 1,1 km/h (1 Bft) N 5 ° 0 min 0,000 mm 1,5 UV-I 58 W/m² 17,7 °C 27,0 °C 3,2 km/h (1 Bft)
02.08.2017 17:35 27,0 °C 27,0 °C 59 % 1015,7 hPa 0,0 mm 1,2 km/h (1 Bft) N 5 ° 0 min 0,000 mm 1,5 UV-I 56 W/m² 18,3 °C 27,0 °C 1,6 km/h (1 Bft)
02.08.2017 17:36 26,9 °C 27,0 °C 57 % 1015,7 hPa 0,0 mm 0,0 km/h (0 Bft) N 5 ° 0 min 0,000 mm 1,5 UV-I 58 W/m² 17,6 °C 26,9 °C 0,0 km/h (0 Bft)
02.08.2017 17:37 26,9 °C 26,9 °C 62 % 1015,6 hPa 0,0 mm 0,0 km/h (0 Bft) N 5 ° 0 min 0,000 mm 1,5 UV-I 62 W/m² 19,0 °C 26,9 °C 0,0 km/h (0 Bft)
02.08.2017 17:38 26,8 °C 26,9 °C 64 % 1015,6 hPa 0,0 mm 0,0 km/h (0 Bft) N 5 ° 0 min 0,000 mm 1,5 UV-I 56 W/m² 19,4 °C 26,8 °C 0,0 km/h (0 Bft)
02.08.2017 17:39 26,7 °C 26,8 °C 68 % 1015,6 hPa 0,0 mm 0,5 km/h (0 Bft) N 5 ° 0 min 0,000 mm 1,5 UV-I 56 W/m² 20,3 °C 26,7 °C 1,6 km/h (1 Bft)
02.08.2017 17:40 26,7 °C 26,7 °C 62 % 1015,6 hPa 0,0 mm 1,2 km/h (1 Bft) N-NO 15 ° 0 min 0,000 mm 1,4 UV-I 56 W/m² 18,8 °C 26,7 °C 3,2 km/h (1 Bft)
02.08.2017 17:41 26,7 °C 26,7 °C 62 % 1015,6 hPa 0,0 mm 2,2 km/h (1 Bft) N-NO 15 ° 0 min 0,000 mm 1,4 UV-I 58 W/m² 18,8 °C 26,7 °C 3,2 km/h (1 Bft)
02.08.2017 17:42 26,7 °C 26,7 °C 64 % 1015,6 hPa 0,0 mm 2,6 km/h (1 Bft) NW 317 ° 0 min 0,000 mm 1,4 UV-I 58 W/m² 19,3 °C 26,7 °C 4,8 km/h (1 Bft)
02.08.2017 17:43 26,7 °C 26,7 °C 64 % 1015,6 hPa 0,0 mm 3,1 km/h (1 Bft) NW 311 ° 0 min 0,000 mm 1,4 UV-I 58 W/m² 19,3 °C 26,7 °C 4,8 km/h (1 Bft)
02.08.2017 17:44 26,8 °C 26,8 °C 60 % 1015,6 hPa 0,0 mm 1,9 km/h (1 Bft) N 11 ° 0 min 0,000 mm 1,4 UV-I 58 W/m² 18,4 °C 26,8 °C 4,8 km/h (1 Bft)
02.08.2017 17:45 26,8 °C 26,8 °C 63 % 1015,5 hPa 0,0 mm 3,6 km/h (1 Bft) N-NO 18 ° 0 min 0,000 mm 1,4 UV-I 56 W/m² 19,1 °C 26,8 °C 6,4 km/h (2 Bft)
02.08.2017 17:46 26,9 °C 26,9 °C 61 % 1015,5 hPa 0,0 mm 4,5 km/h (1 Bft) N-NO 15 ° 0 min 0,000 mm 1,4 UV-I 56 W/m² 18,7 °C 26,9 °C 6,4 km/h (2 Bft)
02.08.2017 17:47 26,9 °C 26,9 °C 63 % 1015,6 hPa 0,0 mm 1,9 km/h (1 Bft) N-NO 17 ° 0 min 0,000 mm 1,4 UV-I 58 W/m² 19,2 °C 26,9 °C 4,8 km/h (1 Bft)
02.08.2017 17:48 27,1 °C 27,1 °C 57 % 1015,5 hPa 0,0 mm 3,4 km/h (1 Bft) N-NO 17 ° 0 min 0,000 mm 1,4 UV-I 56 W/m² 17,8 °C 27,1 °C 6,4 km/h (2 Bft)
02.08.2017 17:49 27,1 °C 27,1 °C 60 % 1015,5 hPa 0,0 mm 2,9 km/h (1 Bft) N-NO 17 ° 0 min 0,000 mm 1,4 UV-I 56 W/m² 18,6 °C 27,1 °C 4,8 km/h (1 Bft)
02.08.2017 17:50 27,2 °C 27,2 °C 57 % 1015,5 hPa 0,0 mm 1,4 km/h (1 Bft) N-NO 17 ° 0 min 0,000 mm 1,4 UV-I 56 W/m² 17,9 °C 27,2 °C 4,8 km/h (1 Bft)
02.08.2017 17:51 27,2 °C 27,2 °C 59 % 1015,5 hPa 0,0 mm 4,0 km/h (1 Bft) NW 315 ° 0 min 0,000 mm 1,3 UV-I 56 W/m² 18,5 °C 27,2 °C 6,4 km/h (2 Bft)
02.08.2017 17:52 27,2 °C 27,2 °C 62 % 1015,5 hPa 0,0 mm 4,8 km/h (1 Bft) NW 318 ° 0 min 0,000 mm 1,3 UV-I 56 W/m² 19,3 °C 27,2 °C 6,4 km/h (2 Bft)
02.08.2017 17:53 27,2 °C 27,2 °C 60 % 1015,5 hPa 0,0 mm 4,6 km/h (1 Bft) NW 312 ° 0 min 0,000 mm 1,3 UV-I 56 W/m² 18,7 °C 27,2 °C 6,4 km/h (2 Bft)
02.08.2017 17:54 27,2 °C 27,2 °C 61 % 1015,5 hPa 0,0 mm 3,1 km/h (1 Bft) NW 312 ° 0 min 0,000 mm 1,3 UV-I 56 W/m² 19,0 °C 27,2 °C 6,4 km/h (2 Bft)
02.08.2017 17:55 27,2 °C 27,2 °C 60 % 1015,5 hPa 0,0 mm 1,0 km/h (0 Bft) NW 312 ° 0 min 0,000 mm 1,3 UV-I 56 W/m² 18,7 °C 27,2 °C 3,2 km/h (1 Bft)
02.08.2017 17:56 27,2 °C 27,2 °C 58 % 1015,5 hPa 0,0 mm 0,0 km/h (0 Bft) NW 312 ° 0 min 0,000 mm 1,3 UV-I 58 W/m² 18,2 °C 27,2 °C 0,0 km/h (0 Bft)
02.08.2017 17:57 27,2 °C 27,2 °C 58 % 1015,5 hPa 0,0 mm 3,6 km/h (1 Bft) NW 312 ° 0 min 0,000 mm 1,3 UV-I 58 W/m² 18,2 °C 27,2 °C 6,4 km/h (2 Bft)
02.08.2017 17:58 27,1 °C 27,2 °C 60 % 1015,5 hPa 0,0 mm 3,5 km/h (1 Bft) NW 311 ° 0 min 0,000 mm 1,3 UV-I 58 W/m² 18,6 °C 27,1 °C 4,8 km/h (1 Bft)
02.08.2017 17:59 27,1 °C 27,2 °C 56 % 1015,5 hPa 0,0 mm 1,9 km/h (1 Bft) NW 311 ° 0 min 0,000 mm 1,3 UV-I 58 W/m² 17,5 °C 27,1 °C 3,2 km/h (1 Bft)
02.08.2017 18:00 27,1 °C 27,2 °C 56 % 1015,5 hPa 0,0 mm 1,7 km/h (1 Bft) NW 311 ° 0 min 0,000 mm 1,3 UV-I 60 W/m² 17,5 °C 27,1 °C 3,2 km/h (1 Bft)
02.08.2017 18:01 27,1 °C 27,1 °C 56 % 1015,5 hPa 0,0 mm 0,3 km/h (0 Bft) NW 311 ° 0 min 0,077 mm 1,3 UV-I 60 W/m² 17,5 °C 27,1 °C 1,6 km/h (1 Bft)
02.08.2017 18:02 27,1 °C 27,1 °C 57 % 1015,5 hPa 0,0 mm 1,2 km/h (1 Bft) NW 311 ° 0 min 0,000 mm 1,3 UV-I 62 W/m² 17,8 °C 27,1 °C 3,2 km/h (1 Bft)
02.08.2017 18:03 27,1 °C 27,1 °C 60 % 1015,5 hPa 0,0 mm 1,5 km/h (1 Bft) NW 311 ° 0 min 0,000 mm 1,3 UV-I 62 W/m² 18,6 °C 27,1 °C 4,8 km/h (1 Bft)
02.08.2017 18:04 27,1 °C 27,1 °C 59 % 1015,5 hPa 0,0 mm 1,9 km/h (1 Bft) NW 311 ° 0 min 0,000 mm 1,3 UV-I 62 W/m² 18,4 °C 27,1 °C 4,8 km/h (1 Bft)
02.08.2017 18:05 27,1 °C 27,1 °C 56 % 1015,5 hPa 0,0 mm 0,0 km/h (0 Bft) NW 311 ° 0 min 0,000 mm 1,3 UV-I 62 W/m² 17,5 °C 27,1 °C 0,0 km/h (0 Bft)
02.08.2017 18:06 27,1 °C 27,2 °C 58 % 1015,5 hPa 0,0 mm 0,6 km/h (0 Bft) NW 311 ° 0 min 0,000 mm 1,3 UV-I 62 W/m² 18,1 °C 27,1 °C 1,6 km/h (1 Bft)
02.08.2017 18:07 27,0 °C 27,1 °C 56 % 1015,5 hPa 0,0 mm 0,9 km/h (0 Bft) NW 311 ° 0 min 0,000 mm 1,3 UV-I 62 W/m² 17,5 °C 27,0 °C 1,6 km/h (1 Bft)
02.08.2017 18:09 26,9 °C 27,0 °C 58 % 1015,5 hPa 0,0 mm 0,1 km/h (0 Bft) NW 311 ° 0 min 0,000 mm 1,2 UV-I 58 W/m² 17,9 °C 26,9 °C 1,6 km/h (1 Bft)
02.08.2017 18:10 26,9 °C 26,9 °C 58 % 1015,5 hPa 0,0 mm 0,0 km/h (0 Bft) NW 311 ° 0 min 0,000 mm 1,2 UV-I 58 W/m² 17,9 °C 26,9 °C 0,0 km/h (0 Bft)
02.08.2017 18:11 26,9 °C 26,9 °C 61 % 1015,5 hPa 0,0 mm 0,1 km/h (0 Bft) NW 311 ° 0 min 0,000 mm 1,2 UV-I 60 W/m² 18,7 °C 26,9 °C 1,6 km/h (1 Bft)
02.08.2017 18:12 26,8 °C 26,9 °C 66 % 1015,5 hPa 0,0 mm 0,1 km/h (0 Bft) NW 311 ° 0 min 0,000 mm 1,2 UV-I 62 W/m² 19,9 °C 26,8 °C 1,6 km/h (1 Bft)
02.08.2017 18:13 26,7 °C 26,8 °C 66 % 1015,5 hPa 0,0 mm 0,3 km/h (0 Bft) NW 311 ° 0 min 0,000 mm 1,2 UV-I 72 W/m² 19,8 °C 26,7 °C 1,6 km/h (1 Bft)
02.08.2017 18:14 26,5 °C 26,7 °C 64 % 1015,4 hPa 0,0 mm 0,0 km/h (0 Bft) NW 311 ° 0 min 0,000 mm 1,2 UV-I 74 W/m² 19,1 °C 26,5 °C 0,0 km/h (0 Bft)
02.08.2017 18:15 26,4 °C 26,5 °C 64 % 1015,4 hPa 0,0 mm 0,0 km/h (0 Bft) NW 311 ° 0 min 0,000 mm 1,2 UV-I 70 W/m² 19,0 °C 26,4 °C 0,0 km/h (0 Bft)
02.08.2017 18:16 26,3 °C 26,4 °C 62 % 1015,4 hPa 0,0 mm 0,0 km/h (0 Bft) NW 311 ° 0 min 0,000 mm 1,2 UV-I 77 W/m² 18,4 °C 26,3 °C 0,0 km/h (0 Bft)
02.08.2017 18:17 26,3 °C 26,3 °C 63 % 1015,4 hPa 0,0 mm 0,0 km/h (0 Bft) NW 311 ° 0 min 0,000 mm 1,2 UV-I 76 W/m² 18,7 °C 26,3 °C 0,0 km/h (0 Bft)
02.08.2017 18:18 26,3 °C 26,3 °C 64 % 1015,5 hPa 0,0 mm 0,1 km/h (0 Bft) NW 311 ° 0 min 0,000 mm 1,2 UV-I 79 W/m² 18,9 °C 26,3 °C 1,6 km/h (1 Bft)
02.08.2017 18:19 26,4 °C 26,4 °C 62 % 1015,5 hPa 0,0 mm 0,9 km/h (0 Bft) NW 311 ° 0 min 0,000 mm 1,2 UV-I 91 W/m² 18,5 °C 26,4 °C 3,2 km/h (1 Bft)
02.08.2017 18:20 26,4 °C 26,4 °C 65 % 1015,4 hPa 0,0 mm 1,9 km/h (1 Bft) NW 311 ° 0 min 0,000 mm 1,2 UV-I 95 W/m² 19,3 °C 26,4 °C 3,2 km/h (1 Bft)
02.08.2017 18:21 26,4 °C 26,4 °C 63 % 1015,4 hPa 0,0 mm 2,0 km/h (1 Bft) NO 36 ° 0 min 0,000 mm 1,1 UV-I 74 W/m² 18,8 °C 26,4 °C 4,8 km/h (1 Bft)
02.08.2017 18:22 26,4 °C 26,4 °C 61 % 1015,4 hPa 0,0 mm 1,7 km/h (1 Bft) NO 36 ° 0 min 0,000 mm 1,1 UV-I 74 W/m² 18,3 °C 26,4 °C 3,2 km/h (1 Bft)
02.08.2017 18:23 26,4 °C 26,5 °C 63 % 1015,4 hPa 0,0 mm 0,0 km/h (0 Bft) NO 36 ° 0 min 0,000 mm 1,1 UV-I 60 W/m² 18,8 °C 26,4 °C 0,0 km/h (0 Bft)
02.08.2017 18:24 26,5 °C 26,5 °C 64 % 1015,5 hPa 0,0 mm 0,4 km/h (0 Bft) NO 36 ° 0 min 0,000 mm 1,1 UV-I 58 W/m² 19,1 °C 26,5 °C 1,6 km/h (1 Bft)
02.08.2017 18:25 26,4 °C 26,5 °C 64 % 1015,5 hPa 0,0 mm 0,1 km/h (0 Bft) NO 36 ° 0 min 0,000 mm 1,1 UV-I 58 W/m² 19,0 °C 26,4 °C 1,6 km/h (1 Bft)
02.08.2017 18:26 26,4 °C 26,4 °C 58 % 1015,4 hPa 0,0 mm 0,0 km/h (0 Bft) NO 36 ° 0 min 0,000 mm 1,1 UV-I 58 W/m² 17,5 °C 26,4 °C 0,0 km/h (0 Bft)
02.08.2017 18:27 26,5 °C 26,5 °C 57 % 1015,5 hPa 0,0 mm 0,0 km/h (0 Bft) NO 36 ° 0 min 0,000 mm 1,1 UV-I 62 W/m² 17,3 °C 26,5 °C 0,0 km/h (0 Bft)
02.08.2017 18:28 26,6 °C 26,6 °C 61 % 1015,5 hPa 0,0 mm 0,0 km/h (0 Bft) NO 36 ° 0 min 0,000 mm 1,1 UV-I 60 W/m² 18,4 °C 26,6 °C 0,0 km/h (0 Bft)
02.08.2017 18:29 26,6 °C 26,6 °C 58 % 1015,5 hPa 0,0 mm 0,0 km/h (0 Bft) NO 36 ° 0 min 0,000 mm 1,0 UV-I 58 W/m² 17,6 °C 26,6 °C 0,0 km/h (0 Bft)
02.08.2017 18:30 26,6 °C 26,6 °C 58 % 1015,5 hPa 0,0 mm 0,0 km/h (0 Bft) NO 36 ° 0 min 0,000 mm 0,0 UV-I 54 W/m² 17,6 °C 26,6 °C 0,0 km/h (0 Bft)
02.08.2017 18:31 26,7 °C 26,7 °C 58 % 1015,5 hPa 0,0 mm 0,0 km/h (0 Bft) NO 36 ° 0 min 0,000 mm 0,0 UV-I 51 W/m² 17,7 °C 26,7 °C 0,0 km/h (0 Bft)
02.08.2017 18:32 26,6 °C 26,7 °C 59 % 1015,5 hPa 0,0 mm 0,0 km/h (0 Bft) NO 36 ° 0 min 0,000 mm 0,0 UV-I 49 W/m² 17,9 °C 26,6 °C 0,0 km/h (0 Bft)
02.08.2017 18:33 26,4 °C 26,6 °C 59 % 1015,5 hPa 0,0 mm 0,0 km/h (0 Bft) NO 36 ° 0 min 0,000 mm 0,0 UV-I 47 W/m² 17,7 °C 26,4 °C 0,0 km/h (0 Bft)
02.08.2017 18:34 26,3 °C 26,4 °C 64 % 1015,5 hPa 0,0 mm 0,0 km/h (0 Bft) NO 36 ° 0 min 0,000 mm 0,0 UV-I 49 W/m² 18,9 °C 26,3 °C 0,0 km/h (0 Bft)
02.08.2017 18:35 26,1 °C 26,3 °C 67 % 1015,4 hPa 0,0 mm 0,0 km/h (0 Bft) NO 36 ° 0 min 0,000 mm 0,0 UV-I 49 W/m² 19,5 °C 26,1 °C 0,0 km/h (0 Bft)
02.08.2017 18:36 25,8 °C 26,1 °C 69 % 1015,5 hPa 0,0 mm 0,0 km/h (0 Bft) NO 36 ° 0 min 0,000 mm 0,0 UV-I 49 W/m² 19,7 °C 25,8 °C 0,0 km/h (0 Bft)
02.08.2017 18:37 25,7 °C 25,8 °C 66 % 1015,4 hPa 0,0 mm 0,0 km/h (0 Bft) NO 36 ° 0 min 0,000 mm 0,0 UV-I 49 W/m² 18,9 °C 25,7 °C 0,0 km/h (0 Bft)
02.08.2017 18:38 25,6 °C 25,7 °C 65 % 1015,4 hPa 0,0 mm 0,0 km/h (0 Bft) NO 36 ° 0 min 0,000 mm 0,0 UV-I 49 W/m² 18,5 °C 25,6 °C 0,0 km/h (0 Bft)
02.08.2017 18:39 25,6 °C 25,7 °C 65 % 1015,5 hPa 0,0 mm 0,0 km/h (0 Bft) NO 36 ° 0 min 0,000 mm 0,0 UV-I 51 W/m² 18,5 °C 25,6 °C 0,0 km/h (0 Bft)
02.08.2017 18:40 25,7 °C 25,7 °C 65 % 1015,4 hPa 0,0 mm 0,0 km/h (0 Bft) NO 36 ° 0 min 0,000 mm 0,0 UV-I 51 W/m² 18,6 °C 25,7 °C 0,0 km/h (0 Bft)
02.08.2017 18:41 25,8 °C 25,8 °C 65 % 1015,5 hPa 0,0 mm 0,0 km/h (0 Bft) NO 36 ° 0 min 0,000 mm 0,0 UV-I 49 W/m² 18,7 °C 25,8 °C 0,0 km/h (0 Bft)
02.08.2017 18:42 25,8 °C 25,8 °C 66 % 1015,4 hPa 0,0 mm 1,0 km/h (0 Bft) NO 36 ° 0 min 0,000 mm 0,0 UV-I 47 W/m² 19,0 °C 25,8 °C 1,6 km/h (1 Bft)
02.08.2017 18:43 25,9 °C 25,9 °C 66 % 1015,4 hPa 0,0 mm 0,2 km/h (0 Bft) NO 36 ° 0 min 0,000 mm 0,0 UV-I 49 W/m² 19,0 °C 25,9 °C 1,6 km/h (1 Bft)
02.08.2017 18:44 25,9 °C 25,9 °C 65 % 1015,4 hPa 0,0 mm 0,0 km/h (0 Bft) NO 36 ° 0 min 0,000 mm 0,0 UV-I 49 W/m² 18,8 °C 25,9 °C 0,0 km/h (0 Bft)
02.08.2017 18:45 25,9 °C 25,9 °C 66 % 1015,5 hPa 0,0 mm 0,0 km/h (0 Bft) NO 36 ° 0 min 0,000 mm 0,0 UV-I 51 W/m² 19,0 °C 25,9 °C 0,0 km/h (0 Bft)
02.08.2017 18:46 25,9 °C 25,9 °C 68 % 1015,4 hPa 0,0 mm 0,0 km/h (0 Bft) NO 36 ° 0 min 0,000 mm 0,0 UV-I 51 W/m² 19,5 °C 25,9 °C 0,0 km/h (0 Bft)
02.08.2017 18:47 25,8 °C 25,9 °C 67 % 1015,4 hPa 0,0 mm 0,0 km/h (0 Bft) NO 36 ° 0 min 0,000 mm 0,0 UV-I 51 W/m² 19,2 °C 25,8 °C 0,0 km/h (0 Bft)
02.08.2017 18:49 25,8 °C 25,8 °C 68 % 1015,4 hPa 0,0 mm 0,0 km/h (0 Bft) NO 36 ° 0 min 0,000 mm 0,8 UV-I 56 W/m² 19,4 °C 25,8 °C 0,0 km/h (0 Bft)
02.08.2017 18:50 25,8 °C 25,8 °C 68 % 1015,4 hPa 0,0 mm 0,0 km/h (0 Bft) NO 36 ° 0 min 0,000 mm 0,8 UV-I 56 W/m² 19,4 °C 25,8 °C 0,0 km/h (0 Bft)
02.08.2017 18:51 25,8 °C 25,8 °C 66 % 1015,4 hPa 0,0 mm 0,0 km/h (0 Bft) NO 36 ° 0 min 0,000 mm 0,8 UV-I 62 W/m² 19,0 °C 25,8 °C 0,0 km/h (0 Bft)
02.08.2017 18:52 25,8 °C 25,8 °C 67 % 1015,4 hPa 0,0 mm 0,0 km/h (0 Bft) NO 36 ° 0 min 0,000 mm 0,8 UV-I 77 W/m² 19,2 °C 25,8 °C 0,0 km/h (0 Bft)
02.08.2017 18:54 25,8 °C 25,9 °C 68 % 1015,4 hPa 0,0 mm 0,0 km/h (0 Bft) NO 36 ° 0 min 0,000 mm 0,0 UV-I 53 W/m² 19,4 °C 25,8 °C 0,0 km/h (0 Bft)
02.08.2017 18:55 25,8 °C 25,8 °C 67 % 1015,4 hPa 0,0 mm 0,0 km/h (0 Bft) NO 36 ° 0 min 0,000 mm 0,0 UV-I 49 W/m² 19,2 °C 25,8 °C 0,0 km/h (0 Bft)
02.08.2017 18:56 25,8 °C 25,8 °C 67 % 1015,4 hPa 0,0 mm 0,0 km/h (0 Bft) NO 36 ° 0 min 0,000 mm 0,0 UV-I 49 W/m² 19,2 °C 25,8 °C 0,0 km/h (0 Bft)
02.08.2017 18:57 25,8 °C 25,8 °C 66 % 1015,4 hPa 0,0 mm 0,0 km/h (0 Bft) NO 36 ° 0 min 0,000 mm 0,0 UV-I 51 W/m² 19,0 °C 25,8 °C 0,0 km/h (0 Bft)
02.08.2017 18:58 25,8 °C 25,8 °C 64 % 1015,4 hPa 0,0 mm 0,0 km/h (0 Bft) NO 36 ° 0 min 0,000 mm 0,0 UV-I 54 W/m² 18,5 °C 25,8 °C 0,0 km/h (0 Bft)
02.08.2017 18:59 25,7 °C 25,8 °C 68 % 1015,4 hPa 0,0 mm 0,0 km/h (0 Bft) NO 36 ° 0 min 0,000 mm 0,7 UV-I 65 W/m² 19,3 °C 25,7 °C 0,0 km/h (0 Bft)
02.08.2017 19:00 25,6 °C 25,7 °C 69 % 1015,4 hPa 0,0 mm 0,0 km/h (0 Bft) NO 36 ° 0 min 0,000 mm 0,7 UV-I 86 W/m² 19,5 °C 25,6 °C 0,0 km/h (0 Bft)
02.08.2017 19:01 25,4 °C 25,6 °C 68 % 1015,4 hPa 0,0 mm 0,0 km/h (0 Bft) NO 36 ° 0 min 0,050 mm 0,7 UV-I 118 W/m² 19,1 °C 25,4 °C 0,0 km/h (0 Bft)
02.08.2017 19:02 25,3 °C 25,4 °C 68 % 1015,4 hPa 0,0 mm 1,2 km/h (1 Bft) NO 36 ° 0 min 0,000 mm 0,8 UV-I 142 W/m² 19,0 °C 25,3 °C 3,2 km/h (1 Bft)
02.08.2017 19:03 25,2 °C 25,3 °C 68 % 1015,4 hPa 0,0 mm 0,7 km/h (0 Bft) NO 42 ° 0 min 0,000 mm 0,8 UV-I 142 W/m² 18,9 °C 25,2 °C 3,2 km/h (1 Bft)
02.08.2017 19:04 25,2 °C 25,2 °C 66 % 1015,3 hPa 0,0 mm 0,8 km/h (0 Bft) NO 42 ° 0 min 0,000 mm 0,7 UV-I 139 W/m² 18,4 °C 25,2 °C 1,6 km/h (1 Bft)
02.08.2017 19:05 25,2 °C 25,3 °C 68 % 1015,4 hPa 0,0 mm 0,0 km/h (0 Bft) NO 42 ° 0 min 0,000 mm 0,7 UV-I 144 W/m² 18,9 °C 25,2 °C 0,0 km/h (0 Bft)
02.08.2017 19:06 25,2 °C 25,3 °C 71 % 1015,4 hPa 0,0 mm 0,0 km/h (0 Bft) NO 42 ° 0 min 0,000 mm 0,7 UV-I 91 W/m² 19,6 °C 25,2 °C 0,0 km/h (0 Bft)
02.08.2017 19:07 25,3 °C 25,3 °C 72 % 1015,4 hPa 0,0 mm 0,7 km/h (0 Bft) NO 42 ° 0 min 0,000 mm 0,7 UV-I 86 W/m² 19,9 °C 25,3 °C 1,6 km/h (1 Bft)
02.08.2017 19:08 25,3 °C 25,3 °C 69 % 1015,4 hPa 0,0 mm 0,0 km/h (0 Bft) NO 42 ° 0 min 0,000 mm 0,7 UV-I 72 W/m² 19,2 °C 25,3 °C 0,0 km/h (0 Bft)
02.08.2017 19:09 25,3 °C 25,3 °C 70 % 1015,4 hPa 0,0 mm 0,0 km/h (0 Bft) NO 42 ° 0 min 0,000 mm 0,7 UV-I 63 W/m² 19,4 °C 25,3 °C 0,0 km/h (0 Bft)
02.08.2017 19:10 25,5 °C 25,5 °C 71 % 1015,4 hPa 0,0 mm 1,0 km/h (0 Bft) NO 42 ° 0 min 0,000 mm 0,7 UV-I 62 W/m² 19,8 °C 25,5 °C 3,2 km/h (1 Bft)
02.08.2017 19:11 25,4 °C 25,5 °C 70 % 1015,4 hPa 0,0 mm 1,7 km/h (1 Bft) NO 42 ° 0 min 0,000 mm 0,7 UV-I 69 W/m² 19,5 °C 25,4 °C 3,2 km/h (1 Bft)
02.08.2017 19:12 25,5 °C 25,5 °C 68 % 1015,4 hPa 0,0 mm 1,0 km/h (0 Bft) NO 42 ° 0 min 0,000 mm 0,7 UV-I 76 W/m² 19,1 °C 25,5 °C 3,2 km/h (1 Bft)
02.08.2017 19:13 25,5 °C 25,5 °C 68 % 1015,4 hPa 0,0 mm 0,0 km/h (0 Bft) NO 42 ° 0 min 0,000 mm 0,6 UV-I 63 W/m² 19,1 °C 25,5 °C 0,0 km/h (0 Bft)
02.08.2017 19:14 25,5 °C 25,5 °C 69 % 1015,4 hPa 0,0 mm 0,0 km/h (0 Bft) NO 42 ° 0 min 0,000 mm 0,6 UV-I 69 W/m² 19,4 °C 25,5 °C 0,0 km/h (0 Bft)
02.08.2017 19:15 25,4 °C 25,5 °C 69 % 1015,4 hPa 0,0 mm 0,0 km/h (0 Bft) NO 42 ° 0 min 0,000 mm 0,6 UV-I 67 W/m² 19,3 °C 25,4 °C 0,0 km/h (0 Bft)
02.08.2017 19:16 25,4 °C 25,5 °C 69 % 1015,3 hPa 0,0 mm 0,0 km/h (0 Bft) NO 42 ° 0 min 0,000 mm 0,6 UV-I 60 W/m² 19,3 °C 25,4 °C 0,0 km/h (0 Bft)
02.08.2017 19:17 25,5 °C 25,5 °C 68 % 1015,3 hPa 0,0 mm 0,0 km/h (0 Bft) NO 42 ° 0 min 0,000 mm 0,6 UV-I 58 W/m² 19,1 °C 25,5 °C 0,0 km/h (0 Bft)
02.08.2017 19:18 25,5 °C 25,5 °C 69 % 1015,3 hPa 0,0 mm 0,0 km/h (0 Bft) NO 42 ° 0 min 0,000 mm 0,6 UV-I 62 W/m² 19,4 °C 25,5 °C 0,0 km/h (0 Bft)
02.08.2017 19:19 25,4 °C 25,5 °C 70 % 1015,3 hPa 0,0 mm 0,0 km/h (0 Bft) NO 42 ° 0 min 0,000 mm 0,6 UV-I 60 W/m² 19,5 °C 25,4 °C 0,0 km/h (0 Bft)
02.08.2017 19:20 25,3 °C 25,4 °C 70 % 1015,3 hPa 0,0 mm 0,0 km/h (0 Bft) NO 42 ° 0 min 0,000 mm 0,6 UV-I 58 W/m² 19,4 °C 25,3 °C 0,0 km/h (0 Bft)
02.08.2017 19:21 25,3 °C 25,4 °C 69 % 1015,3 hPa 0,0 mm 0,0 km/h (0 Bft) NO 42 ° 0 min 0,000 mm 0,6 UV-I 65 W/m² 19,2 °C 25,3 °C 0,0 km/h (0 Bft)
02.08.2017 19:22 25,2 °C 25,3 °C 73 % 1015,3 hPa 0,0 mm 0,0 km/h (0 Bft) NO 42 ° 0 min 0,000 mm 0,6 UV-I 65 W/m² 20,0 °C 25,2 °C 0,0 km/h (0 Bft)
02.08.2017 19:23 25,1 °C 25,2 °C 74 % 1015,3 hPa 0,0 mm 0,0 km/h (0 Bft) NO 42 ° 0 min 0,000 mm 0,6 UV-I 65 W/m² 20,1 °C 25,1 °C 0,0 km/h (0 Bft)
02.08.2017 19:24 24,9 °C 25,1 °C 74 % 1015,3 hPa 0,0 mm 0,0 km/h (0 Bft) NO 42 ° 0 min 0,000 mm 0,6 UV-I 62 W/m² 19,9 °C 24,9 °C 0,0 km/h (0 Bft)
02.08.2017 19:25 24,8 °C 24,9 °C 74 % 1015,3 hPa 0,0 mm 0,0 km/h (0 Bft) NO 42 ° 0 min 0,000 mm 0,5 UV-I 62 W/m² 19,8 °C 24,8 °C 0,0 km/h (0 Bft)
02.08.2017 19:26 24,8 °C 24,8 °C 75 % 1015,3 hPa 0,0 mm 0,0 km/h (0 Bft) NO 42 ° 0 min 0,000 mm 0,5 UV-I 60 W/m² 20,1 °C 24,8 °C 0,0 km/h (0 Bft)
02.08.2017 19:27 24,7 °C 24,8 °C 75 % 1015,2 hPa 0,0 mm 0,0 km/h (0 Bft) NO 42 ° 0 min 0,000 mm 0,5 UV-I 63 W/m² 20,0 °C 24,7 °C 0,0 km/h (0 Bft)
02.08.2017 19:28 24,8 °C 24,8 °C 74 % 1015,2 hPa 0,0 mm 0,0 km/h (0 Bft) NO 42 ° 0 min 0,000 mm 0,5 UV-I 67 W/m² 19,8 °C 24,8 °C 0,0 km/h (0 Bft)
02.08.2017 19:29 24,8 °C 24,8 °C 73 % 1015,2 hPa 0,0 mm 0,0 km/h (0 Bft) NO 42 ° 0 min 0,000 mm 0,5 UV-I 63 W/m² 19,6 °C 24,8 °C 0,0 km/h (0 Bft)
02.08.2017 19:30 24,8 °C 24,8 °C 73 % 1015,2 hPa 0,0 mm 0,0 km/h (0 Bft) NO 42 ° 0 min 0,000 mm 0,5 UV-I 58 W/m² 19,6 °C 24,8 °C 0,0 km/h (0 Bft)
02.08.2017 19:31 24,8 °C 24,8 °C 73 % 1015,2 hPa 0,0 mm 0,0 km/h (0 Bft) NO 42 ° 0 min 0,000 mm 0,5 UV-I 56 W/m² 19,6 °C 24,8 °C 0,0 km/h (0 Bft)
02.08.2017 19:32 24,9 °C 24,9 °C 72 % 1015,2 hPa 0,0 mm 0,0 km/h (0 Bft) NO 42 ° 0 min 0,000 mm 0,5 UV-I 56 W/m² 19,5 °C 24,9 °C 0,0 km/h (0 Bft)
02.08.2017 19:33 24,9 °C 24,9 °C 73 % 1015,2 hPa 0,0 mm 0,0 km/h (0 Bft) NO 42 ° 0 min 0,000 mm 0,5 UV-I 56 W/m² 19,7 °C 24,9 °C 0,0 km/h (0 Bft)
02.08.2017 19:34 24,9 °C 24,9 °C 72 % 1015,2 hPa 0,0 mm 0,0 km/h (0 Bft) NO 42 ° 0 min 0,000 mm 0,5 UV-I 62 W/m² 19,5 °C 24,9 °C 0,0 km/h (0 Bft)
02.08.2017 19:35 24,9 °C 24,9 °C 72 % 1015,2 hPa 0,0 mm 2,3 km/h (1 Bft) NO 42 ° 0 min 0,000 mm 0,5 UV-I 62 W/m² 19,5 °C 24,9 °C 3,2 km/h (1 Bft)
02.08.2017 19:36 24,9 °C 24,9 °C 71 % 1015,2 hPa 0,0 mm 1,5 km/h (1 Bft) NO 42 ° 0 min 0,000 mm 0,5 UV-I 58 W/m² 19,3 °C 24,9 °C 3,2 km/h (1 Bft)
02.08.2017 19:37 24,9 °C 24,9 °C 72 % 1015,2 hPa 0,0 mm 2,6 km/h (1 Bft) NO 42 ° 0 min 0,000 mm 0,5 UV-I 62 W/m² 19,5 °C 24,9 °C 3,2 km/h (1 Bft)
02.08.2017 19:38 24,9 °C 25,0 °C 71 % 1015,2 hPa 0,0 mm 1,8 km/h (1 Bft) NO 42 ° 0 min 0,000 mm 0,5 UV-I 58 W/m² 19,3 °C 24,9 °C 3,2 km/h (1 Bft)
02.08.2017 19:39 24,9 °C 24,9 °C 70 % 1015,2 hPa 0,0 mm 1,2 km/h (1 Bft) NO 42 ° 0 min 0,000 mm 0,0 UV-I 53 W/m² 19,0 °C 24,9 °C 1,6 km/h (1 Bft)
02.08.2017 19:40 24,9 °C 24,9 °C 70 % 1015,2 hPa 0,0 mm 1,0 km/h (0 Bft) NO 42 ° 0 min 0,000 mm 0,0 UV-I 53 W/m² 19,0 °C 24,9 °C 3,2 km/h (1 Bft)
02.08.2017 19:41 24,9 °C 24,9 °C 69 % 1015,2 hPa 0,0 mm 0,6 km/h (0 Bft) NO 42 ° 0 min 0,000 mm 0,0 UV-I 62 W/m² 18,8 °C 24,9 °C 1,6 km/h (1 Bft)
02.08.2017 19:42 24,9 °C 25,0 °C 71 % 1015,2 hPa 0,0 mm 0,9 km/h (0 Bft) NO 42 ° 0 min 0,000 mm 0,0 UV-I 81 W/m² 19,3 °C 24,9 °C 1,6 km/h (1 Bft)
02.08.2017 19:43 25,0 °C 25,0 °C 70 % 1015,2 hPa 0,0 mm 0,0 km/h (0 Bft) NO 42 ° 0 min 0,000 mm 0,0 UV-I 93 W/m² 19,1 °C 25,0 °C 0,0 km/h (0 Bft)
02.08.2017 19:44 25,0 °C 25,0 °C 71 % 1015,2 hPa 0,0 mm 0,0 km/h (0 Bft) NO 42 ° 0 min 0,000 mm 0,0 UV-I 95 W/m² 19,4 °C 25,0 °C 0,0 km/h (0 Bft)
02.08.2017 19:45 24,9 °C 25,0 °C 73 % 1015,2 hPa 0,0 mm 0,9 km/h (0 Bft) NO 42 ° 0 min 0,000 mm 0,0 UV-I 93 W/m² 19,7 °C 24,9 °C 1,6 km/h (1 Bft)
02.08.2017 19:46 24,9 °C 24,9 °C 71 % 1015,1 hPa 0,0 mm 0,6 km/h (0 Bft) NO 42 ° 0 min 0,000 mm 0,0 UV-I 83 W/m² 19,3 °C 24,9 °C 1,6 km/h (1 Bft)
02.08.2017 19:47 24,9 °C 24,9 °C 74 % 1015,2 hPa 0,0 mm 1,1 km/h (1 Bft) NO 42 ° 0 min 0,000 mm 0,0 UV-I 74 W/m² 19,9 °C 24,9 °C 3,2 km/h (1 Bft)
02.08.2017 19:48 24,9 °C 24,9 °C 72 % 1015,2 hPa 0,0 mm 0,8 km/h (0 Bft) NO 42 ° 0 min 0,000 mm 0,0 UV-I 81 W/m² 19,5 °C 24,9 °C 3,2 km/h (1 Bft)
02.08.2017 19:49 24,8 °C 24,9 °C 73 % 1015,2 hPa 0,0 mm 0,5 km/h (0 Bft) NO 42 ° 0 min 0,000 mm 0,0 UV-I 74 W/m² 19,6 °C 24,8 °C 1,6 km/h (1 Bft)
02.08.2017 19:50 24,8 °C 24,8 °C 71 % 1015,2 hPa 0,0 mm 0,1 km/h (0 Bft) NO 42 ° 0 min 0,000 mm 0,0 UV-I 67 W/m² 19,2 °C 24,8 °C 1,6 km/h (1 Bft)
02.08.2017 19:51 24,8 °C 24,8 °C 72 % 1015,2 hPa 0,0 mm 0,3 km/h (0 Bft) NO 42 ° 0 min 0,000 mm 0,0 UV-I 63 W/m² 19,4 °C 24,8 °C 1,6 km/h (1 Bft)
02.08.2017 19:52 24,7 °C 24,8 °C 72 % 1015,2 hPa 0,0 mm 0,0 km/h (0 Bft) NO 42 ° 0 min 0,000 mm 0,0 UV-I 58 W/m² 19,3 °C 24,7 °C 0,0 km/h (0 Bft)
02.08.2017 19:53 24,7 °C 24,7 °C 72 % 1015,2 hPa 0,0 mm 0,0 km/h (0 Bft) NO 42 ° 0 min 0,000 mm 0,0 UV-I 53 W/m² 19,3 °C 24,7 °C 0,0 km/h (0 Bft)
02.08.2017 19:54 24,7 °C 24,7 °C 73 % 1015,2 hPa 0,0 mm 0,0 km/h (0 Bft) NO 42 ° 0 min 0,000 mm 0,0 UV-I 58 W/m² 19,5 °C 24,7 °C 0,0 km/h (0 Bft)
02.08.2017 19:55 24,6 °C 24,7 °C 73 % 1015,2 hPa 0,0 mm 0,1 km/h (0 Bft) NO 42 ° 0 min 0,000 mm 0,0 UV-I 60 W/m² 19,4 °C 24,6 °C 1,6 km/h (1 Bft)
02.08.2017 19:56 24,4 °C 24,6 °C 74 % 1015,1 hPa 0,0 mm 0,0 km/h (0 Bft) NO 42 ° 0 min 0,000 mm 0,0 UV-I 54 W/m² 19,5 °C 24,4 °C 0,0 km/h (0 Bft)
02.08.2017 19:57 24,3 °C 24,4 °C 75 % 1015,2 hPa 0,0 mm 0,0 km/h (0 Bft) NO 42 ° 0 min 0,000 mm 0,0 UV-I 51 W/m² 19,6 °C 24,3 °C 0,0 km/h (0 Bft)
02.08.2017 19:58 24,2 °C 24,3 °C 76 % 1015,1 hPa 0,0 mm 0,7 km/h (0 Bft) NO 42 ° 0 min 0,000 mm 0,0 UV-I 44 W/m² 19,7 °C 24,2 °C 1,6 km/h (1 Bft)
02.08.2017 19:59 24,1 °C 24,2 °C 75 % 1015,1 hPa 0,0 mm 0,0 km/h (0 Bft) NO 42 ° 0 min 0,000 mm 0,0 UV-I 39 W/m² 19,4 °C 24,1 °C 0,0 km/h (0 Bft)
02.08.2017 20:00 24,0 °C 24,1 °C 76 % 1015,1 hPa 0,0 mm 0,1 km/h (0 Bft) NO 42 ° 0 min 0,051 mm 0,0 UV-I 39 W/m² 19,5 °C 24,0 °C 1,6 km/h (1 Bft)
02.08.2017 20:01 23,9 °C 24,0 °C 76 % 1015,1 hPa 0,0 mm 1,2 km/h (1 Bft) NO 42 ° 0 min 0,000 mm 0,0 UV-I 40 W/m² 19,4 °C 23,9 °C 3,2 km/h (1 Bft)
02.08.2017 20:02 23,8 °C 23,9 °C 75 % 1015,1 hPa 0,0 mm 1,1 km/h (1 Bft) NO 42 ° 0 min 0,000 mm 0,0 UV-I 39 W/m² 19,1 °C 23,8 °C 3,2 km/h (1 Bft)
02.08.2017 20:03 23,8 °C 23,8 °C 77 % 1015,1 hPa 0,0 mm 0,0 km/h (0 Bft) NO 42 ° 0 min 0,000 mm 0,0 UV-I 37 W/m² 19,5 °C 23,8 °C 0,0 km/h (0 Bft)
02.08.2017 20:04 23,7 °C 23,8 °C 76 % 1015,2 hPa 0,0 mm 0,0 km/h (0 Bft) NO 42 ° 0 min 0,000 mm 0,0 UV-I 39 W/m² 19,2 °C 23,7 °C 0,0 km/h (0 Bft)
02.08.2017 20:05 23,6 °C 23,7 °C 77 % 1015,1 hPa 0,0 mm 0,0 km/h (0 Bft) NO 42 ° 0 min 0,000 mm 0,0 UV-I 40 W/m² 19,3 °C 23,6 °C 0,0 km/h (0 Bft)
02.08.2017 20:06 23,6 °C 23,6 °C 77 % 1015,1 hPa 0,0 mm 0,0 km/h (0 Bft) NO 42 ° 0 min 0,000 mm 0,0 UV-I 40 W/m² 19,3 °C 23,6 °C 0,0 km/h (0 Bft)
02.08.2017 20:07 23,4 °C 23,6 °C 77 % 1015,1 hPa 0,0 mm 0,0 km/h (0 Bft) NO 42 ° 0 min 0,000 mm 0,0 UV-I 40 W/m² 19,1 °C 23,4 °C 0,0 km/h (0 Bft)
02.08.2017 20:08 23,3 °C 23,4 °C 78 % 1015,2 hPa 0,0 mm 0,0 km/h (0 Bft) NO 42 ° 0 min 0,000 mm 0,0 UV-I 39 W/m² 19,2 °C 23,3 °C 0,0 km/h (0 Bft)
02.08.2017 20:09 23,3 °C 23,3 °C 78 % 1015,2 hPa 0,0 mm 0,0 km/h (0 Bft) NO 42 ° 0 min 0,000 mm 0,0 UV-I 39 W/m² 19,2 °C 23,3 °C 0,0 km/h (0 Bft)
02.08.2017 20:10 23,3 °C 23,3 °C 78 % 1015,2 hPa 0,0 mm 0,0 km/h (0 Bft) NO 42 ° 0 min 0,000 mm 0,0 UV-I 37 W/m² 19,2 °C 23,3 °C 0,0 km/h (0 Bft)
02.08.2017 20:11 23,3 °C 23,3 °C 78 % 1015,2 hPa 0,0 mm 0,0 km/h (0 Bft) NO 42 ° 0 min 0,000 mm 0,0 UV-I 35 W/m² 19,2 °C 23,3 °C 0,0 km/h (0 Bft)
02.08.2017 20:12 23,2 °C 23,3 °C 78 % 1015,2 hPa 0,0 mm 0,0 km/h (0 Bft) NO 42 ° 0 min 0,000 mm 0,0 UV-I 33 W/m² 19,1 °C 23,2 °C 0,0 km/h (0 Bft)
02.08.2017 20:13 23,2 °C 23,2 °C 78 % 1015,2 hPa 0,0 mm 0,0 km/h (0 Bft) NO 42 ° 0 min 0,000 mm 0,0 UV-I 33 W/m² 19,1 °C 23,2 °C 0,0 km/h (0 Bft)
02.08.2017 20:14 22,9 °C 23,2 °C 79 % 1015,2 hPa 0,0 mm 0,0 km/h (0 Bft) NO 42 ° 0 min 0,000 mm 0,0 UV-I 33 W/m² 19,1 °C 22,9 °C 0,0 km/h (0 Bft)
02.08.2017 20:15 22,8 °C 22,9 °C 79 % 1015,2 hPa 0,0 mm 1,4 km/h (1 Bft) NO 42 ° 0 min 0,000 mm 0,0 UV-I 30 W/m² 19,0 °C 22,8 °C 3,2 km/h (1 Bft)
02.08.2017 20:16 22,7 °C 22,8 °C 79 % 1015,2 hPa 0,0 mm 1,1 km/h (1 Bft) NO 42 ° 0 min 0,000 mm 0,0 UV-I 28 W/m² 18,9 °C 22,7 °C 3,2 km/h (1 Bft)
02.08.2017 20:17 22,7 °C 22,7 °C 80 % 1015,2 hPa 0,0 mm 0,0 km/h (0 Bft) NO 42 ° 0 min 0,000 mm 0,0 UV-I 26 W/m² 19,1 °C 22,7 °C 0,0 km/h (0 Bft)
02.08.2017 20:18 22,7 °C 22,7 °C 80 % 1015,2 hPa 0,0 mm 0,0 km/h (0 Bft) NO 42 ° 0 min 0,000 mm 0,0 UV-I 26 W/m² 19,1 °C 22,7 °C 0,0 km/h (0 Bft)
02.08.2017 20:19 22,7 °C 22,7 °C 80 % 1015,2 hPa 0,0 mm 0,0 km/h (0 Bft) NO 42 ° 0 min 0,000 mm 0,0 UV-I 25 W/m² 19,1 °C 22,7 °C 0,0 km/h (0 Bft)
02.08.2017 20:20 22,6 °C 22,7 °C 80 % 1015,2 hPa 0,0 mm 0,0 km/h (0 Bft) NO 42 ° 0 min 0,000 mm 0,0 UV-I 21 W/m² 19,0 °C 22,6 °C 0,0 km/h (0 Bft)
02.08.2017 20:21 22,6 °C 22,6 °C 80 % 1015,2 hPa 0,0 mm 0,0 km/h (0 Bft) NO 42 ° 0 min 0,000 mm 0,0 UV-I 19 W/m² 19,0 °C 22,6 °C 0,0 km/h (0 Bft)
02.08.2017 20:22 22,6 °C 22,6 °C 79 % 1015,2 hPa 0,0 mm 0,0 km/h (0 Bft) NO 42 ° 0 min 0,000 mm 0,0 UV-I 18 W/m² 18,8 °C 22,6 °C 0,0 km/h (0 Bft)
02.08.2017 20:23 22,4 °C 22,6 °C 80 % 1015,2 hPa 0,0 mm 1,5 km/h (1 Bft) NO 43 ° 0 min 0,000 mm 0,0 UV-I 16 W/m² 18,8 °C 22,4 °C 3,2 km/h (1 Bft)
02.08.2017 20:24 22,3 °C 22,4 °C 80 % 1015,2 hPa 0,0 mm 1,9 km/h (1 Bft) NO 43 ° 0 min 0,000 mm 0,0 UV-I 16 W/m² 18,7 °C 22,3 °C 3,2 km/h (1 Bft)
02.08.2017 20:25 22,2 °C 22,3 °C 81 % 1015,3 hPa 0,0 mm 1,6 km/h (1 Bft) NO 43 ° 0 min 0,000 mm 0,0 UV-I 16 W/m² 18,8 °C 22,2 °C 3,2 km/h (1 Bft)
02.08.2017 20:26 22,0 °C 22,2 °C 81 % 1015,2 hPa 0,0 mm 0,7 km/h (0 Bft) NO 43 ° 0 min 0,000 mm 0,0 UV-I 16 W/m² 18,6 °C 22,0 °C 3,2 km/h (1 Bft)
02.08.2017 20:27 21,9 °C 22,0 °C 82 % 1015,3 hPa 0,0 mm 0,0 km/h (0 Bft) NO 43 ° 0 min 0,000 mm 0,0 UV-I 14 W/m² 18,7 °C 21,9 °C 0,0 km/h (0 Bft)
02.08.2017 20:28 21,8 °C 21,9 °C 82 % 1015,3 hPa 0,0 mm 0,0 km/h (0 Bft) NO 43 ° 0 min 0,000 mm 0,0 UV-I 12 W/m² 18,6 °C 21,8 °C 0,0 km/h (0 Bft)
02.08.2017 20:29 21,8 °C 21,8 °C 82 % 1015,3 hPa 0,0 mm 0,0 km/h (0 Bft) NO 43 ° 0 min 0,000 mm 0,0 UV-I 12 W/m² 18,6 °C 21,8 °C 0,0 km/h (0 Bft)
02.08.2017 20:30 21,8 °C 21,8 °C 82 % 1015,3 hPa 0,0 mm 0,1 km/h (0 Bft) NO 43 ° 0 min 0,000 mm 0,0 UV-I 12 W/m² 18,6 °C 21,8 °C 1,6 km/h (1 Bft)
02.08.2017 20:31 21,8 °C 21,8 °C 82 % 1015,3 hPa 0,0 mm 0,6 km/h (0 Bft) NO 43 ° 0 min 0,000 mm 0,0 UV-I 12 W/m² 18,6 °C 21,8 °C 1,6 km/h (1 Bft)
02.08.2017 20:32 21,8 °C 21,9 °C 82 % 1015,3 hPa 0,0 mm 0,0 km/h (0 Bft) NO 43 ° 0 min 0,000 mm 0,0 UV-I 11 W/m² 18,6 °C 21,8 °C 0,0 km/h (0 Bft)
02.08.2017 20:33 21,7 °C 21,8 °C 83 % 1015,3 hPa 0,0 mm 0,0 km/h (0 Bft) NO 43 ° 0 min 0,000 mm 0,0 UV-I 11 W/m² 18,7 °C 21,7 °C 0,0 km/h (0 Bft)
02.08.2017 20:34 21,6 °C 21,7 °C 83 % 1015,3 hPa 0,0 mm 0,0 km/h (0 Bft) NO 43 ° 0 min 0,000 mm 0,0 UV-I 9 W/m² 18,6 °C 21,6 °C 0,0 km/h (0 Bft)
02.08.2017 20:35 21,4 °C 21,6 °C 83 % 1015,3 hPa 0,0 mm 0,0 km/h (0 Bft) NO 43 ° 0 min 0,000 mm 0,0 UV-I 9 W/m² 18,4 °C 21,4 °C 0,0 km/h (0 Bft)
02.08.2017 20:36 21,3 °C 21,4 °C 83 % 1015,3 hPa 0,0 mm 0,0 km/h (0 Bft) NO 43 ° 0 min 0,000 mm 0,0 UV-I 9 W/m² 18,3 °C 21,3 °C 0,0 km/h (0 Bft)
02.08.2017 20:37 21,2 °C 21,3 °C 84 % 1015,3 hPa 0,0 mm 0,0 km/h (0 Bft) NO 43 ° 0 min 0,000 mm 0,0 UV-I 9 W/m² 18,4 °C 21,2 °C 0,0 km/h (0 Bft)
02.08.2017 20:38 21,1 °C 21,2 °C 84 % 1015,3 hPa 0,0 mm 0,0 km/h (0 Bft) NO 43 ° 0 min 0,000 mm 0,0 UV-I 9 W/m² 18,3 °C 21,1 °C 0,0 km/h (0 Bft)
02.08.2017 20:39 21,0 °C 21,1 °C 84 % 1015,3 hPa 0,0 mm 0,0 km/h (0 Bft) NO 43 ° 0 min 0,000 mm 0,0 UV-I 9 W/m² 18,2 °C 21,0 °C 0,0 km/h (0 Bft)
02.08.2017 20:40 20,9 °C 21,0 °C 84 % 1015,3 hPa 0,0 mm 0,0 km/h (0 Bft) NO 43 ° 0 min 0,000 mm 0,0 UV-I 7 W/m² 18,1 °C 20,9 °C 0,0 km/h (0 Bft)
02.08.2017 20:41 20,9 °C 20,9 °C 84 % 1015,3 hPa 0,0 mm 0,0 km/h (0 Bft) NO 43 ° 0 min 0,000 mm 0,0 UV-I 7 W/m² 18,1 °C 20,9 °C 0,0 km/h (0 Bft)
02.08.2017 20:42 20,9 °C 20,9 °C 84 % 1015,3 hPa 0,0 mm 0,0 km/h (0 Bft) NO 43 ° 0 min 0,000 mm 0,0 UV-I 5 W/m² 18,1 °C 20,9 °C 0,0 km/h (0 Bft)
02.08.2017 20:43 20,9 °C 21,0 °C 84 % 1015,3 hPa 0,0 mm 0,0 km/h (0 Bft) NO 43 ° 0 min 0,000 mm 0,0 UV-I 5 W/m² 18,1 °C 20,9 °C 0,0 km/h (0 Bft)
02.08.2017 20:44 20,9 °C 21,0 °C 84 % 1015,3 hPa 0,0 mm 0,0 km/h (0 Bft) NO 43 ° 0 min 0,000 mm 0,0 UV-I 5 W/m² 18,1 °C 20,9 °C 0,0 km/h (0 Bft)
02.08.2017 20:45 20,9 °C 20,9 °C 84 % 1015,3 hPa 0,0 mm 0,7 km/h (0 Bft) NO 43 ° 0 min 0,000 mm 0,0 UV-I 0 W/m² 18,1 °C 20,9 °C 1,6 km/h (1 Bft)
02.08.2017 20:46 20,8 °C 20,9 °C 84 % 1015,3 hPa 0,0 mm 0,8 km/h (0 Bft) NO 43 ° 0 min 0,000 mm 0,0 UV-I 0 W/m² 18,0 °C 20,8 °C 1,6 km/h (1 Bft)
02.08.2017 20:47 20,8 °C 20,8 °C 85 % 1015,4 hPa 0,0 mm 0,0 km/h (0 Bft) NO 43 ° 0 min 0,000 mm 0,0 UV-I 0 W/m² 18,2 °C 20,8 °C 0,0 km/h (0 Bft)
02.08.2017 20:48 20,8 °C 20,8 °C 85 % 1015,4 hPa 0,0 mm 0,0 km/h (0 Bft) NO 43 ° 0 min 0,000 mm 0,0 UV-I 0 W/m² 18,2 °C 20,8 °C 0,0 km/h (0 Bft)
02.08.2017 20:49 20,8 °C 20,8 °C 85 % 1015,4 hPa 0,0 mm 0,0 km/h (0 Bft) NO 43 ° 0 min 0,000 mm 0,0 UV-I 0 W/m² 18,2 °C 20,8 °C 0,0 km/h (0 Bft)
02.08.2017 20:50 20,7 °C 20,8 °C 86 % 1015,5 hPa 0,0 mm 0,0 km/h (0 Bft) NO 43 ° 0 min 0,000 mm 0,0 UV-I 0 W/m² 18,3 °C 20,7 °C 0,0 km/h (0 Bft)
02.08.2017 20:51 20,6 °C 20,7 °C 86 % 1015,5 hPa 0,0 mm 0,0 km/h (0 Bft) NO 43 ° 0 min 0,000 mm 0,0 UV-I 0 W/m² 18,2 °C 20,6 °C 0,0 km/h (0 Bft)
02.08.2017 20:52 20,5 °C 20,6 °C 86 % 1015,5 hPa 0,0 mm 0,0 km/h (0 Bft) NO 43 ° 0 min 0,000 mm 0,0 UV-I 0 W/m² 18,1 °C 20,5 °C 0,0 km/h (0 Bft)
02.08.2017 20:53 20,4 °C 20,5 °C 86 % 1015,5 hPa 0,0 mm 0,0 km/h (0 Bft) NO 43 ° 0 min 0,000 mm 0,0 UV-I 0 W/m² 18,0 °C 20,4 °C 0,0 km/h (0 Bft)
02.08.2017 20:54 20,3 °C 20,4 °C 86 % 1015,5 hPa 0,0 mm 0,0 km/h (0 Bft) NO 43 ° 0 min 0,000 mm 0,0 UV-I 0 W/m² 17,9 °C 20,3 °C 0,0 km/h (0 Bft)
02.08.2017 20:55 20,2 °C 20,3 °C 87 % 1015,5 hPa 0,0 mm 0,0 km/h (0 Bft) NO 43 ° 0 min 0,000 mm 0,0 UV-I 0 W/m² 18,0 °C 20,2 °C 0,0 km/h (0 Bft)
02.08.2017 20:56 20,2 °C 20,2 °C 87 % 1015,6 hPa 0,0 mm 0,0 km/h (0 Bft) NO 43 ° 0 min 0,000 mm 0,0 UV-I 0 W/m² 18,0 °C 20,2 °C 0,0 km/h (0 Bft)
02.08.2017 20:57 20,2 °C 20,2 °C 88 % 1015,5 hPa 0,0 mm 0,0 km/h (0 Bft) NO 43 ° 0 min 0,000 mm 0,0 UV-I 0 W/m² 18,1 °C 20,2 °C 0,0 km/h (0 Bft)
02.08.2017 20:58 20,2 °C 20,2 °C 87 % 1015,6 hPa 0,0 mm 0,0 km/h (0 Bft) NO 43 ° 0 min 0,000 mm 0,0 UV-I 0 W/m² 18,0 °C 20,2 °C 0,0 km/h (0 Bft)
02.08.2017 20:59 20,3 °C 20,3 °C 87 % 1015,6 hPa 0,0 mm 0,0 km/h (0 Bft) NO 43 ° 0 min 0,000 mm 0,0 UV-I 0 W/m² 18,1 °C 20,3 °C 0,0 km/h (0 Bft)
02.08.2017 21:00 20,4 °C 20,4 °C 87 % 1015,6 hPa 0,0 mm 0,0 km/h (0 Bft) NO 43 ° 0 min 0,026 mm 0,0 UV-I 0 W/m² 18,2 °C 20,4 °C 0,0 km/h (0 Bft)
02.08.2017 21:01 20,5 °C 20,5 °C 86 % 1015,6 hPa 0,0 mm 0,0 km/h (0 Bft) NO 43 ° 0 min 0,000 mm 0,0 UV-I 0 W/m² 18,1 °C 20,5 °C 0,0 km/h (0 Bft)
02.08.2017 21:02 20,6 °C 20,6 °C 85 % 1015,6 hPa 0,0 mm 0,0 km/h (0 Bft) NO 43 ° 0 min 0,000 mm 0,0 UV-I 0 W/m² 18,0 °C 20,6 °C 0,0 km/h (0 Bft)
02.08.2017 21:03 20,5 °C 20,6 °C 85 % 1015,6 hPa 0,0 mm 0,0 km/h (0 Bft) NO 43 ° 0 min 0,000 mm 0,0 UV-I 0 W/m² 17,9 °C 20,5 °C 0,0 km/h (0 Bft)
02.08.2017 21:04 20,4 °C 20,5 °C 85 % 1015,6 hPa 0,0 mm 0,0 km/h (0 Bft) NO 43 ° 0 min 0,000 mm 0,0 UV-I 0 W/m² 17,8 °C 20,4 °C 0,0 km/h (0 Bft)
02.08.2017 21:05 20,3 °C 20,4 °C 85 % 1015,7 hPa 0,0 mm 0,0 km/h (0 Bft) NO 43 ° 0 min 0,000 mm 0,0 UV-I 0 W/m² 17,7 °C 20,3 °C 0,0 km/h (0 Bft)
02.08.2017 21:06 20,3 °C 20,4 °C 85 % 1015,6 hPa 0,0 mm 0,0 km/h (0 Bft) NO 43 ° 0 min 0,000 mm 0,0 UV-I 0 W/m² 17,7 °C 20,3 °C 0,0 km/h (0 Bft)
02.08.2017 21:07 20,3 °C 20,3 °C 86 % 1015,7 hPa 0,0 mm 0,0 km/h (0 Bft) NO 43 ° 0 min 0,000 mm 0,0 UV-I 0 W/m² 17,9 °C 20,3 °C 0,0 km/h (0 Bft)
02.08.2017 21:08 20,2 °C 20,3 °C 86 % 1015,7 hPa 0,0 mm 0,0 km/h (0 Bft) NO 43 ° 0 min 0,000 mm 0,0 UV-I 0 W/m² 17,8 °C 20,2 °C 0,0 km/h (0 Bft)
02.08.2017 21:09 20,2 °C 20,2 °C 86 % 1015,7 hPa 0,0 mm 0,0 km/h (0 Bft) NO 43 ° 0 min 0,000 mm 0,0 UV-I 0 W/m² 17,8 °C 20,2 °C 0,0 km/h (0 Bft)
02.08.2017 21:10 20,3 °C 20,3 °C 86 % 1015,7 hPa 0,0 mm 0,0 km/h (0 Bft) NO 43 ° 0 min 0,000 mm 0,0 UV-I 0 W/m² 17,9 °C 20,3 °C 0,0 km/h (0 Bft)
02.08.2017 21:11 20,3 °C 20,3 °C 87 % 1015,8 hPa 0,0 mm 0,0 km/h (0 Bft) NO 43 ° 0 min 0,000 mm 0,0 UV-I 0 W/m² 18,1 °C 20,3 °C 0,0 km/h (0 Bft)
02.08.2017 21:12 20,2 °C 20,3 °C 86 % 1015,8 hPa 0,0 mm 0,0 km/h (0 Bft) NO 43 ° 0 min 0,000 mm 0,0 UV-I 0 W/m² 17,8 °C 20,2 °C 0,0 km/h (0 Bft)
02.08.2017 21:13 20,2 °C 20,2 °C 86 % 1015,8 hPa 0,0 mm 0,0 km/h (0 Bft) NO 43 ° 0 min 0,000 mm 0,0 UV-I 0 W/m² 17,8 °C 20,2 °C 0,0 km/h (0 Bft)
02.08.2017 21:14 20,2 °C 20,2 °C 87 % 1015,8 hPa 0,0 mm 0,0 km/h (0 Bft) NO 43 ° 0 min 0,000 mm 0,0 UV-I 0 W/m² 18,0 °C 20,2 °C 0,0 km/h (0 Bft)
02.08.2017 21:15 20,2 °C 20,2 °C 86 % 1015,8 hPa 0,0 mm 0,0 km/h (0 Bft) NO 43 ° 0 min 0,000 mm 0,0 UV-I 0 W/m² 17,8 °C 20,2 °C 0,0 km/h (0 Bft)
02.08.2017 21:16 20,2 °C 20,2 °C 87 % 1015,8 hPa 0,0 mm 0,0 km/h (0 Bft) NO 43 ° 0 min 0,000 mm 0,0 UV-I 0 W/m² 18,0 °C 20,2 °C 0,0 km/h (0 Bft)
02.08.2017 21:17 20,2 °C 20,2 °C 86 % 1015,8 hPa 0,0 mm 0,0 km/h (0 Bft) NO 43 ° 0 min 0,000 mm 0,0 UV-I 0 W/m² 17,8 °C 20,2 °C 0,0 km/h (0 Bft)
02.08.2017 21:18 20,2 °C 20,2 °C 86 % 1015,9 hPa 0,0 mm 0,0 km/h (0 Bft) NO 43 ° 0 min 0,000 mm 0,0 UV-I 0 W/m² 17,8 °C 20,2 °C 0,0 km/h (0 Bft)
02.08.2017 21:19 20,1 °C 20,2 °C 86 % 1015,9 hPa 0,0 mm 0,0 km/h (0 Bft) NO 43 ° 0 min 0,000 mm 0,0 UV-I 0 W/m² 17,7 °C 20,1 °C 0,0 km/h (0 Bft)
02.08.2017 21:20 20,1 °C 20,1 °C 86 % 1015,9 hPa 0,0 mm 0,0 km/h (0 Bft) NO 43 ° 0 min 0,000 mm 0,0 UV-I 0 W/m² 17,7 °C 20,1 °C 0,0 km/h (0 Bft)
02.08.2017 21:21 20,0 °C 20,1 °C 86 % 1015,9 hPa 0,0 mm 0,0 km/h (0 Bft) NO 43 ° 0 min 0,000 mm 0,0 UV-I 0 W/m² 17,6 °C 20,0 °C 0,0 km/h (0 Bft)
02.08.2017 21:22 19,9 °C 20,0 °C 86 % 1015,9 hPa 0,0 mm 0,0 km/h (0 Bft) NO 43 ° 0 min 0,000 mm 0,0 UV-I 0 W/m² 17,5 °C 19,9 °C 0,0 km/h (0 Bft)
02.08.2017 21:23 20,0 °C 20,0 °C 87 % 1015,9 hPa 0,0 mm 0,0 km/h (0 Bft) NO 43 ° 0 min 0,000 mm 0,0 UV-I 0 W/m² 17,8 °C 20,0 °C 0,0 km/h (0 Bft)
02.08.2017 21:24 20,0 °C 20,0 °C 87 % 1015,9 hPa 0,0 mm 0,0 km/h (0 Bft) NO 43 ° 0 min 0,000 mm 0,0 UV-I 0 W/m² 17,8 °C 20,0 °C 0,0 km/h (0 Bft)
02.08.2017 21:25 19,9 °C 20,0 °C 87 % 1015,9 hPa 0,0 mm 0,0 km/h (0 Bft) NO 43 ° 0 min 0,000 mm 0,0 UV-I 0 W/m² 17,7 °C 19,9 °C 0,0 km/h (0 Bft)
02.08.2017 21:26 19,9 °C 19,9 °C 87 % 1015,9 hPa 0,0 mm 0,0 km/h (0 Bft) NO 43 ° 0 min 0,000 mm 0,0 UV-I 0 W/m² 17,7 °C 19,9 °C 0,0 km/h (0 Bft)
02.08.2017 21:27 19,8 °C 19,9 °C 87 % 1015,9 hPa 0,0 mm 0,0 km/h (0 Bft) NO 43 ° 0 min 0,000 mm 0,0 UV-I 0 W/m² 17,6 °C 19,8 °C 0,0 km/h (0 Bft)
02.08.2017 21:28 19,8 °C 19,8 °C 87 % 1015,9 hPa 0,0 mm 0,0 km/h (0 Bft) NO 43 ° 0 min 0,000 mm 0,0 UV-I 0 W/m² 17,6 °C 19,8 °C 0,0 km/h (0 Bft)
02.08.2017 21:29 19,7 °C 19,8 °C 87 % 1015,9 hPa 0,0 mm 0,0 km/h (0 Bft) NO 43 ° 0 min 0,000 mm 0,0 UV-I 0 W/m² 17,5 °C 19,7 °C 0,0 km/h (0 Bft)
02.08.2017 21:30 19,7 °C 19,7 °C 87 % 1015,9 hPa 0,0 mm 0,0 km/h (0 Bft) NO 43 ° 0 min 0,000 mm 0,0 UV-I 0 W/m² 17,5 °C 19,7 °C 0,0 km/h (0 Bft)
02.08.2017 21:31 19,7 °C 19,7 °C 88 % 1015,9 hPa 0,0 mm 0,0 km/h (0 Bft) NO 43 ° 0 min 0,000 mm 0,0 UV-I 0 W/m² 17,7 °C 19,7 °C 0,0 km/h (0 Bft)
02.08.2017 21:32 19,6 °C 19,7 °C 88 % 1015,9 hPa 0,0 mm 0,0 km/h (0 Bft) NO 43 ° 0 min 0,000 mm 0,0 UV-I 0 W/m² 17,6 °C 19,6 °C 0,0 km/h (0 Bft)
02.08.2017 21:33 19,6 °C 19,6 °C 88 % 1016,0 hPa 0,0 mm 0,0 km/h (0 Bft) NO 43 ° 0 min 0,000 mm 0,0 UV-I 0 W/m² 17,6 °C 19,6 °C 0,0 km/h (0 Bft)
02.08.2017 21:34 19,6 °C 19,6 °C 88 % 1016,0 hPa 0,0 mm 0,0 km/h (0 Bft) NO 43 ° 0 min 0,000 mm 0,0 UV-I 0 W/m² 17,6 °C 19,6 °C 0,0 km/h (0 Bft)
02.08.2017 21:35 19,6 °C 19,6 °C 88 % 1016,0 hPa 0,0 mm 0,0 km/h (0 Bft) NO 43 ° 0 min 0,000 mm 0,0 UV-I 0 W/m² 17,6 °C 19,6 °C 0,0 km/h (0 Bft)
02.08.2017 21:36 19,6 °C 19,6 °C 88 % 1016,0 hPa 0,0 mm 0,0 km/h (0 Bft) NO 43 ° 0 min 0,000 mm 0,0 UV-I 0 W/m² 17,6 °C 19,6 °C 0,0 km/h (0 Bft)
02.08.2017 21:37 19,6 °C 19,7 °C 88 % 1016,1 hPa 0,0 mm 0,0 km/h (0 Bft) NO 43 ° 0 min 0,000 mm 0,0 UV-I 0 W/m² 17,6 °C 19,6 °C 0,0 km/h (0 Bft)
02.08.2017 21:38 19,7 °C 19,7 °C 88 % 1016,0 hPa 0,0 mm 0,0 km/h (0 Bft) NO 43 ° 0 min 0,000 mm 0,0 UV-I 0 W/m² 17,7 °C 19,7 °C 0,0 km/h (0 Bft)
02.08.2017 21:39 19,7 °C 19,7 °C 88 % 1016,0 hPa 0,0 mm 0,0 km/h (0 Bft) NO 43 ° 0 min 0,000 mm 0,0 UV-I 0 W/m² 17,7 °C 19,7 °C 0,0 km/h (0 Bft)
02.08.2017 21:40 19,6 °C 19,7 °C 88 % 1016,1 hPa 0,0 mm 0,0 km/h (0 Bft) NO 43 ° 0 min 0,000 mm 0,0 UV-I 0 W/m² 17,6 °C 19,6 °C 0,0 km/h (0 Bft)
02.08.2017 21:41 19,6 °C 19,6 °C 88 % 1016,1 hPa 0,0 mm 0,0 km/h (0 Bft) NO 43 ° 0 min 0,000 mm 0,0 UV-I 0 W/m² 17,6 °C 19,6 °C 0,0 km/h (0 Bft)
02.08.2017 21:42 19,5 °C 19,6 °C 88 % 1016,1 hPa 0,0 mm 0,0 km/h (0 Bft) NO 43 ° 0 min 0,000 mm 0,0 UV-I 0 W/m² 17,5 °C 19,5 °C 0,0 km/h (0 Bft)
02.08.2017 21:44 19,5 °C 19,6 °C 88 % 1016,1 hPa 0,0 mm 0,0 km/h (0 Bft) NO 43 ° 0 min 0,000 mm 0,0 UV-I 0 W/m² 17,5 °C 19,5 °C 0,0 km/h (0 Bft)
02.08.2017 21:45 19,5 °C 19,5 °C 88 % 1016,1 hPa 0,0 mm 0,0 km/h (0 Bft) NO 43 ° 0 min 0,000 mm 0,0 UV-I 0 W/m² 17,5 °C 19,5 °C 0,0 km/h (0 Bft)
02.08.2017 21:46 19,4 °C 19,5 °C 88 % 1016,1 hPa 0,0 mm 0,0 km/h (0 Bft) NO 43 ° 0 min 0,000 mm 0,0 UV-I 0 W/m² 17,4 °C 19,4 °C 0,0 km/h (0 Bft)
02.08.2017 21:47 19,4 °C 19,4 °C 88 % 1016,1 hPa 0,0 mm 0,0 km/h (0 Bft) NO 43 ° 0 min 0,000 mm 0,0 UV-I 0 W/m² 17,4 °C 19,4 °C 0,0 km/h (0 Bft)
02.08.2017 21:48 19,4 °C 19,4 °C 89 % 1016,2 hPa 0,0 mm 0,0 km/h (0 Bft) NO 43 ° 0 min 0,000 mm 0,0 UV-I 0 W/m² 17,5 °C 19,4 °C 0,0 km/h (0 Bft)
02.08.2017 21:49 19,4 °C 19,4 °C 89 % 1016,1 hPa 0,0 mm 0,0 km/h (0 Bft) NO 43 ° 0 min 0,000 mm 0,0 UV-I 0 W/m² 17,5 °C 19,4 °C 0,0 km/h (0 Bft)
02.08.2017 21:50 19,4 °C 19,4 °C 89 % 1016,2 hPa 0,0 mm 0,0 km/h (0 Bft) NO 43 ° 0 min 0,000 mm 0,0 UV-I 0 W/m² 17,5 °C 19,4 °C 0,0 km/h (0 Bft)
02.08.2017 21:51 19,4 °C 19,4 °C 89 % 1016,1 hPa 0,0 mm 0,0 km/h (0 Bft) NO 43 ° 0 min 0,000 mm 0,0 UV-I 0 W/m² 17,5 °C 19,4 °C 0,0 km/h (0 Bft)
02.08.2017 21:52 19,4 °C 19,4 °C 89 % 1016,1 hPa 0,0 mm 0,0 km/h (0 Bft) NO 43 ° 0 min 0,000 mm 0,0 UV-I 0 W/m² 17,5 °C 19,4 °C 0,0 km/h (0 Bft)
02.08.2017 21:54 19,3 °C 19,4 °C 88 % 1016,1 hPa 0,0 mm 0,0 km/h (0 Bft) NO 43 ° 0 min 0,000 mm 0,0 UV-I 0 W/m² 17,3 °C 19,3 °C 0,0 km/h (0 Bft)
02.08.2017 21:55 19,3 °C 19,3 °C 89 % 1016,1 hPa 0,0 mm 0,0 km/h (0 Bft) NO 43 ° 0 min 0,000 mm 0,0 UV-I 0 W/m² 17,4 °C 19,3 °C 0,0 km/h (0 Bft)
02.08.2017 21:56 19,2 °C 19,3 °C 89 % 1016,1 hPa 0,0 mm 0,0 km/h (0 Bft) NO 43 ° 0 min 0,000 mm 0,0 UV-I 0 W/m² 17,3 °C 19,2 °C 0,0 km/h (0 Bft)
02.08.2017 21:57 19,2 °C 19,2 °C 89 % 1016,1 hPa 0,0 mm 0,0 km/h (0 Bft) NO 43 ° 0 min 0,000 mm 0,0 UV-I 0 W/m² 17,3 °C 19,2 °C 0,0 km/h (0 Bft)
02.08.2017 21:58 19,2 °C 19,2 °C 89 % 1016,1 hPa 0,0 mm 0,0 km/h (0 Bft) NO 43 ° 0 min 0,000 mm 0,0 UV-I 0 W/m² 17,3 °C 19,2 °C 0,0 km/h (0 Bft)
02.08.2017 21:59 19,1 °C 19,2 °C 89 % 1016,0 hPa 0,0 mm 0,0 km/h (0 Bft) NO 43 ° 0 min 0,000 mm 0,0 UV-I 0 W/m² 17,2 °C 19,1 °C 0,0 km/h (0 Bft)
02.08.2017 22:00 19,1 °C 19,1 °C 89 % 1016,1 hPa 0,0 mm 0,0 km/h (0 Bft) NO 43 ° 0 min 0,000 mm 0,0 UV-I 0 W/m² 17,2 °C 19,1 °C 0,0 km/h (0 Bft)
02.08.2017 22:01 19,1 °C 19,1 °C 89 % 1016,0 hPa 0,0 mm 0,0 km/h (0 Bft) NO 43 ° 0 min 0,000 mm 0,0 UV-I 0 W/m² 17,2 °C 19,1 °C 0,0 km/h (0 Bft)
02.08.2017 22:02 19,1 °C 19,1 °C 89 % 1016,0 hPa 0,0 mm 0,0 km/h (0 Bft) NO 43 ° 0 min 0,000 mm 0,0 UV-I 0 W/m² 17,2 °C 19,1 °C 0,0 km/h (0 Bft)
02.08.2017 22:03 19,1 °C 19,1 °C 89 % 1016,1 hPa 0,0 mm 0,0 km/h (0 Bft) NO 43 ° 0 min 0,000 mm 0,0 UV-I 0 W/m² 17,2 °C 19,1 °C 0,0 km/h (0 Bft)
02.08.2017 22:04 19,1 °C 19,1 °C 89 % 1016,1 hPa 0,0 mm 0,0 km/h (0 Bft) NO 43 ° 0 min 0,000 mm 0,0 UV-I 0 W/m² 17,2 °C 19,1 °C 0,0 km/h (0 Bft)
02.08.2017 22:05 19,1 °C 19,1 °C 89 % 1016,1 hPa 0,0 mm 0,0 km/h (0 Bft) NO 43 ° 0 min 0,000 mm 0,0 UV-I 0 W/m² 17,2 °C 19,1 °C 0,0 km/h (0 Bft)
02.08.2017 22:06 19,1 °C 19,1 °C 89 % 1016,1 hPa 0,0 mm 0,0 km/h (0 Bft) NO 43 ° 0 min 0,000 mm 0,0 UV-I 0 W/m² 17,2 °C 19,1 °C 0,0 km/h (0 Bft)
02.08.2017 22:07 19,1 °C 19,1 °C 90 % 1016,1 hPa 0,0 mm 0,0 km/h (0 Bft) NO 43 ° 0 min 0,000 mm 0,0 UV-I 0 W/m² 17,4 °C 19,1 °C 0,0 km/h (0 Bft)
02.08.2017 22:08 19,1 °C 19,1 °C 90 % 1016,1 hPa 0,0 mm 0,0 km/h (0 Bft) NO 43 ° 0 min 0,000 mm 0,0 UV-I 0 W/m² 17,4 °C 19,1 °C 0,0 km/h (0 Bft)
02.08.2017 22:09 19,1 °C 19,1 °C 89 % 1016,1 hPa 0,0 mm 0,5 km/h (0 Bft) NO 42 ° 0 min 0,000 mm 0,0 UV-I 0 W/m² 17,2 °C 19,1 °C 3,2 km/h (1 Bft)
02.08.2017 22:10 19,1 °C 19,1 °C 89 % 1016,1 hPa 0,0 mm 0,0 km/h (0 Bft) NO 42 ° 0 min 0,000 mm 0,0 UV-I 0 W/m² 17,2 °C 19,1 °C 0,0 km/h (0 Bft)
02.08.2017 22:11 19,1 °C 19,1 °C 89 % 1016,0 hPa 0,0 mm 0,0 km/h (0 Bft) NO 42 ° 0 min 0,000 mm 0,0 UV-I 0 W/m² 17,2 °C 19,1 °C 0,0 km/h (0 Bft)
02.08.2017 22:12 19,1 °C 19,1 °C 89 % 1016,1 hPa 0,0 mm 0,3 km/h (0 Bft) NO 42 ° 0 min 0,000 mm 0,0 UV-I 0 W/m² 17,2 °C 19,1 °C 1,6 km/h (1 Bft)
02.08.2017 22:13 19,1 °C 19,2 °C 89 % 1016,1 hPa 0,0 mm 0,0 km/h (0 Bft) NO 42 ° 0 min 0,000 mm 0,0 UV-I 0 W/m² 17,2 °C 19,1 °C 0,0 km/h (0 Bft)
02.08.2017 22:14 19,2 °C 19,2 °C 88 % 1016,1 hPa 0,0 mm 0,0 km/h (0 Bft) NO 42 ° 0 min 0,000 mm 0,0 UV-I 0 W/m² 17,2 °C 19,2 °C 0,0 km/h (0 Bft)
02.08.2017 22:15 19,3 °C 19,3 °C 89 % 1016,0 hPa 0,0 mm 0,0 km/h (0 Bft) NO 42 ° 0 min 0,000 mm 0,0 UV-I 0 W/m² 17,4 °C 19,3 °C 0,0 km/h (0 Bft)
02.08.2017 22:16 19,3 °C 19,3 °C 88 % 1016,0 hPa 0,0 mm 0,0 km/h (0 Bft) NO 42 ° 0 min 0,000 mm 0,0 UV-I 0 W/m² 17,3 °C 19,3 °C 0,0 km/h (0 Bft)
02.08.2017 22:17 19,3 °C 19,3 °C 88 % 1016,0 hPa 0,0 mm 0,0 km/h (0 Bft) NO 42 ° 0 min 0,000 mm 0,0 UV-I 0 W/m² 17,3 °C 19,3 °C 0,0 km/h (0 Bft)
02.08.2017 22:18 19,3 °C 19,3 °C 88 % 1016,0 hPa 0,0 mm 0,0 km/h (0 Bft) NO 42 ° 0 min 0,000 mm 0,0 UV-I 0 W/m² 17,3 °C 19,3 °C 0,0 km/h (0 Bft)
02.08.2017 22:19 19,3 °C 19,3 °C 88 % 1016,0 hPa 0,0 mm 0,0 km/h (0 Bft) NO 42 ° 0 min 0,000 mm 0,0 UV-I 0 W/m² 17,3 °C 19,3 °C 0,0 km/h (0 Bft)
02.08.2017 22:20 19,2 °C 19,3 °C 88 % 1016,0 hPa 0,0 mm 0,0 km/h (0 Bft) NO 42 ° 0 min 0,000 mm 0,0 UV-I 0 W/m² 17,2 °C 19,2 °C 0,0 km/h (0 Bft)
02.08.2017 22:21 19,2 °C 19,2 °C 88 % 1016,0 hPa 0,0 mm 0,0 km/h (0 Bft) NO 42 ° 0 min 0,000 mm 0,0 UV-I 0 W/m² 17,2 °C 19,2 °C 0,0 km/h (0 Bft)
02.08.2017 22:22 19,2 °C 19,2 °C 88 % 1016,0 hPa 0,0 mm 0,0 km/h (0 Bft) NO 42 ° 0 min 0,000 mm 0,0 UV-I 0 W/m² 17,2 °C 19,2 °C 0,0 km/h (0 Bft)
02.08.2017 22:23 19,1 °C 19,2 °C 88 % 1015,9 hPa 0,0 mm 0,0 km/h (0 Bft) NO 42 ° 0 min 0,000 mm 0,0 UV-I 0 W/m² 17,1 °C 19,1 °C 0,0 km/h (0 Bft)
02.08.2017 22:24 19,1 °C 19,2 °C 88 % 1016,0 hPa 0,0 mm 0,0 km/h (0 Bft) NO 42 ° 0 min 0,000 mm 0,0 UV-I 0 W/m² 17,1 °C 19,1 °C 0,0 km/h (0 Bft)
02.08.2017 22:25 19,1 °C 19,1 °C 88 % 1015,9 hPa 0,0 mm 0,0 km/h (0 Bft) NO 42 ° 0 min 0,000 mm 0,0 UV-I 0 W/m² 17,1 °C 19,1 °C 0,0 km/h (0 Bft)
02.08.2017 22:26 19,1 °C 19,1 °C 89 % 1016,0 hPa 0,0 mm 0,0 km/h (0 Bft) NO 42 ° 0 min 0,000 mm 0,0 UV-I 0 W/m² 17,2 °C 19,1 °C 0,0 km/h (0 Bft)
02.08.2017 22:27 19,0 °C 19,1 °C 89 % 1016,0 hPa 0,0 mm 0,0 km/h (0 Bft) NO 42 ° 0 min 0,000 mm 0,0 UV-I 0 W/m² 17,1 °C 19,0 °C 0,0 km/h (0 Bft)
02.08.2017 22:28 18,9 °C 19,0 °C 89 % 1015,9 hPa 0,0 mm 0,0 km/h (0 Bft) NO 42 ° 0 min 0,000 mm 0,0 UV-I 0 W/m² 17,0 °C 18,9 °C 0,0 km/h (0 Bft)
02.08.2017 22:29 18,8 °C 18,9 °C 89 % 1016,0 hPa 0,0 mm 0,0 km/h (0 Bft) NO 42 ° 0 min 0,000 mm 0,0 UV-I 0 W/m² 16,9 °C 18,8 °C 0,0 km/h (0 Bft)
02.08.2017 22:30 18,8 °C 18,8 °C 89 % 1016,0 hPa 0,0 mm 0,0 km/h (0 Bft) NO 42 ° 0 min 0,000 mm 0,0 UV-I 0 W/m² 16,9 °C 18,8 °C 0,0 km/h (0 Bft)
02.08.2017 22:31 18,8 °C 18,8 °C 88 % 1016,0 hPa 0,0 mm 0,0 km/h (0 Bft) NO 42 ° 0 min 0,000 mm 0,0 UV-I 0 W/m² 16,8 °C 18,8 °C 0,0 km/h (0 Bft)
02.08.2017 22:32 18,8 °C 18,8 °C 89 % 1016,0 hPa 0,0 mm 0,0 km/h (0 Bft) NO 42 ° 0 min 0,000 mm 0,0 UV-I 0 W/m² 16,9 °C 18,8 °C 0,0 km/h (0 Bft)
02.08.2017 22:33 18,8 °C 18,8 °C 89 % 1016,0 hPa 0,0 mm 0,0 km/h (0 Bft) NO 42 ° 0 min 0,000 mm 0,0 UV-I 0 W/m² 16,9 °C 18,8 °C 0,0 km/h (0 Bft)
02.08.2017 22:34 18,8 °C 18,9 °C 89 % 1016,0 hPa 0,0 mm 0,0 km/h (0 Bft) NO 42 ° 0 min 0,000 mm 0,0 UV-I 0 W/m² 16,9 °C 18,8 °C 0,0 km/h (0 Bft)
02.08.2017 22:35 18,9 °C 18,9 °C 89 % 1015,9 hPa 0,0 mm 0,0 km/h (0 Bft) NO 42 ° 0 min 0,000 mm 0,0 UV-I 0 W/m² 17,0 °C 18,9 °C 0,0 km/h (0 Bft)
02.08.2017 22:36 19,0 °C 19,0 °C 89 % 1015,9 hPa 0,0 mm 0,0 km/h (0 Bft) NO 42 ° 0 min 0,000 mm 0,0 UV-I 0 W/m² 17,1 °C 19,0 °C 0,0 km/h (0 Bft)
02.08.2017 22:37 19,1 °C 19,1 °C 89 % 1015,9 hPa 0,0 mm 0,0 km/h (0 Bft) NO 42 ° 0 min 0,000 mm 0,0 UV-I 0 W/m² 17,2 °C 19,1 °C 0,0 km/h (0 Bft)
02.08.2017 22:38 19,1 °C 19,1 °C 89 % 1015,9 hPa 0,0 mm 0,0 km/h (0 Bft) NO 42 ° 0 min 0,000 mm 0,0 UV-I 0 W/m² 17,2 °C 19,1 °C 0,0 km/h (0 Bft)
02.08.2017 22:39 19,1 °C 19,1 °C 88 % 1015,9 hPa 0,0 mm 0,0 km/h (0 Bft) NO 42 ° 0 min 0,000 mm 0,0 UV-I 0 W/m² 17,1 °C 19,1 °C 0,0 km/h (0 Bft)
02.08.2017 22:40 19,1 °C 19,1 °C 88 % 1015,9 hPa 0,0 mm 0,0 km/h (0 Bft) NO 42 ° 0 min 0,000 mm 0,0 UV-I 0 W/m² 17,1 °C 19,1 °C 0,0 km/h (0 Bft)
02.08.2017 22:41 19,1 °C 19,1 °C 88 % 1015,9 hPa 0,0 mm 0,0 km/h (0 Bft) NO 42 ° 0 min 0,000 mm 0,0 UV-I 0 W/m² 17,1 °C 19,1 °C 0,0 km/h (0 Bft)
02.08.2017 22:42 19,0 °C 19,1 °C 88 % 1015,9 hPa 0,0 mm 0,0 km/h (0 Bft) NO 42 ° 0 min 0,000 mm 0,0 UV-I 0 W/m² 17,0 °C 19,0 °C 0,0 km/h (0 Bft)
02.08.2017 22:43 18,9 °C 19,0 °C 88 % 1015,9 hPa 0,0 mm 0,0 km/h (0 Bft) NO 42 ° 0 min 0,000 mm 0,0 UV-I 0 W/m² 16,9 °C 18,9 °C 0,0 km/h (0 Bft)
02.08.2017 22:44 18,9 °C 18,9 °C 88 % 1016,0 hPa 0,0 mm 0,0 km/h (0 Bft) NO 42 ° 0 min 0,000 mm 0,0 UV-I 0 W/m² 16,9 °C 18,9 °C 0,0 km/h (0 Bft)
02.08.2017 22:45 18,8 °C 18,9 °C 88 % 1015,9 hPa 0,0 mm 0,0 km/h (0 Bft) NO 42 ° 0 min 0,000 mm 0,0 UV-I 0 W/m² 16,8 °C 18,8 °C 0,0 km/h (0 Bft)
02.08.2017 22:46 18,8 °C 18,8 °C 89 % 1016,0 hPa 0,0 mm 0,0 km/h (0 Bft) NO 42 ° 0 min 0,000 mm 0,0 UV-I 0 W/m² 16,9 °C 18,8 °C 0,0 km/h (0 Bft)
02.08.2017 22:47 18,7 °C 18,8 °C 89 % 1015,9 hPa 0,0 mm 0,0 km/h (0 Bft) NO 42 ° 0 min 0,000 mm 0,0 UV-I 0 W/m² 16,8 °C 18,7 °C 0,0 km/h (0 Bft)
02.08.2017 22:48 18,7 °C 18,7 °C 89 % 1015,9 hPa 0,0 mm 0,0 km/h (0 Bft) NO 42 ° 0 min 0,000 mm 0,0 UV-I 0 W/m² 16,8 °C 18,7 °C 0,0 km/h (0 Bft)
02.08.2017 22:49 18,7 °C 18,7 °C 89 % 1016,0 hPa 0,0 mm 0,0 km/h (0 Bft) NO 42 ° 0 min 0,000 mm 0,0 UV-I 0 W/m² 16,8 °C 18,7 °C 0,0 km/h (0 Bft)
02.08.2017 22:50 18,6 °C 18,7 °C 89 % 1016,0 hPa 0,0 mm 0,0 km/h (0 Bft) NO 42 ° 0 min 0,000 mm 0,0 UV-I 0 W/m² 16,7 °C 18,6 °C 0,0 km/h (0 Bft)
02.08.2017 22:51 18,6 °C 18,6 °C 89 % 1015,9 hPa 0,0 mm 0,0 km/h (0 Bft) NO 42 ° 0 min 0,000 mm 0,0 UV-I 0 W/m² 16,7 °C 18,6 °C 0,0 km/h (0 Bft)
02.08.2017 22:52 18,6 °C 18,6 °C 89 % 1016,0 hPa 0,0 mm 0,0 km/h (0 Bft) NO 42 ° 0 min 0,000 mm 0,0 UV-I 0 W/m² 16,7 °C 18,6 °C 0,0 km/h (0 Bft)
02.08.2017 22:53 18,6 °C 18,6 °C 89 % 1015,9 hPa 0,0 mm 0,0 km/h (0 Bft) NO 42 ° 0 min 0,000 mm 0,0 UV-I 0 W/m² 16,7 °C 18,6 °C 0,0 km/h (0 Bft)
02.08.2017 22:54 18,6 °C 18,6 °C 89 % 1015,9 hPa 0,0 mm 0,0 km/h (0 Bft) NO 42 ° 0 min 0,000 mm 0,0 UV-I 0 W/m² 16,7 °C 18,6 °C 0,0 km/h (0 Bft)
02.08.2017 22:55 18,6 °C 18,6 °C 89 % 1015,9 hPa 0,0 mm 0,0 km/h (0 Bft) NO 42 ° 0 min 0,000 mm 0,0 UV-I 0 W/m² 16,7 °C 18,6 °C 0,0 km/h (0 Bft)
02.08.2017 22:56 18,4 °C 18,6 °C 89 % 1015,9 hPa 0,0 mm 0,0 km/h (0 Bft) NO 42 ° 0 min 0,000 mm 0,0 UV-I 0 W/m² 16,6 °C 18,4 °C 0,0 km/h (0 Bft)
02.08.2017 22:57 18,4 °C 18,4 °C 89 % 1015,9 hPa 0,0 mm 0,0 km/h (0 Bft) NO 42 ° 0 min 0,000 mm 0,0 UV-I 0 W/m² 16,6 °C 18,4 °C 0,0 km/h (0 Bft)
02.08.2017 22:58 18,3 °C 18,4 °C 90 % 1015,9 hPa 0,0 mm 0,0 km/h (0 Bft) NO 42 ° 0 min 0,000 mm 0,0 UV-I 0 W/m² 16,6 °C 18,3 °C 0,0 km/h (0 Bft)
02.08.2017 22:59 18,2 °C 18,3 °C 90 % 1015,9 hPa 0,0 mm 0,0 km/h (0 Bft) NO 42 ° 0 min 0,000 mm 0,0 UV-I 0 W/m² 16,5 °C 18,2 °C 0,0 km/h (0 Bft)
02.08.2017 23:00 18,2 °C 18,2 °C 90 % 1015,9 hPa 0,0 mm 0,0 km/h (0 Bft) NO 42 ° 0 min 0,000 mm 0,0 UV-I 0 W/m² 16,5 °C 18,2 °C 0,0 km/h (0 Bft)
02.08.2017 23:01 18,2 °C 18,2 °C 90 % 1015,9 hPa 0,0 mm 0,0 km/h (0 Bft) NO 42 ° 0 min 0,000 mm 0,0 UV-I 0 W/m² 16,5 °C 18,2 °C 0,0 km/h (0 Bft)
02.08.2017 23:02 18,2 °C 18,2 °C 90 % 1016,0 hPa 0,0 mm 0,0 km/h (0 Bft) NO 42 ° 0 min 0,000 mm 0,0 UV-I 0 W/m² 16,5 °C 18,2 °C 0,0 km/h (0 Bft)
02.08.2017 23:03 18,1 °C 18,2 °C 90 % 1016,0 hPa 0,0 mm 0,0 km/h (0 Bft) NO 42 ° 0 min 0,000 mm 0,0 UV-I 0 W/m² 16,4 °C 18,1 °C 0,0 km/h (0 Bft)
02.08.2017 23:04 18,1 °C 18,1 °C 90 % 1015,9 hPa 0,0 mm 0,0 km/h (0 Bft) NO 42 ° 0 min 0,000 mm 0,0 UV-I 0 W/m² 16,4 °C 18,1 °C 0,0 km/h (0 Bft)
02.08.2017 23:05 18,1 °C 18,1 °C 90 % 1016,0 hPa 0,0 mm 0,0 km/h (0 Bft) NO 42 ° 0 min 0,000 mm 0,0 UV-I 0 W/m² 16,4 °C 18,1 °C 0,0 km/h (0 Bft)
02.08.2017 23:06 18,1 °C 18,1 °C 90 % 1016,0 hPa 0,0 mm 0,0 km/h (0 Bft) NO 42 ° 0 min 0,000 mm 0,0 UV-I 0 W/m² 16,4 °C 18,1 °C 0,0 km/h (0 Bft)
02.08.2017 23:07 18,0 °C 18,1 °C 90 % 1015,9 hPa 0,0 mm 0,0 km/h (0 Bft) NO 42 ° 0 min 0,000 mm 0,0 UV-I 0 W/m² 16,3 °C 18,0 °C 0,0 km/h (0 Bft)
02.08.2017 23:08 18,0 °C 18,1 °C 90 % 1015,9 hPa 0,0 mm 0,0 km/h (0 Bft) NO 42 ° 0 min 0,000 mm 0,0 UV-I 0 W/m² 16,3 °C 18,0 °C 0,0 km/h (0 Bft)
02.08.2017 23:09 18,0 °C 18,0 °C 90 % 1015,9 hPa 0,0 mm 0,0 km/h (0 Bft) NO 42 ° 0 min 0,000 mm 0,0 UV-I 0 W/m² 16,3 °C 18,0 °C 0,0 km/h (0 Bft)
02.08.2017 23:10 18,0 °C 18,0 °C 90 % 1015,9 hPa 0,0 mm 0,0 km/h (0 Bft) NO 42 ° 0 min 0,000 mm 0,0 UV-I 0 W/m² 16,3 °C 18,0 °C 0,0 km/h (0 Bft)
02.08.2017 23:11 18,0 °C 18,1 °C 90 % 1015,9 hPa 0,0 mm 0,0 km/h (0 Bft) NO 42 ° 0 min 0,000 mm 0,0 UV-I 0 W/m² 16,3 °C 18,0 °C 0,0 km/h (0 Bft)
02.08.2017 23:12 18,0 °C 18,0 °C 90 % 1015,9 hPa 0,0 mm 0,0 km/h (0 Bft) NO 42 ° 0 min 0,000 mm 0,0 UV-I 0 W/m² 16,3 °C 18,0 °C 0,0 km/h (0 Bft)
02.08.2017 23:13 18,1 °C 18,1 °C 90 % 1015,9 hPa 0,0 mm 0,0 km/h (0 Bft) NO 42 ° 0 min 0,000 mm 0,0 UV-I 0 W/m² 16,4 °C 18,1 °C 0,0 km/h (0 Bft)
02.08.2017 23:14 18,1 °C 18,1 °C 90 % 1015,9 hPa 0,0 mm 0,0 km/h (0 Bft) NO 42 ° 0 min 0,000 mm 0,0 UV-I 0 W/m² 16,4 °C 18,1 °C 0,0 km/h (0 Bft)
02.08.2017 23:15 18,1 °C 18,1 °C 90 % 1015,9 hPa 0,0 mm 0,0 km/h (0 Bft) NO 42 ° 0 min 0,000 mm 0,0 UV-I 0 W/m² 16,4 °C 18,1 °C 0,0 km/h (0 Bft)
02.08.2017 23:16 18,1 °C 18,1 °C 90 % 1015,9 hPa 0,0 mm 0,0 km/h (0 Bft) NO 42 ° 0 min 0,000 mm 0,0 UV-I 0 W/m² 16,4 °C 18,1 °C 0,0 km/h (0 Bft)
02.08.2017 23:17 18,1 °C 18,1 °C 89 % 1015,9 hPa 0,0 mm 0,0 km/h (0 Bft) NO 42 ° 0 min 0,000 mm 0,0 UV-I 0 W/m² 16,3 °C 18,1 °C 0,0 km/h (0 Bft)
02.08.2017 23:18 18,0 °C 18,1 °C 89 % 1015,9 hPa 0,0 mm 0,0 km/h (0 Bft) NO 42 ° 0 min 0,000 mm 0,0 UV-I 0 W/m² 16,2 °C 18,0 °C 0,0 km/h (0 Bft)
02.08.2017 23:19 18,0 °C 18,0 °C 90 % 1016,0 hPa 0,0 mm 0,0 km/h (0 Bft) NO 42 ° 0 min 0,000 mm 0,0 UV-I 0 W/m² 16,3 °C 18,0 °C 0,0 km/h (0 Bft)
02.08.2017 23:20 18,0 °C 18,0 °C 90 % 1015,8 hPa 0,0 mm 0,0 km/h (0 Bft) NO 42 ° 0 min 0,000 mm 0,0 UV-I 0 W/m² 16,3 °C 18,0 °C 0,0 km/h (0 Bft)
02.08.2017 23:21 18,1 °C 18,1 °C 90 % 1015,9 hPa 0,0 mm 0,0 km/h (0 Bft) NO 42 ° 0 min 0,000 mm 0,0 UV-I 0 W/m² 16,4 °C 18,1 °C 0,0 km/h (0 Bft)
02.08.2017 23:22 18,1 °C 18,1 °C 90 % 1015,8 hPa 0,0 mm 0,0 km/h (0 Bft) NO 42 ° 0 min 0,000 mm 0,0 UV-I 0 W/m² 16,4 °C 18,1 °C 0,0 km/h (0 Bft)
02.08.2017 23:23 18,1 °C 18,1 °C 90 % 1015,9 hPa 0,0 mm 0,0 km/h (0 Bft) NO 42 ° 0 min 0,000 mm 0,0 UV-I 0 W/m² 16,4 °C 18,1 °C 0,0 km/h (0 Bft)
02.08.2017 23:24 18,1 °C 18,1 °C 90 % 1015,8 hPa 0,0 mm 0,0 km/h (0 Bft) NO 42 ° 0 min 0,000 mm 0,0 UV-I 0 W/m² 16,4 °C 18,1 °C 0,0 km/h (0 Bft)
02.08.2017 23:25 18,1 °C 18,1 °C 90 % 1015,9 hPa 0,0 mm 0,0 km/h (0 Bft) NO 42 ° 0 min 0,000 mm 0,0 UV-I 0 W/m² 16,4 °C 18,1 °C 0,0 km/h (0 Bft)
02.08.2017 23:26 18,1 °C 18,1 °C 90 % 1015,9 hPa 0,0 mm 0,0 km/h (0 Bft) NO 42 ° 0 min 0,000 mm 0,0 UV-I 0 W/m² 16,4 °C 18,1 °C 0,0 km/h (0 Bft)
02.08.2017 23:27 18,1 °C 18,1 °C 90 % 1015,8 hPa 0,0 mm 0,0 km/h (0 Bft) NO 42 ° 0 min 0,000 mm 0,0 UV-I 0 W/m² 16,4 °C 18,1 °C 0,0 km/h (0 Bft)
02.08.2017 23:28 18,1 °C 18,1 °C 90 % 1015,9 hPa 0,0 mm 0,0 km/h (0 Bft) NO 42 ° 0 min 0,000 mm 0,0 UV-I 0 W/m² 16,4 °C 18,1 °C 0,0 km/h (0 Bft)
02.08.2017 23:29 18,1 °C 18,2 °C 90 % 1015,9 hPa 0,0 mm 0,0 km/h (0 Bft) NO 42 ° 0 min 0,000 mm 0,0 UV-I 0 W/m² 16,4 °C 18,1 °C 0,0 km/h (0 Bft)
02.08.2017 23:30 18,1 °C 18,2 °C 90 % 1015,9 hPa 0,0 mm 0,1 km/h (0 Bft) NO 42 ° 0 min 0,000 mm 0,0 UV-I 0 W/m² 16,4 °C 18,1 °C 1,6 km/h (1 Bft)
02.08.2017 23:31 18,1 °C 18,1 °C 90 % 1015,9 hPa 0,0 mm 0,0 km/h (0 Bft) NO 42 ° 0 min 0,000 mm 0,0 UV-I 0 W/m² 16,4 °C 18,1 °C 0,0 km/h (0 Bft)
02.08.2017 23:32 18,1 °C 18,1 °C 90 % 1016,0 hPa 0,0 mm 0,7 km/h (0 Bft) NO 42 ° 0 min 0,000 mm 0,0 UV-I 0 W/m² 16,4 °C 18,1 °C 1,6 km/h (1 Bft)
02.08.2017 23:33 18,1 °C 18,1 °C 89 % 1016,0 hPa 0,0 mm 0,1 km/h (0 Bft) NO 42 ° 0 min 0,000 mm 0,0 UV-I 0 W/m² 16,3 °C 18,1 °C 1,6 km/h (1 Bft)
02.08.2017 23:34 18,0 °C 18,1 °C 89 % 1016,0 hPa 0,0 mm 0,0 km/h (0 Bft) NO 42 ° 0 min 0,000 mm 0,0 UV-I 0 W/m² 16,2 °C 18,0 °C 0,0 km/h (0 Bft)
02.08.2017 23:35 18,0 °C 18,1 °C 89 % 1016,0 hPa 0,0 mm 0,5 km/h (0 Bft) NO 42 ° 0 min 0,000 mm 0,0 UV-I 0 W/m² 16,2 °C 18,0 °C 1,6 km/h (1 Bft)
02.08.2017 23:36 17,9 °C 18,0 °C 89 % 1016,0 hPa 0,0 mm 0,0 km/h (0 Bft) NO 42 ° 0 min 0,000 mm 0,0 UV-I 0 W/m² 16,1 °C 17,9 °C 0,0 km/h (0 Bft)
02.08.2017 23:37 17,9 °C 17,9 °C 89 % 1015,9 hPa 0,0 mm 0,0 km/h (0 Bft) NO 42 ° 0 min 0,000 mm 0,0 UV-I 0 W/m² 16,1 °C 17,9 °C 0,0 km/h (0 Bft)
02.08.2017 23:38 17,9 °C 17,9 °C 89 % 1015,9 hPa 0,0 mm 0,0 km/h (0 Bft) NO 42 ° 0 min 0,000 mm 0,0 UV-I 0 W/m² 16,1 °C 17,9 °C 0,0 km/h (0 Bft)
02.08.2017 23:39 18,0 °C 18,0 °C 89 % 1016,0 hPa 0,0 mm 0,0 km/h (0 Bft) NO 42 ° 0 min 0,000 mm 0,0 UV-I 0 W/m² 16,2 °C 18,0 °C 0,0 km/h (0 Bft)
02.08.2017 23:40 18,0 °C 18,0 °C 89 % 1016,0 hPa 0,0 mm 0,0 km/h (0 Bft) NO 42 ° 0 min 0,000 mm 0,0 UV-I 0 W/m² 16,2 °C 18,0 °C 0,0 km/h (0 Bft)
02.08.2017 23:41 18,0 °C 18,0 °C 89 % 1015,9 hPa 0,0 mm 0,0 km/h (0 Bft) NO 42 ° 0 min 0,000 mm 0,0 UV-I 0 W/m² 16,2 °C 18,0 °C 0,0 km/h (0 Bft)
02.08.2017 23:42 17,9 °C 18,0 °C 89 % 1015,9 hPa 0,0 mm 0,0 km/h (0 Bft) NO 42 ° 0 min 0,000 mm 0,0 UV-I 0 W/m² 16,1 °C 17,9 °C 0,0 km/h (0 Bft)
02.08.2017 23:43 17,9 °C 17,9 °C 89 % 1016,0 hPa 0,0 mm 0,0 km/h (0 Bft) NO 42 ° 0 min 0,000 mm 0,0 UV-I 0 W/m² 16,1 °C 17,9 °C 0,0 km/h (0 Bft)
02.08.2017 23:44 17,9 °C 17,9 °C 89 % 1015,9 hPa 0,0 mm 0,0 km/h (0 Bft) NO 42 ° 0 min 0,000 mm 0,0 UV-I 0 W/m² 16,1 °C 17,9 °C 0,0 km/h (0 Bft)
02.08.2017 23:45 17,9 °C 17,9 °C 90 % 1016,0 hPa 0,0 mm 0,0 km/h (0 Bft) NO 42 ° 0 min 0,000 mm 0,0 UV-I 0 W/m² 16,2 °C 17,9 °C 0,0 km/h (0 Bft)
02.08.2017 23:46 17,8 °C 17,9 °C 90 % 1016,0 hPa 0,0 mm 0,0 km/h (0 Bft) NO 42 ° 0 min 0,000 mm 0,0 UV-I 0 W/m² 16,1 °C 17,8 °C 0,0 km/h (0 Bft)
02.08.2017 23:47 17,8 °C 17,8 °C 90 % 1016,0 hPa 0,0 mm 0,0 km/h (0 Bft) NO 42 ° 0 min 0,000 mm 0,0 UV-I 0 W/m² 16,1 °C 17,8 °C 0,0 km/h (0 Bft)
02.08.2017 23:48 17,8 °C 17,8 °C 90 % 1015,9 hPa 0,0 mm 0,0 km/h (0 Bft) NO 42 ° 0 min 0,000 mm 0,0 UV-I 0 W/m² 16,1 °C 17,8 °C 0,0 km/h (0 Bft)
02.08.2017 23:49 17,7 °C 17,8 °C 90 % 1015,9 hPa 0,0 mm 0,0 km/h (0 Bft) NO 42 ° 0 min 0,000 mm 0,0 UV-I 0 W/m² 16,0 °C 17,7 °C 0,0 km/h (0 Bft)
02.08.2017 23:50 17,7 °C 17,7 °C 90 % 1016,0 hPa 0,0 mm 0,0 km/h (0 Bft) NO 42 ° 0 min 0,000 mm 0,0 UV-I 0 W/m² 16,0 °C 17,7 °C 0,0 km/h (0 Bft)
02.08.2017 23:51 17,7 °C 17,7 °C 90 % 1015,9 hPa 0,0 mm 0,0 km/h (0 Bft) NO 42 ° 0 min 0,000 mm 0,0 UV-I 0 W/m² 16,0 °C 17,7 °C 0,0 km/h (0 Bft)
02.08.2017 23:52 17,6 °C 17,7 °C 90 % 1015,9 hPa 0,0 mm 0,0 km/h (0 Bft) NO 42 ° 0 min 0,000 mm 0,0 UV-I 0 W/m² 15,9 °C 17,6 °C 0,0 km/h (0 Bft)
02.08.2017 23:53 17,6 °C 17,6 °C 90 % 1015,9 hPa 0,0 mm 0,0 km/h (0 Bft) NO 42 ° 0 min 0,000 mm 0,0 UV-I 0 W/m² 15,9 °C 17,6 °C 0,0 km/h (0 Bft)
02.08.2017 23:54 17,6 °C 17,6 °C 91 % 1015,9 hPa 0,0 mm 0,0 km/h (0 Bft) NO 42 ° 0 min 0,000 mm 0,0 UV-I 0 W/m² 16,1 °C 17,6 °C 0,0 km/h (0 Bft)
02.08.2017 23:55 17,6 °C 17,6 °C 91 % 1015,9 hPa 0,0 mm 0,0 km/h (0 Bft) NO 42 ° 0 min 0,000 mm 0,0 UV-I 0 W/m² 16,1 °C 17,6 °C 0,0 km/h (0 Bft)
02.08.2017 23:56 17,6 °C 17,6 °C 91 % 1015,9 hPa 0,0 mm 0,0 km/h (0 Bft) NO 42 ° 0 min 0,000 mm 0,0 UV-I 0 W/m² 16,1 °C 17,6 °C 0,0 km/h (0 Bft)
02.08.2017 23:57 17,5 °C 17,6 °C 91 % 1015,9 hPa 0,0 mm 0,0 km/h (0 Bft) NO 42 ° 0 min 0,000 mm 0,0 UV-I 0 W/m² 16,0 °C 17,5 °C 0,0 km/h (0 Bft)
02.08.2017 23:58 17,5 °C 17,6 °C 91 % 1015,9 hPa 0,0 mm 0,0 km/h (0 Bft) NO 42 ° 0 min 0,000 mm 0,0 UV-I 0 W/m² 16,0 °C 17,5 °C 0,0 km/h (0 Bft)
02.08.2017 23:59 17,4 °C 17,5 °C 91 % 1015,9 hPa 0,0 mm 0,0 km/h (0 Bft) NO 42 ° 0 min 0,000 mm 0,0 UV-I 0 W/m² 15,9 °C 17,4 °C 0,0 km/h (0 Bft)
_ Min-Zeit 06:18 06:18 15:36 00:26 - 23:59 - - - - - - 06:18 06:18 23:59
Minimum _ 16,4 °C 16,4 °C 54 % 1014,4 hPa - 0,0 km/h (0 Bft) - - - - - - 15,8 °C 16,4 °C 0,0 km/h (0 Bft)
_ Max-Zeit 16:05 16:06 07:48 04:24 04:26 11:53 - - 10:55 15:00 13:53 13:33 10:17 16:05 11:53
Maximum _ 27,8 °C 27,8 °C 96 % 1018,1 hPa 0,4 mm 15,4 km/h
W-NW (3 Bft)
- - 2 min 0,559 mm 7,5 UV-I 1016 W/m² 20,9 °C 27,8 °C 22,5 km/h
W (4 Bft)
Durchschnitt _ 21,5 °C 21,6 °C 82 % 1016,1 hPa #2,0 mm 2,1 km/h (1 Bft) W - #7:00 h #3,404 mm 3,4 UV-I 209 W/m² 17,9 °C 21,5 °C 3,8 km/h (1 Bft)